GFSWCAN_sfc_temp_000.txt.gz
Temp
50 50 50 50 50 50 50 51 51 51 52 51 51 51 51 51 51 62 59 58 64 54 59 59 60 58 58 61 53 54 54 51 46 38 36 39 36 45 44 48 44 43 38 34 35 31 30 54 53 41 50 48 45 46
49 49 49 50 49 50 50 50 50 50 50 51 51 51 51 51 51 55 64 59 59 62 59 59 60 62 63 68 61 55 56 55 55 45 39 38 36 34 40 39 51 42 48 45 43 45 57 58 54 55 50 47 50 48
49 49 49 49 49 49 50 50 50 50 50 50 50 51 51 52 51 56 63 59 61 52 57 60 59 61 65 66 68 57 54 58 55 57 49 41 35 45 34 39 41 52 55 45 45 51 54 55 58 55 51 47 47 47
48 48 48 49 49 49 49 49 49 49 49 49 50 50 50 52 51 54 60 59 59 51 37 54 58 59 63 64 65 66 60 57 56 55 39 37 37 52 39 49 47 53 53 48 44 50 53 55 53 49 48 47 46 52
48 48 48 48 48 48 48 49 49 49 49 48 49 49 50 51 51 58 60 60 61 60 45 51 56 57 60 62 63 63 61 57 51 42 36 39 46 46 44 42 44 55 52 41 37 49 49 49 49 50 47 49 51 50
48 48 48 48 48 48 48 48 49 49 49 49 49 50 50 51 51 61 58 60 60 61 49 42 55 53 56 60 59 59 61 56 55 47 41 48 54 50 35 36 48 56 57 52 48 52 52 50 49 52 51 51 51 51
48 48 47 47 48 48 48 48 48 48 49 49 49 50 50 50 59 57 56 56 54 61 45 42 45 50 51 54 53 56 55 55 52 48 44 47 50 50 35 35 50 52 51 50 49 48 46 50 49 50 50 51 51 53
47 47 47 47 47 48 48 48 48 48 48 49 49 49 49 50 51 53 56 52 55 52 47 40 38 43 50 44 42 46 43 47 48 47 41 43 46 44 36 49 48 48 47 49 49 51 51 50 50 50 52 52 49 49
47 47 47 47 47 47 48 48 48 48 48 49 49 49 50 48 46 48 49 52 55 54 44 37 36 36 48 41 41 41 45 38 45 37 38 42 38 36 44 46 44 43 45 48 49 50 50 48 49 49 49 49 47 46
47 47 46 47 47 47 47 48 48 48 48 49 49 45 37 42 48 49 48 45 41 43 43 37 47 41 48 38 37 39 39 38 35 36 40 34 35 41 43 43 46 47 49 49 44 42 45 45 46 46 46 47 46 45
47 47 47 47 47 47 48 48 48 48 48 45 39 37 43 47 46 42 36 37 36 34 37 36 37 36 40 38 36 36 34 34 33 36 35 35 37 42 45 46 48 49 49 48 49 48 48 47 45 44 43 43 41 40
47 48 47 47 47 47 47 47 48 46 45 45 44 45 43 41 36 35 34 32 33 34 34 34 35 37 35 41 37 34 33 33 31 40 32 32 43 44 46 46 46 48 48 47 48 47 46 45 45 43 42 41 40 37
46 47 47 47 47 47 47 48 47 46 46 45 40 34 36 34 32 32 31 32 32 35 35 34 33 36 36 37 32 34 31 32 37 30 33 40 43 45 46 46 45 47 45 41 46 46 46 45 43 38 36 37 34 36
46 46 47 47 47 47 47 47 46 45 43 37 34 32 33 32 33 34 36 36 36 36 36 35 33 35 33 32 32 31 30 34 28 26 30 40 43 45 45 44 45 44 37 38 42 43 39 36 36 35 33 33 32 33
46 46 47 47 47 47 46 46 46 47 42 36 36 31 32 32 35 35 35 36 35 37 37 34 33 38 31 30 31 29 26 27 30 31 37 42 43 43 42 42 43 40 35 36 42 38 34 34 34 35 36 35 35 33
46 46 46 47 47 47 46 46 45 43 38 36 33 31 32 32 32 33 34 33 36 34 35 37 33 31 29 31 27 28 28 28 33 36 40 42 41 40 41 41 41 41 39 40 40 39 38 34 33 37 36 34 33 33
45 42 46 46 45 44 44 43 43 36 34 33 31 33 32 33 34 34 36 35 37 35 32 34 30 29 29 28 27 31 29 34 37 39 41 39 40 41 42 41 36 37 38 39 40 39 39 37 34 33 33 39 37 36
43 45 46 46 47 44 39 42 37 34 31 32 32 32 33 33 33 34 35 36 36 35 35 34 34 28 28 27 30 33 35 38 39 40 42 42 42 41 42 41 42 41 41 40 37 37 37 33 34 40 39 39 36 36
46 45 46 46 48 42 38 36 38 33 31 32 31 33 33 32 32 33 34 34 38 40 36 34 30 30 30 32 34 34 36 37 40 42 42 42 41 39 39 40 39 39 39 39 39 41 42 40 39 40 40 39 34 36
45 44 43 44 46 41 34 34 39 36 33 33 32 33 33 32 32 32 33 36 37 37 33 32 33 35 36 39 39 40 41 41 39 36 38 41 41 40 39 40 41 42 41 41 40 35 38 39 42 41 39 38 34 33
40 41 41 41 38 38 36 34 33 34 34 33 31 34 29 31 30 31 32 35 33 33 33 37 36 39 39 40 41 41 40 40 39 37 37 38 42 41 41 41 41 40 39 38 36 37 34 36 39 39 34 33 33 34
39 42 36 37 34 33 33 33 35 34 34 32 32 34 30 28 28 29 33 30 32 36 39 39 41 41 40 38 40 40 41 40 40 39 36 37 37 39 39 40 39 36 37 36 38 35 36 38 37 35 33 33 34 34
39 38 34 34 31 31 27 34 31 31 29 28 30 29 28 29 28 31 28 32 34 39 41 41 41 41 40 41 40 40 40 39 39 40 39 39 40 39 37 39 38 34 34 38 39 37 35 35 34 33 34 33 33 32
39 32 30 28 30 25 30 26 30 28 28 27 27 24 25 28 27 25 24 28 34 38 36 37 39 39 40 36 37 41 41 41 41 40 40 38 38 40 41 40 39 37 37 38 36 35 34 33 33 33 32 32 32 32
32 27 29 23 27 25 24 25 25 27 24 24 21 23 23 25 24 22 23 31 33 34 37 38 37 38 38 39 40 41 38 40 39 39 41 40 37 36 37 40 40 38 37 32 32 32 32 32 32 32 32 31 31 31
23 27 26 25 24 25 24 21 22 23 24 21 22 24 23 25 22 25 30 34 33 35 34 35 36 38 39 40 39 40 42 40 38 36 39 40 38 34 32 32 33 35 36 34 32 31 31 32 31 31 31 31 31 30
22 24 28 30 28 25 22 22 23 23 20 19 25 20 23 21 23 30 35 33 34 32 33 34 33 34 34 35 36 37 37 36 34 36 37 35 34 34 32 30 30 32 33 33 32 31 30 30 30 30 30 31 31 30
27 28 22 25 25 27 23 23 22 21 26 27 26 21 22 25 28 30 28 27 27 29 31 32 32 30 30 31 31 30 30 32 32 33 32 32 32 32 29 30 30 28 30 31 31 31 30 30 30 29 29 29 30 30
27 27 27 21 22 23 25 27 27 30 32 29 27 28 28 29 21 22 23 23 25 25 24 23 24 25 28 28 29 28 27 25 24 23 25 27 30 25 25 25 26 26 26 28 28 28 29 29 28 28 28 28 28 27
26 29 26 22 20 23 30 31 30 30 31 32 32 31 27 20 18 21 21 20 18 18 18 19 20 20 19 19 21 23 23 23 21 19 19 19 19 21 22 21 21 22 23 24 25 28 29 28 27 27 25 24 23 22
28 27 26 25 25 29 27 22 24 24 26 29 28 29 30 17 17 18 17 18 18 18 17 16 18 19 19 18 18 18 18 19 18 18 18 19 19 19 18 18 18 19 20 21 22 23 22 23 21 20 19 16 15 15
26 26 25 21 26 25 23 23 24 25 27 25 28 22 19 19 13 14 14 16 15 13 12 14 14 16 18 18 18 18 16 16 16 15 14 15 15 15 15 15 15 16 17 18 19 18 18 17 16 16 15 13 11 10
22 22 21 21 22 23 22 21 23 21 22 22 19 18 15 15 7 12 16 16 14 12 12 13 15 16 18 16 15 16 16 16 14 13 11 11 10 9 11 12 12 13 14 15 15 15 14 12 11 10 9 7 7 6

GFSWCAN_sfc_temp_003.txt.gz
Temp
50 50 50 50 50 51 51 51 51 52 52 52 52 52 51 52 52 62 68 66 69 62 64 66 68 65 65 67 55 61 58 57 53 39 40 44 39 49 48 54 47 43 38 34 38 33 32 59 57 43 53 58 54 50
49 49 50 50 49 50 50 50 51 51 51 51 52 52 52 52 52 54 72 68 69 69 64 66 66 68 69 72 68 62 62 60 60 52 45 44 39 38 43 42 59 46 51 47 47 48 60 59 51 59 59 54 51 50
48 48 49 49 49 49 49 50 50 50 50 51 51 52 52 52 52 55 72 70 72 57 64 65 64 67 72 72 75 61 62 67 63 66 52 45 35 48 36 44 49 57 63 50 48 55 57 56 59 58 56 54 52 52
48 48 48 49 49 49 49 49 49 50 50 50 51 51 52 52 52 52 70 69 70 58 40 59 66 65 68 71 72 72 68 65 65 62 43 38 38 58 43 52 52 57 58 53 51 57 58 59 54 55 56 55 53 55
48 48 48 48 48 49 49 49 48 49 49 49 50 50 50 53 53 65 70 69 69 65 48 55 63 64 67 68 68 69 66 63 58 45 38 41 53 53 51 47 48 59 55 48 46 56 51 51 53 57 56 54 54 55
48 48 48 48 48 48 48 48 48 48 48 48 50 50 50 52 53 68 64 69 69 68 54 45 60 60 63 65 65 65 66 65 63 54 43 56 62 54 37 41 56 59 62 62 54 56 51 52 54 55 56 56 55 54
48 48 48 48 48 48 48 48 48 48 49 49 49 50 50 50 62 61 61 61 56 69 51 45 50 56 59 62 62 62 62 61 59 53 47 49 53 54 39 39 56 59 60 58 56 54 47 50 52 56 55 55 54 57
48 48 47 47 47 48 47 48 48 48 49 49 49 49 50 50 51 58 63 55 59 63 56 44 42 46 57 49 46 56 51 52 53 54 47 46 53 48 39 52 57 59 57 55 52 51 54 57 56 55 56 56 53 53
48 48 47 47 47 47 47 48 48 48 49 49 49 49 53 51 50 57 49 54 64 59 48 38 38 37 55 46 45 45 48 40 49 40 42 47 41 38 48 54 54 54 53 52 55 56 55 53 53 53 53 53 51 50
48 48 47 47 48 47 47 48 48 48 48 48 49 47 39 44 49 50 56 52 48 51 51 39 50 41 53 41 38 39 41 38 36 38 41 34 36 50 53 54 54 54 55 55 50 48 49 48 50 51 50 51 50 48
48 48 47 47 47 47 48 47 48 48 48 45 40 37 44 48 47 45 38 40 41 36 40 44 44 41 48 39 37 39 35 36 34 37 36 36 37 48 53 50 52 54 56 55 54 53 52 51 50 49 48 47 45 45
47 48 48 47 47 47 48 47 48 48 46 44 44 46 45 41 37 38 34 34 35 36 37 35 38 46 39 43 35 34 33 34 33 43 34 34 47 51 51 51 52 53 53 52 52 51 51 50 50 47 45 44 44 41
47 47 47 47 47 47 48 47 47 47 47 45 39 35 35 33 31 32 30 33 33 34 34 34 33 35 36 38 33 34 32 33 40 32 35 45 50 51 52 52 51 52 49 46 50 51 50 49 47 42 40 41 36 40
47 47 47 47 47 47 47 47 47 47 46 36 33 32 33 32 33 34 35 35 36 36 35 34 33 34 34 34 34 32 33 36 30 29 32 45 48 51 51 50 50 48 38 42 45 46 44 40 39 37 35 35 34 35
47 47 47 48 48 47 46 46 46 48 44 36 36 31 32 34 34 34 35 36 36 39 37 37 37 40 34 32 34 32 28 29 33 35 41 46 48 48 45 45 46 43 36 39 46 43 36 36 36 38 39 38 39 35
47 47 51 48 47 47 46 46 46 45 42 39 35 32 34 34 33 33 34 33 39 38 38 39 34 33 32 33 30 30 30 30 36 39 44 46 44 45 45 45 45 45 43 44 44 43 41 37 34 39 40 37 34 34
45 50 47 46 45 44 46 45 44 40 36 34 33 36 35 35 34 34 36 36 41 37 33 35 31 30 32 31 30 37 32 37 39 42 46 44 44 45 46 45 38 41 42 43 43 43 43 41 38 36 35 41 42 40
49 51 46 46 50 47 41 43 39 40 33 38 35 33 35 36 35 35 36 38 37 36 37 35 37 30 30 29 33 38 41 43 45 44 45 45 45 46 46 45 45 45 44 43 41 41 40 37 38 41 44 45 43 42
50 50 46 47 48 42 37 37 43 34 36 38 36 38 37 34 36 37 36 36 39 39 38 36 32 33 34 37 37 38 40 42 42 45 46 46 45 43 43 43 43 43 43 42 43 43 45 44 44 45 44 44 41 41
46 45 44 44 46 44 36 37 44 41 37 38 37 36 36 35 34 34 35 36 37 38 34 34 36 39 41 44 45 44 45 45 43 40 41 45 47 45 43 43 43 44 44 44 44 39 43 43 45 45 44 43 38 36
42 42 42 42 44 45 42 40 38 40 38 37 36 39 32 34 32 32 33 38 34 36 36 41 40 43 45 45 46 46 44 44 43 42 41 41 45 45 45 45 45 45 43 43 40 41 39 40 42 43 36 34 35 35
40 42 36 38 36 35 38 40 39 41 39 35 35 39 32 30 30 31 35 32 34 40 43 43 45 45 45 43 44 45 45 44 44 43 38 40 41 42 43 45 44 41 41 39 41 38 39 42 41 39 36 33 34 35
40 38 34 34 32 33 29 39 33 36 31 31 35 31 30 31 33 36 30 36 39 45 46 46 45 44 43 45 44 44 45 43 43 44 44 44 44 44 43 43 42 38 37 40 43 41 39 38 37 34 34 34 34 33
39 33 31 30 32 27 32 29 35 34 33 32 31 28 29 32 32 30 29 34 40 45 42 42 43 43 44 41 43 45 45 47 45 45 45 43 41 43 45 44 43 42 42 42 40 37 36 34 33 34 33 32 32 32
31 28 30 26 31 29 28 27 28 30 28 28 27 27 28 31 28 27 27 36 38 37 38 42 43 43 42 42 43 44 45 45 42 41 44 44 41 41 41 42 43 43 42 36 33 33 32 33 33 32 32 32 31 31
26 28 29 29 28 29 29 26 27 28 29 26 27 30 29 29 26 27 34 35 34 34 31 32 35 38 40 42 39 40 40 41 39 37 40 43 40 36 35 33 34 37 41 36 33 32 32 33 32 31 31 31 31 31
26 27 31 35 34 32 28 29 31 29 26 25 29 26 27 23 26 34 36 33 35 32 35 35 34 35 34 35 36 35 33 32 31 31 32 34 34 34 32 31 31 33 33 33 32 32 31 31 30 30 31 31 31 31
30 32 26 28 30 34 27 29 27 27 29 34 32 25 25 27 30 30 29 30 30 32 33 33 33 31 31 30 30 29 29 29 30 32 34 36 34 28 28 29 30 29 30 30 30 30 30 30 30 30 30 29 30 30
30 32 31 25 27 28 29 29 30 35 39 34 30 30 32 28 25 26 26 27 29 28 27 26 26 27 29 29 29 28 25 24 22 20 21 23 24 26 26 26 26 27 27 27 28 29 29 29 28 28 28 29 28 28
27 33 29 26 25 27 31 35 32 32 37 37 36 34 29 23 21 24 24 24 22 21 22 23 23 23 22 21 22 24 24 23 20 18 16 17 19 22 23 23 22 23 23 24 25 27 28 28 27 28 26 25 23 23
31 30 28 29 28 31 30 29 30 30 30 32 33 31 26 20 20 20 20 21 21 21 20 20 21 21 20 19 18 18 18 22 20 19 18 18 19 19 19 19 20 20 21 22 23 23 22 23 23 23 21 19 18 18
29 28 28 26 28 29 29 28 29 29 31 29 30 27 23 23 18 17 18 20 19 17 16 17 17 17 19 20 20 20 18 19 18 17 16 14 15 16 16 17 18 18 18 18 20 20 19 19 18 18 18 15 13 13
26 27 26 26 27 26 28 27 29 27 27 27 25 24 20 20 13 16 21 20 17 15 15 16 17 18 19 20 19 18 18 18 18 17 16 14 12 12 12 14 12 12 14 16 17 16 15 15 14 13 12 10 9 7

GFSWCAN_sfc_temp_006.txt.gz
Temp
51 51 51 51 51 51 52 52 52 53 53 54 53 52 52 52 52 60 67 68 66 60 65 69 71 69 68 66 53 61 57 57 51 38 40 44 39 46 47 53 42 38 36 34 38 33 32 60 58 44 52 55 55 54
49 49 50 50 50 51 51 51 51 52 52 53 53 52 52 52 52 54 70 70 69 66 63 68 67 69 68 69 67 63 62 59 57 49 46 46 38 38 41 42 60 45 49 45 45 43 57 61 56 58 54 54 51 51
48 48 49 50 50 49 49 50 50 51 51 51 52 52 52 53 53 54 69 69 71 60 63 64 64 68 73 70 73 59 61 67 63 65 49 43 34 46 35 43 48 58 62 48 49 56 58 59 60 56 57 55 55 55
48 48 48 48 49 50 49 49 49 50 51 51 51 51 53 53 53 53 69 69 69 57 39 58 69 66 70 72 73 72 68 66 64 58 41 38 36 56 43 49 49 55 58 53 51 57 59 59 55 56 54 55 54 55
48 47 48 48 48 49 49 49 49 49 49 49 50 50 50 54 53 60 70 69 69 63 46 56 65 67 69 70 69 69 66 62 57 45 37 39 51 51 50 47 46 56 53 47 44 56 54 53 54 55 53 53 55 55
48 47 47 47 48 48 48 48 48 48 48 48 49 50 50 51 51 66 62 68 69 69 51 43 62 62 65 67 67 66 65 64 61 51 43 53 60 52 38 39 54 60 63 61 56 58 55 54 56 56 55 56 56 54
47 47 47 47 47 47 48 48 48 48 48 48 49 50 49 50 62 59 57 57 54 65 50 43 49 58 61 64 63 63 64 62 60 55 48 48 52 54 38 38 54 60 61 61 59 56 52 53 51 56 56 56 54 56
47 47 47 47 47 47 47 48 48 48 48 49 49 49 50 50 52 58 60 56 56 63 55 44 42 47 58 50 47 55 49 51 53 53 49 46 53 47 40 51 56 59 60 57 55 55 55 57 56 56 56 56 53 52
48 48 47 47 47 47 47 48 48 48 49 49 49 49 56 55 55 59 50 52 64 59 49 37 37 37 56 44 44 45 49 39 51 40 43 46 41 38 47 53 56 59 55 54 55 56 56 54 54 54 53 52 50 49
48 47 47 47 47 47 47 47 48 48 48 48 50 47 39 45 49 51 57 54 51 54 51 39 51 41 51 41 39 39 39 38 36 39 41 35 38 51 56 58 58 55 56 56 50 47 51 49 50 50 50 50 49 46
48 47 47 47 47 47 48 47 48 48 49 46 40 37 44 48 51 47 40 41 42 39 43 43 46 41 49 39 36 40 35 36 34 38 37 35 35 46 53 55 55 55 56 56 56 54 53 51 49 48 46 44 41 41
48 48 47 47 47 48 47 48 48 49 45 44 44 46 44 41 37 37 35 35 36 39 39 36 40 45 41 49 40 35 34 33 32 40 33 33 45 53 52 51 53 55 54 53 54 52 51 50 49 45 42 41 40 37
47 48 48 47 47 48 47 47 47 47 47 44 39 35 36 33 31 32 31 33 33 34 35 35 34 36 37 39 34 33 32 32 36 33 33 40 47 51 51 51 52 51 46 47 51 51 49 47 44 39 37 38 35 37
47 47 48 47 47 47 47 47 47 50 45 36 33 32 32 32 33 33 33 33 34 34 34 35 33 34 33 33 33 32 33 34 31 30 32 40 47 50 51 50 50 45 36 40 41 43 40 38 37 35 33 33 32 34
47 47 48 47 46 46 46 47 47 51 46 36 35 31 32 33 34 33 33 34 34 36 35 34 34 35 33 32 33 32 29 29 31 32 35 40 42 44 42 45 42 39 34 36 42 39 34 34 35 36 36 36 37 33
47 46 49 47 46 47 46 47 48 47 44 40 36 33 34 33 33 33 33 33 37 35 37 37 33 32 32 33 30 30 30 29 33 37 40 41 40 41 41 42 42 42 40 40 40 40 38 35 33 37 38 35 34 33
45 47 47 46 45 45 47 46 44 40 37 34 33 37 35 35 34 34 35 36 40 35 33 34 32 29 33 31 30 33 31 34 37 40 40 40 40 41 43 42 36 38 39 40 40 40 40 38 35 35 35 38 38 37
48 47 46 46 49 47 43 45 41 40 35 39 35 35 36 36 34 35 36 39 38 37 37 33 36 31 30 29 32 36 38 40 40 39 40 42 43 42 44 42 44 42 41 40 38 39 38 35 36 37 39 40 39 38
45 48 46 46 49 45 38 37 40 35 36 38 36 38 37 35 36 37 36 37 39 39 37 35 31 32 34 37 36 37 38 39 39 41 42 42 42 41 40 40 39 40 40 40 40 40 41 40 40 42 42 41 39 39
45 45 45 45 47 41 35 38 44 38 35 38 38 37 35 34 34 33 34 35 36 36 33 33 35 38 39 41 42 41 42 42 42 39 40 42 43 42 40 40 41 41 41 40 40 37 41 41 43 42 42 41 37 36
44 42 42 42 40 44 42 40 38 40 40 37 37 39 33 34 33 33 34 36 33 33 34 40 40 42 43 43 43 43 42 42 41 40 39 39 42 41 41 42 42 42 41 40 38 39 37 38 40 41 36 34 34 34
40 42 36 37 34 35 38 41 39 41 37 35 35 37 31 31 31 32 35 33 34 39 42 43 44 45 43 41 43 43 43 42 42 41 37 38 38 40 40 42 41 39 39 38 39 37 37 40 39 38 35 34 34 34
40 37 34 33 32 32 30 39 34 37 31 31 35 31 30 31 33 36 31 36 38 44 46 46 46 44 43 44 43 43 43 42 42 42 41 42 43 42 41 41 41 37 37 39 41 39 38 36 36 34 33 33 33 33
38 32 32 31 32 29 33 31 37 35 35 32 31 29 31 32 34 31 30 36 41 44 42 42 43 42 42 41 42 43 42 44 42 42 43 41 40 40 42 41 41 40 40 40 39 36 35 33 33 34 33 32 32 32
31 29 30 27 31 30 29 29 30 31 29 30 29 29 29 32 29 29 29 36 34 32 34 38 41 42 41 40 42 41 40 38 36 35 38 39 37 37 36 38 38 39 38 35 33 33 33 33 33 33 32 32 31 31
26 29 28 29 29 29 29 27 29 29 30 28 29 30 31 30 27 27 33 31 30 31 31 32 33 35 37 37 35 33 31 33 31 29 33 32 31 29 28 29 29 32 29 30 30 30 31 32 32 32 31 31 31 30
26 27 31 35 34 33 29 31 33 31 28 27 29 27 27 24 26 31 32 29 29 30 33 32 31 31 31 31 31 31 30 29 28 27 31 33 32 28 26 24 23 26 29 29 29 29 28 29 30 30 30 31 31 30
31 32 26 30 31 35 29 29 28 28 30 36 32 26 26 28 27 27 26 29 29 31 32 31 30 29 29 28 29 28 27 27 28 29 31 31 31 28 26 26 26 26 26 26 26 27 27 28 28 28 28 27 28 29
29 33 32 26 29 30 31 31 31 36 39 36 31 30 30 25 24 25 25 26 28 27 25 25 25 27 27 28 28 26 25 22 19 16 16 18 19 20 23 23 23 22 23 23 24 26 26 26 27 27 27 27 26 25
28 32 30 28 26 29 31 33 32 32 37 35 36 33 27 22 21 25 25 24 22 21 23 23 23 22 21 20 20 22 23 21 19 16 13 13 14 18 19 19 18 19 20 20 21 22 25 25 26 26 24 21 20 20
31 31 30 30 29 30 30 30 31 31 31 33 32 31 22 19 20 21 21 22 22 21 21 20 20 21 19 18 17 16 16 20 19 18 17 17 16 16 16 15 16 17 17 18 18 20 20 20 21 21 18 16 15 15
31 29 29 28 28 30 31 30 30 29 31 29 30 26 24 23 18 17 19 20 20 17 16 17 16 16 18 19 20 20 18 18 18 17 16 15 14 14 14 13 14 14 13 13 16 18 17 17 16 14 14 12 10 10
29 29 28 28 28 28 30 29 30 29 29 29 26 24 20 20 14 17 21 21 18 16 15 16 17 18 19 18 17 19 17 18 17 17 17 15 13 12 11 12 13 10 9 9 15 15 13 12 10 10 8 7 5 4

GFSWCAN_sfc_temp_009.txt.gz
Temp
52 51 51 51 51 51 52 52 52 53 54 53 52 52 52 52 52 56 57 59 57 48 53 59 59 56 56 51 41 49 45 44 36 34 31 32 30 34 36 42 35 31 27 29 31 24 23 52 51 39 43 47 47 46
51 50 50 50 51 51 51 51 51 52 52 52 51 51 52 52 52 53 56 61 61 55 53 58 58 59 59 58 53 51 48 49 45 38 34 36 32 35 32 30 47 35 38 33 35 33 46 52 50 51 49 47 45 47
49 50 49 50 50 51 50 50 51 51 52 52 51 51 52 52 52 53 57 57 58 49 51 54 54 60 64 62 63 49 48 56 52 50 41 40 32 37 30 33 36 46 51 36 40 47 50 50 51 52 50 48 49 50
48 48 48 49 50 52 50 49 49 50 51 51 51 50 50 52 52 53 56 57 54 47 36 48 62 57 63 64 64 62 58 56 53 45 38 36 33 45 33 39 36 44 48 45 40 48 49 48 49 49 50 51 50 53
47 47 47 48 49 49 50 49 48 49 49 48 49 49 49 51 51 54 58 58 58 52 39 41 57 60 63 62 61 60 56 53 46 39 35 34 35 39 33 35 33 49 45 37 35 48 46 44 48 52 50 51 52 50
47 47 47 47 48 48 49 49 49 48 47 48 49 50 50 49 50 55 51 56 55 56 44 37 52 53 57 59 57 57 56 53 49 40 35 42 51 42 34 32 46 53 55 55 47 50 48 48 51 52 50 50 50 49
47 47 47 47 48 48 48 48 48 48 47 48 49 50 50 50 53 50 49 52 50 54 41 37 38 49 53 54 50 51 53 50 48 41 36 36 40 45 33 34 47 53 55 53 51 50 45 48 47 51 51 50 51 51
47 47 47 47 47 47 48 48 48 49 48 48 49 50 51 50 50 51 53 51 50 51 45 38 38 38 51 38 39 46 40 44 45 43 41 38 40 35 32 44 49 53 54 50 50 51 51 51 51 53 52 49 46 44
47 47 47 47 47 47 47 47 48 49 49 49 50 50 53 50 46 49 49 50 55 50 38 34 35 34 46 40 39 39 43 36 43 36 38 41 36 36 41 45 48 51 50 47 50 52 52 50 50 48 46 45 42 40
47 46 46 47 47 47 48 48 48 48 48 49 51 47 39 43 48 49 51 44 41 41 41 36 40 37 43 36 35 36 35 34 34 36 40 34 37 43 49 50 50 50 51 52 46 44 46 46 44 43 43 42 41 39
47 47 47 47 47 47 47 48 48 48 49 46 40 37 44 48 48 42 38 36 38 36 39 39 39 37 42 35 34 35 33 34 32 32 34 32 33 38 46 47 49 51 52 51 50 48 48 46 43 41 39 37 36 35
47 47 47 47 47 47 47 48 48 46 44 44 44 45 44 40 37 36 35 34 35 35 36 35 37 39 37 43 35 34 34 33 30 36 32 30 34 44 45 45 48 49 49 48 48 46 45 44 41 38 37 36 35 34
47 47 47 48 47 47 47 47 47 46 46 43 39 35 38 32 32 32 30 32 32 33 34 34 33 34 36 37 33 33 32 31 34 32 30 30 43 45 46 43 43 44 41 42 44 43 42 41 40 36 33 34 28 32
47 47 47 47 47 47 47 47 48 48 43 35 34 31 32 31 31 31 31 32 32 33 33 33 32 33 32 33 32 31 31 32 28 26 23 34 38 41 44 42 41 38 35 36 38 39 36 34 32 30 29 29 24 29
46 47 47 46 46 47 47 47 48 46 40 34 34 30 30 32 32 32 32 32 33 35 34 33 33 34 32 30 31 30 27 27 28 28 31 33 36 39 37 38 37 35 32 34 37 35 31 29 30 32 32 31 32 28
47 47 46 46 46 47 47 47 45 42 34 34 34 31 32 32 32 32 32 32 35 33 34 34 32 32 30 30 28 28 28 26 30 32 33 35 36 37 37 37 36 37 36 36 36 36 34 29 27 33 33 30 28 30
46 43 46 46 46 46 47 43 39 35 34 34 31 34 33 33 33 33 33 34 37 34 32 32 30 27 30 28 28 30 28 31 33 32 33 36 36 36 37 37 34 35 36 35 35 35 35 34 29 28 30 34 33 33
43 45 46 46 46 46 41 41 37 34 30 31 32 32 33 33 33 33 34 34 34 32 31 30 32 28 27 26 27 30 31 32 32 32 33 36 37 37 39 36 38 36 35 35 33 34 34 28 31 32 33 34 33 32
44 45 46 46 45 40 35 36 38 32 31 33 32 33 33 32 33 33 33 34 34 34 33 30 28 26 27 29 30 30 30 30 31 34 35 37 37 36 37 36 36 35 35 34 34 32 32 34 33 32 33 32 31 31
44 44 44 44 44 35 33 35 39 32 32 32 33 32 31 31 32 32 33 33 33 33 31 26 27 29 30 31 32 32 32 32 32 30 31 34 35 36 35 33 31 34 33 34 33 29 31 31 31 32 31 28 25 28
44 41 42 42 37 39 34 33 33 34 31 30 32 32 29 31 31 32 32 33 33 32 30 28 28 30 34 33 32 32 34 35 32 30 29 29 31 31 31 32 33 30 29 28 27 30 27 30 33 32 30 29 33 33
39 42 35 36 33 33 32 34 32 31 31 31 31 31 27 28 29 30 31 30 30 28 32 30 32 32 32 34 35 36 36 36 36 32 31 29 29 29 29 29 28 27 27 27 29 30 30 31 29 27 32 33 33 32
40 37 33 33 31 31 28 33 32 32 26 28 31 28 27 27 29 31 29 31 29 33 34 35 36 36 35 36 36 36 36 35 29 29 31 30 29 29 29 30 27 25 28 30 30 30 30 29 32 29 28 32 32 32
38 33 30 30 31 27 31 28 31 30 30 28 27 26 27 27 26 26 25 23 28 31 31 32 32 30 31 34 30 30 30 31 30 30 31 30 28 29 30 30 30 29 29 30 29 30 31 32 27 28 31 32 31 30
29 24 25 26 30 26 19 25 27 25 24 25 25 25 21 22 19 16 18 24 28 28 30 29 31 31 29 28 28 28 29 27 25 24 27 26 25 24 25 26 26 25 27 25 26 26 26 28 29 29 30 28 28 24
26 25 21 27 27 24 23 24 25 24 23 25 24 25 22 19 14 14 25 27 26 27 27 26 24 25 27 27 25 25 25 26 25 21 23 24 24 24 21 20 19 19 22 23 23 22 21 22 23 24 27 29 27 26
24 25 28 31 30 29 27 27 27 25 23 22 24 22 15 10 12 23 26 26 26 27 29 28 28 26 26 26 27 26 24 22 20 23 24 25 23 22 19 16 16 18 21 21 19 19 19 21 21 21 23 24 26 27
28 28 24 27 28 28 25 24 23 22 23 27 24 16 14 14 18 23 24 25 25 27 27 26 26 23 25 23 25 19 14 15 16 17 18 24 21 16 16 16 17 19 16 18 17 18 19 19 20 21 23 23 24 21
27 29 27 21 23 24 22 21 22 26 29 25 19 17 20 21 20 22 22 23 25 24 21 19 16 19 19 17 19 18 10 8 8 4 1 1 8 9 14 14 14 12 13 15 16 18 18 19 20 20 22 20 18 15
27 29 22 19 17 20 26 28 29 30 27 27 26 23 21 18 18 19 19 18 15 15 17 18 13 8 6 5 6 8 15 10 4 3 1 1 8 11 11 11 11 10 11 12 11 12 16 18 19 21 16 15 15 11
28 29 28 27 27 27 28 28 29 29 30 30 28 20 14 13 13 15 14 17 14 11 10 7 7 7 3 4 7 3 2 3 5 10 6 3 5 2 4 8 8 9 10 8 8 9 11 14 16 14 10 10 9 7
28 25 26 22 25 27 30 27 28 28 29 28 24 22 18 14 7 9 8 11 7 4 5 3 2 5 4 6 9 6 14 9 7 3 4 6 4 3 3 5 7 8 3 4 6 6 12 11 10 9 8 5 4 3
25 21 21 17 16 16 23 16 16 15 15 14 18 14 10 9 3 7 12 11 6 2 2 2 2 2 9 4 1 8 3 0 3 12 12 11 7 4 1 4 7 6 1 4 4 9 9 8 5 4 2 1 -1 -2

GFSWCAN_sfc_temp_012.txt.gz
Temp
52 51 51 51 50 51 51 52 51 52 51 51 51 51 51 51 52 57 54 56 56 46 50 54 55 53 51 47 41 47 45 42 36 32 28 32 31 33 33 39 34 31 27 25 24 18 24 47 48 39 42 43 45 44
51 51 50 50 50 51 51 51 51 51 51 50 50 51 51 51 52 54 54 57 57 52 52 56 56 57 56 56 50 47 47 45 43 36 35 36 32 34 31 30 43 36 37 32 35 34 45 48 48 48 47 45 44 43
50 50 50 50 50 50 51 50 50 50 51 50 50 49 50 51 52 55 54 54 54 44 49 52 52 59 62 59 59 48 44 52 48 45 38 34 29 33 30 32 36 44 47 35 38 45 46 48 47 48 47 46 46 46
49 49 49 49 49 50 50 49 49 50 50 49 48 48 48 49 51 54 54 54 50 43 35 46 58 56 62 61 61 59 56 51 47 42 36 36 30 41 31 37 34 41 45 43 37 44 44 46 46 47 47 47 48 50
48 48 48 48 49 49 49 48 48 48 48 48 49 49 50 49 50 54 54 52 54 50 39 39 53 58 60 59 58 56 54 50 43 37 33 34 32 36 32 32 32 45 44 36 37 46 45 44 46 48 47 47 51 49
47 47 48 48 48 49 49 49 48 47 48 48 49 50 50 50 50 54 49 53 52 53 43 37 47 49 54 57 56 53 52 49 45 39 35 38 46 39 34 35 42 48 51 51 45 49 48 47 47 50 48 48 48 46
47 47 47 48 48 48 49 49 48 47 47 49 50 49 50 49 51 50 48 51 50 51 40 37 36 46 50 50 46 47 48 47 46 39 36 36 38 42 34 33 44 49 52 52 50 48 43 46 44 49 49 49 47 45
47 47 47 47 47 48 48 48 48 48 47 48 50 50 51 49 51 50 50 49 50 48 42 35 34 37 48 37 38 43 39 43 42 41 39 37 38 34 34 41 47 51 52 49 48 48 47 48 49 49 49 47 43 41
46 46 46 47 47 46 47 48 49 49 48 49 49 51 50 48 45 49 48 48 52 48 38 33 35 34 43 39 37 36 40 34 40 36 36 39 35 36 42 44 46 47 47 46 47 48 48 48 48 47 45 43 40 38
46 46 46 46 47 47 47 48 48 48 48 49 49 44 40 43 48 48 47 41 41 42 39 34 38 36 42 35 34 34 34 34 34 36 39 34 35 41 43 47 48 48 49 48 42 41 42 42 41 41 41 41 39 38
47 47 46 47 47 47 47 47 48 49 50 47 41 38 44 48 46 41 37 35 37 35 38 37 38 37 38 35 34 34 33 33 32 32 35 31 33 37 43 44 46 47 47 47 47 45 43 41 39 39 37 36 36 36
47 47 47 47 47 47 47 48 48 45 44 45 44 45 44 41 37 36 34 34 34 34 35 35 36 39 36 39 35 34 33 33 30 36 32 30 35 40 41 42 43 44 44 42 42 40 40 41 41 37 36 36 35 33
47 47 47 47 47 47 47 47 47 46 46 44 40 36 39 33 33 34 33 32 32 33 34 34 34 34 36 37 33 33 32 31 33 31 30 32 40 41 41 41 40 41 39 38 40 41 41 40 39 37 34 35 28 31
46 46 47 47 47 47 47 47 48 47 43 36 34 31 32 30 30 30 31 32 32 32 33 33 32 33 32 33 32 31 31 31 29 26 24 33 36 38 39 39 39 38 35 36 36 37 36 33 32 29 27 26 25 27
46 47 47 46 47 47 47 48 47 43 36 34 32 29 29 31 32 32 32 32 33 34 33 33 32 34 32 30 31 29 27 26 28 27 30 32 36 36 36 37 36 34 32 34 35 34 30 29 29 31 30 29 30 25
47 47 44 46 46 47 47 45 43 40 33 35 33 30 32 32 32 32 32 32 34 33 33 33 31 31 29 29 27 27 27 25 29 31 32 34 35 35 35 36 36 36 36 36 35 35 33 27 25 32 32 28 26 24
48 41 46 46 46 46 45 40 36 34 33 32 31 33 32 32 32 32 33 33 36 33 31 31 26 26 29 27 27 30 27 30 32 33 32 34 35 36 36 36 33 35 35 34 34 34 34 33 28 27 29 34 32 32
41 44 46 46 46 44 39 40 34 31 30 31 31 32 32 32 32 33 33 33 33 29 30 29 30 27 26 25 26 30 31 33 32 32 33 35 36 36 38 36 37 35 34 34 32 33 33 27 30 31 33 33 31 30
43 44 45 45 44 36 34 35 35 26 28 31 31 32 32 32 32 33 33 33 33 32 30 25 21 21 24 27 26 29 27 29 30 33 34 36 36 35 36 35 35 34 34 34 34 31 31 33 31 31 31 29 29 28
44 43 44 45 43 30 32 31 36 30 30 30 32 31 30 30 31 32 32 33 32 32 30 22 23 25 26 28 28 27 28 28 29 27 29 32 33 35 34 33 30 32 31 33 32 27 30 30 31 31 30 27 27 31
42 41 42 39 36 35 33 31 32 32 32 31 31 31 28 30 30 31 32 31 32 30 25 26 25 28 31 30 28 28 31 32 30 27 27 27 29 28 29 30 31 28 27 26 23 27 24 26 31 31 25 31 30 28
39 42 35 36 33 32 32 33 32 32 32 30 30 30 27 27 29 29 30 28 26 26 29 27 30 29 30 33 33 33 33 33 33 29 28 27 28 28 28 28 28 24 25 24 26 26 27 29 29 30 31 32 30 32
39 36 33 33 28 28 22 33 30 32 27 28 29 27 26 26 29 30 28 32 31 30 30 31 34 34 33 31 31 30 30 30 28 27 28 26 26 25 24 25 23 21 23 27 28 26 25 24 29 29 30 30 31 31
38 32 29 27 29 21 27 27 29 28 28 26 26 24 26 27 27 26 17 23 30 28 28 28 29 31 29 28 26 26 26 27 25 25 25 24 23 23 24 23 23 22 22 23 22 21 22 22 22 23 25 25 26 27
29 23 24 13 20 17 15 20 25 25 20 20 20 21 18 21 15 11 13 23 27 26 23 25 27 28 28 26 26 25 26 25 22 21 22 23 17 18 20 22 21 19 19 17 17 16 17 17 18 19 21 21 22 24
22 21 23 16 19 19 21 22 19 20 20 24 23 22 21 19 18 11 22 25 25 25 24 25 19 21 24 25 23 23 21 22 21 18 21 22 19 15 13 12 12 13 16 14 15 13 13 14 15 16 16 18 21 23
20 16 25 29 28 27 26 27 27 25 23 22 19 22 20 14 9 21 24 24 25 26 26 26 26 25 24 23 23 20 18 18 16 17 19 19 17 16 13 10 10 12 13 11 12 12 11 12 13 13 15 18 19 20
23 24 21 25 27 28 24 24 23 23 24 26 23 17 17 11 15 20 22 24 25 25 25 24 23 21 21 19 17 13 13 12 12 13 18 16 13 9 7 5 6 13 7 8 9 11 10 11 12 13 15 16 16 14
26 29 27 23 23 23 22 22 21 26 28 24 18 15 18 18 17 20 20 21 21 22 18 16 13 15 15 14 11 8 5 4 4 -2 -6 -7 -5 1 5 0 -1 2 6 6 9 11 10 12 13 16 17 13 12 10
24 25 18 15 19 21 25 26 27 27 26 25 22 20 18 15 16 17 16 16 16 13 15 12 7 6 -3 -1 -2 2 4 -4 -2 -2 -7 -6 -0 6 -1 1 5 5 4 6 4 5 7 7 11 15 12 12 9 7
26 27 26 24 23 25 25 27 28 29 30 28 20 16 10 11 12 13 13 10 8 6 6 1 1 -6 -2 1 -1 -4 -2 3 2 1 -2 -1 -1 -4 -5 -2 -1 -1 3 4 1 2 4 5 8 7 5 5 4 3
25 23 20 18 17 20 28 27 26 27 28 26 20 14 10 4 -1 4 6 5 3 -1 -5 -8 -5 -0 -0 1 1 -2 -1 -4 -4 -3 3 1 -2 -5 -4 -2 -2 -2 2 -5 -4 1 4 2 2 1 0 0 -0 -1
10 6 10 3 11 13 14 9 6 7 13 17 15 11 5 4 1 5 6 -1 0 -3 -5 -5 -7 -8 -3 -4 -4 -6 -4 -7 -7 3 3 6 -0 -2 -4 -6 -7 -10 -11 -10 -8 -3 -4 -4 -3 -3 -3 -3 -3 -4

GFSWCAN_sfc_temp_015.txt.gz
Temp
51 51 51 50 50 51 51 51 51 51 51 50 50 51 51 51 52 56 53 53 54 44 48 52 53 49 48 47 40 46 44 41 34 32 28 28 27 32 32 37 34 31 28 24 25 19 26 46 45 39 42 41 45 43
51 51 50 50 50 51 51 51 51 50 50 51 50 50 51 51 51 55 54 54 54 51 50 53 54 54 53 55 48 45 47 44 42 34 30 33 31 33 30 29 40 33 36 32 34 34 44 46 45 47 46 45 43 43
50 50 50 50 50 50 50 50 50 50 49 47 47 48 49 50 52 55 53 52 51 44 48 51 50 57 60 57 57 47 42 49 45 43 38 32 29 31 29 31 33 41 44 34 37 44 44 45 47 47 46 45 44 45
50 50 50 50 50 50 49 49 49 48 47 48 48 48 49 50 52 54 52 51 49 42 36 45 55 54 60 59 58 56 52 48 45 41 34 33 29 39 31 36 34 40 42 40 36 42 43 46 47 47 46 45 46 47
49 49 49 49 49 49 49 48 47 47 48 49 49 50 50 51 53 54 51 50 52 50 38 38 51 55 56 57 55 54 52 48 42 36 33 33 31 34 33 32 32 43 43 34 37 45 44 45 47 46 44 45 47 47
48 48 49 49 49 49 48 46 47 48 48 49 49 49 49 51 53 53 48 52 51 50 42 36 45 48 51 52 52 52 50 46 43 39 34 36 42 37 34 35 42 47 49 49 47 47 46 46 45 47 46 47 47 44
47 48 48 48 49 49 49 47 47 48 49 49 49 50 49 51 51 49 47 48 48 49 40 37 35 45 47 48 44 46 46 45 44 39 35 36 37 40 34 33 45 47 49 49 49 46 42 43 43 47 47 45 46 45
47 47 47 47 48 48 48 48 47 47 48 49 49 49 49 50 50 49 49 48 48 46 40 34 33 36 46 37 38 43 39 42 42 40 38 37 36 35 33 41 45 49 50 48 47 48 47 46 46 45 45 45 42 40
46 46 46 46 47 48 48 48 48 47 48 49 51 50 49 47 46 49 48 48 49 47 36 33 33 33 42 38 37 37 40 34 40 36 36 37 34 34 40 43 44 46 45 46 45 45 45 45 45 44 43 41 38 36
46 46 46 46 46 47 47 48 48 47 48 50 48 43 40 44 49 49 47 40 40 42 38 33 38 35 42 34 34 34 34 33 33 35 39 34 35 39 41 42 43 45 47 45 41 39 40 40 40 39 38 38 39 38
47 47 47 47 47 47 47 48 48 49 50 44 43 38 45 48 44 41 37 35 37 36 38 37 36 37 40 35 35 33 33 33 33 31 35 33 31 36 40 39 40 41 43 43 43 42 41 39 36 34 33 36 36 35
47 47 47 47 47 47 47 48 48 46 44 44 43 44 41 38 36 36 34 34 34 34 34 35 35 39 36 38 36 34 33 33 31 34 33 31 32 36 37 37 38 39 38 38 39 38 39 38 38 36 36 35 35 34
46 47 47 47 47 47 47 47 47 47 46 45 40 36 40 34 34 34 33 32 32 32 34 34 34 34 36 37 33 33 32 31 33 31 30 31 36 39 38 38 37 39 38 37 38 39 38 37 36 35 33 34 30 32
46 46 46 47 47 47 47 47 48 46 43 36 34 32 32 30 30 31 31 32 32 33 33 33 33 33 33 33 32 31 32 31 29 25 24 31 34 35 36 37 37 36 33 34 34 35 34 32 31 30 29 28 26 28
46 46 46 46 46 47 47 46 46 44 38 34 33 27 26 31 32 32 32 33 33 34 33 33 33 33 32 31 31 29 25 25 26 23 30 32 33 33 33 33 33 33 31 33 35 34 30 29 29 32 31 30 30 25
47 46 43 46 46 47 46 44 40 38 32 35 33 31 32 32 32 32 32 32 34 33 33 33 31 30 28 29 27 27 23 19 24 29 33 34 34 34 33 34 34 36 35 34 34 34 33 28 27 33 31 28 24 23
45 41 45 46 46 45 45 39 34 33 28 34 31 33 33 32 32 32 33 33 36 33 31 31 24 24 29 26 26 30 26 29 32 32 33 34 33 33 34 35 33 34 35 34 34 34 34 33 27 27 28 34 32 31
41 42 45 46 44 42 38 36 31 31 32 31 30 31 31 32 32 32 33 33 29 31 30 29 29 25 23 23 26 30 32 33 33 33 33 35 36 35 36 35 35 34 34 34 31 33 32 27 30 31 32 33 30 30
42 41 44 45 43 34 31 34 33 26 30 31 31 31 31 31 31 32 33 33 29 28 27 23 19 20 22 27 26 29 27 27 30 31 32 33 34 34 34 34 34 33 33 33 32 30 30 31 30 29 30 29 28 27
44 43 43 43 43 31 31 29 35 29 29 31 31 30 30 30 31 32 33 33 32 30 24 20 22 24 25 27 27 26 26 27 27 25 26 29 30 31 30 29 28 29 29 29 28 25 28 28 30 30 29 27 27 29
40 39 40 38 35 34 33 31 32 32 32 31 30 30 28 30 30 30 31 32 26 28 26 25 23 26 29 28 27 27 30 31 29 26 25 26 27 28 28 28 28 27 25 26 27 27 27 25 27 28 28 29 31 32
37 41 34 37 33 33 31 32 31 31 31 30 30 30 27 26 27 29 30 28 25 25 28 25 29 28 31 32 30 30 31 30 29 28 27 26 25 25 25 25 23 21 23 25 25 23 23 24 24 23 23 24 27 28
40 37 34 34 29 28 21 33 29 31 26 27 29 26 26 26 28 31 26 30 30 29 28 29 32 32 30 30 29 27 28 27 25 24 25 24 25 21 21 23 22 19 18 20 22 20 18 16 18 16 18 20 21 22
38 30 28 27 28 20 24 18 27 25 24 25 25 23 25 26 27 25 21 24 29 30 29 28 29 29 29 28 25 24 24 25 24 22 22 21 21 22 22 21 18 16 16 16 16 12 13 12 11 14 14 15 15 16
25 19 27 16 26 25 12 8 18 18 14 14 22 20 20 23 17 21 14 24 26 25 25 27 28 28 25 24 25 24 24 23 21 20 21 20 16 15 16 17 16 15 13 8 7 9 9 9 10 11 11 11 11 13
22 20 23 20 14 23 13 9 10 13 15 20 23 22 20 21 19 18 22 24 24 24 24 24 24 24 24 25 22 20 19 20 20 18 18 17 14 7 4 5 7 7 12 6 5 5 6 7 7 7 9 9 11 12
15 14 21 28 26 26 26 26 25 21 21 22 20 17 21 19 18 20 23 23 24 24 25 26 26 24 23 19 18 17 15 14 13 16 16 15 14 13 7 -0 3 7 10 6 1 2 4 4 4 5 7 9 12 12
20 22 20 24 26 27 24 23 23 23 24 26 24 20 19 17 16 19 21 23 22 23 22 20 20 19 17 16 13 10 11 10 14 13 13 10 8 2 2 -0 1 9 2 -1 -4 1 2 3 4 5 7 9 7 9
20 24 24 21 19 22 23 22 23 26 28 25 18 18 15 16 15 17 18 18 19 18 15 13 13 13 12 11 9 6 3 1 0 -5 -9 -11 -8 -2 2 -6 -7 -5 -5 -5 2 7 7 7 8 9 11 8 4 2
20 20 15 9 17 20 23 25 24 26 27 22 21 18 16 13 14 15 15 15 13 10 8 6 2 3 -7 -6 -6 -1 0 -5 -6 -5 -9 -10 -2 0 -8 -7 -6 -7 -6 -8 -3 -1 1 -2 -2 -3 -1 -0 2 1
26 26 24 22 20 23 24 24 27 27 27 22 19 14 10 9 9 11 11 7 7 4 2 -3 -2 -10 -5 -7 -9 -9 -6 -7 -9 -4 -4 -6 -9 -11 -9 -7 -8 -9 -10 -8 -9 -11 -7 -7 -11 -12 -11 -10 -8 -4
24 22 17 13 15 18 15 20 25 25 23 23 16 10 5 -2 -4 3 5 -0 -2 -5 -9 -13 -9 -5 -6 -5 -7 -9 -4 -8 -9 -10 -8 -6 -9 -11 -10 -9 -13 -14 -15 -15 -14 -13 -13 -14 -15 -15 -16 -14 -12 -8
7 5 9 2 8 9 11 4 2 7 9 14 5 3 0 2 -1 3 5 -4 -3 -5 -7 -8 -9 -11 -9 -8 -8 -10 -9 -11 -11 -2 -2 -1 -5 -5 -12 -15 -17 -19 -18 -18 -17 -17 -15 -16 -18 -17 -17 -16 -14 -11

GFSWCAN_sfc_temp_018.txt.gz
Temp
51 51 50 50 50 50 51 51 50 51 50 50 50 50 51 53 54 59 52 53 52 43 47 51 52 48 46 45 40 45 43 41 33 32 29 28 24 31 32 36 32 31 28 22 23 16 26 44 45 39 42 41 43 42
50 50 50 50 50 50 50 50 50 50 49 48 47 48 50 52 54 57 56 54 52 49 49 52 53 52 52 53 46 43 47 43 42 33 27 27 30 29 30 29 37 32 36 31 33 33 43 44 43 45 45 45 43 43
50 50 50 50 50 50 50 50 49 48 47 48 48 49 50 51 53 55 53 50 49 44 47 49 49 55 57 55 55 46 41 48 44 42 33 29 28 30 28 29 32 38 41 33 37 43 42 43 46 46 46 45 45 45
50 50 49 49 49 49 49 48 47 47 48 48 49 49 51 52 53 54 51 49 48 42 36 45 53 52 57 56 55 54 49 46 43 40 32 32 29 37 29 34 33 39 41 38 35 41 41 45 45 47 47 45 45 46
49 49 49 49 49 48 47 47 47 48 48 49 49 50 52 53 53 54 50 49 49 50 38 38 49 52 53 54 52 52 51 46 41 35 33 33 30 34 33 32 31 41 41 34 35 45 45 45 48 46 45 45 46 45
48 48 48 48 47 47 47 47 47 48 48 48 49 49 50 52 52 52 48 50 50 48 42 37 44 46 49 50 50 49 48 45 42 39 33 36 40 36 33 32 41 45 46 46 46 45 45 46 45 45 45 43 44 42
48 48 48 48 48 47 47 47 47 48 49 49 49 49 51 52 51 48 46 47 48 47 40 36 35 43 45 46 43 44 45 43 43 39 34 35 36 38 31 29 46 47 47 48 47 44 43 43 44 44 45 43 43 43
47 48 48 48 48 48 47 46 47 48 49 49 49 49 50 50 49 48 48 48 48 44 40 33 32 36 44 37 38 42 38 41 41 39 37 34 37 35 34 39 43 45 46 46 46 46 45 44 43 41 43 43 40 39
46 46 47 47 48 48 47 46 47 48 49 50 49 50 50 47 47 47 48 48 48 46 35 32 33 32 42 38 37 37 39 34 40 36 35 39 34 34 36 36 39 41 41 43 44 44 43 41 40 40 41 40 37 35
46 46 46 46 47 47 47 47 46 48 50 49 48 44 39 44 49 48 46 41 40 38 39 34 38 35 43 34 34 34 34 34 34 34 39 34 34 38 36 36 37 38 40 42 38 36 37 35 36 37 37 38 37 36
46 46 46 47 47 47 47 47 48 50 49 45 39 38 45 47 44 38 34 35 38 35 38 36 36 36 40 36 35 33 34 33 33 34 34 32 32 33 35 35 36 37 38 38 38 38 39 38 36 36 35 34 34 34
47 47 47 47 47 47 48 48 49 45 42 44 43 44 41 38 36 35 33 34 34 34 34 35 35 39 35 36 36 34 32 32 30 35 32 29 31 35 35 36 37 39 39 38 39 38 38 38 38 36 35 34 34 32
47 47 47 47 47 47 47 47 47 47 46 43 39 35 39 34 34 28 31 32 32 32 33 33 34 33 35 36 33 33 32 31 33 31 30 31 35 36 36 36 35 37 36 37 38 39 38 36 35 33 31 32 29 31
46 46 47 47 47 47 47 48 47 47 44 37 34 33 32 31 30 30 31 32 32 32 33 33 32 33 32 33 32 32 32 31 29 26 25 31 33 34 34 35 36 34 32 33 34 34 32 31 31 30 29 28 27 29
46 46 47 46 47 46 47 46 46 44 39 34 34 29 28 30 32 32 32 32 32 34 33 33 33 34 32 31 31 30 23 19 22 20 29 32 33 33 33 34 33 32 29 32 34 33 29 28 29 31 31 30 31 28
46 45 43 45 46 46 46 43 41 40 35 34 33 30 31 31 31 32 32 32 34 34 33 33 32 29 28 29 26 24 22 17 20 29 32 33 32 32 33 34 34 35 34 34 34 34 33 27 26 32 30 28 23 22
45 41 44 45 45 45 45 38 34 32 30 33 31 33 32 32 32 32 33 33 36 33 31 31 23 25 29 25 24 28 24 27 31 32 33 33 33 33 33 33 32 34 34 34 34 33 33 31 25 26 28 32 30 30
39 39 45 45 43 41 36 34 30 32 31 31 30 30 32 32 32 32 32 32 29 32 31 28 29 21 19 19 20 27 30 31 31 31 32 34 35 34 34 34 34 33 32 32 29 30 29 27 28 28 29 29 28 28
41 41 43 44 42 34 31 32 32 28 30 31 31 30 31 30 31 32 32 32 27 26 26 21 18 19 21 24 23 29 30 27 32 33 32 31 32 32 32 31 31 30 29 29 28 27 27 28 27 27 27 27 26 28
43 43 42 43 42 32 31 29 32 30 29 31 31 30 30 30 30 32 32 32 28 25 23 21 22 23 24 25 27 26 27 27 27 25 25 27 28 29 28 27 27 27 27 28 28 27 26 25 26 26 25 25 25 25
38 38 40 36 33 32 30 30 30 31 32 30 30 30 28 30 29 30 30 31 30 28 26 24 21 25 28 27 27 27 29 30 27 25 25 26 27 26 26 25 25 24 22 21 20 23 22 21 22 21 17 16 18 21
36 40 31 33 31 29 28 32 30 30 30 29 29 30 27 26 27 28 30 28 28 27 29 25 28 31 30 29 29 29 29 29 28 26 26 24 22 22 22 22 21 19 20 16 18 16 14 18 17 15 13 14 16 18
37 34 27 27 21 20 24 32 22 27 23 26 28 25 25 25 27 30 25 29 29 30 29 31 30 30 28 28 28 27 28 26 23 23 23 22 23 23 21 18 15 11 11 14 15 15 13 10 12 9 11 11 12 12
36 25 27 27 28 24 25 17 29 25 20 18 19 21 21 23 24 23 23 25 29 30 29 30 29 27 27 26 23 23 24 25 22 20 21 20 19 19 19 17 14 12 12 12 10 7 7 3 4 7 7 6 7 8
20 18 23 22 27 25 19 16 23 25 12 11 16 13 20 19 18 19 21 24 24 24 25 27 28 27 24 23 22 21 22 22 20 18 18 18 14 14 14 15 13 12 11 3 2 0 1 2 1 2 3 3 5 6
17 19 22 19 16 22 11 10 16 18 14 16 17 20 17 17 15 19 21 21 23 23 22 23 23 22 21 23 20 18 18 18 20 15 14 14 12 6 2 0 0 3 8 -3 -6 -6 -2 -0 0 -1 0 2 4 6
12 11 20 28 25 24 20 20 24 23 22 21 21 20 21 19 17 19 23 22 22 22 23 23 25 23 20 17 17 15 14 13 14 14 14 13 12 10 2 -5 -3 3 7 1 -8 -11 -7 -3 -2 -1 0 3 3 4
18 21 15 18 20 24 20 16 17 20 23 25 23 19 18 16 15 18 20 22 21 20 19 18 17 16 14 13 12 10 9 12 12 11 8 7 7 1 -2 -4 -3 5 -4 -9 -11 -8 -7 -3 0 2 3 2 -2 -5
19 21 20 15 15 16 17 18 19 23 26 24 17 14 14 15 13 14 17 18 18 16 13 12 11 11 11 9 5 4 3 -2 -2 -6 -9 -12 -11 -4 -3 -10 -11 -9 -12 -11 -4 3 3 4 2 -0 -7 -3 -2 -6
16 19 11 6 11 13 18 21 17 23 22 20 20 17 15 11 13 15 14 13 11 7 5 4 4 2 -5 -6 -7 -4 -7 -12 -9 -7 -11 -13 -7 -4 -13 -13 -11 -9 -13 -17 -13 -11 -5 -11 -9 -13 -12 -13 -14 -16
25 24 23 20 20 19 22 22 26 25 24 16 15 10 9 7 8 10 8 5 5 2 -0 -7 -7 -15 -10 -10 -12 -12 -8 -10 -13 -9 -9 -11 -11 -15 -15 -13 -14 -18 -21 -21 -22 -21 -20 -19 -21 -22 -20 -17 -16 -18
20 10 8 11 13 12 11 11 7 20 19 19 8 6 -0 -0 -4 2 3 -0 -5 -6 -10 -16 -11 -7 -9 -10 -15 -15 -8 -11 -12 -12 -12 -11 -11 -11 -14 -14 -20 -21 -21 -21 -22 -21 -21 -21 -22 -22 -22 -21 -20 -20
7 8 10 9 12 15 8 1 -2 2 11 11 1 -1 -3 0 -1 2 3 -2 -3 -7 -9 -11 -10 -13 -12 -11 -11 -13 -12 -14 -13 -4 -3 -3 -8 -9 -15 -19 -22 -22 -20 -21 -22 -24 -21 -20 -21 -22 -22 -23 -22 -22

GFSWCAN_sfc_temp_021.txt.gz
Temp
51 50 50 50 50 51 51 50 50 50 50 50 50 50 51 52 54 56 53 54 55 46 49 53 53 49 48 48 44 46 47 45 39 37 36 35 35 38 38 41 37 37 33 31 28 30 32 48 50 44 50 50 50 49
50 50 50 50 50 50 50 50 49 48 48 48 49 50 52 53 53 55 54 54 53 51 50 53 55 55 55 55 49 46 50 46 46 39 35 33 33 32 34 36 41 37 41 39 39 41 48 50 50 53 50 51 52 50
49 50 50 50 50 49 49 49 47 47 48 48 49 50 53 54 54 57 54 52 51 46 50 51 51 56 57 55 57 48 44 50 47 46 38 36 35 36 33 35 39 42 44 41 41 47 45 48 52 51 53 52 53 52
49 50 49 49 49 48 47 48 48 48 48 49 50 50 51 53 53 57 54 51 50 45 37 46 54 52 56 56 57 55 50 47 45 44 36 35 35 40 35 39 39 43 43 41 40 45 48 50 50 53 53 51 51 52
49 49 49 48 47 47 47 47 48 48 48 50 51 51 52 52 53 54 52 51 50 52 39 41 50 52 53 53 52 52 51 48 44 39 35 37 36 37 35 36 36 44 44 41 42 51 50 51 54 53 51 51 51 50
48 48 47 46 47 47 47 48 48 48 48 48 50 51 53 52 51 53 51 51 50 48 44 38 45 46 49 51 50 48 49 46 46 43 37 40 42 41 34 35 46 47 49 50 50 50 50 51 52 53 51 50 48 47
48 47 47 47 47 47 47 47 48 48 49 49 50 51 51 51 52 49 48 49 48 48 41 36 37 44 45 47 45 46 48 45 46 40 36 37 39 40 34 36 43 44 47 48 50 49 48 49 49 48 45 44 44 43
48 48 48 47 46 46 47 47 48 49 49 49 50 50 50 50 50 49 49 48 48 46 42 35 34 38 45 40 39 43 40 43 42 40 38 36 39 38 35 39 40 41 42 48 46 48 47 45 44 43 44 44 40 38
47 47 47 47 47 46 46 47 48 49 49 50 49 49 50 48 46 47 48 48 48 47 36 33 35 35 44 38 37 39 41 36 41 36 37 41 35 33 33 35 35 36 36 38 43 42 42 40 41 41 40 38 35 34
46 46 46 47 47 46 46 47 48 49 49 49 49 46 39 45 48 49 46 42 41 39 41 33 38 35 43 36 35 35 35 35 35 37 40 35 34 35 35 36 37 37 38 41 40 34 36 36 36 36 35 36 35 34
46 46 47 47 47 47 47 48 48 49 50 46 41 40 45 47 46 39 35 36 37 34 37 36 38 37 41 37 35 35 35 34 34 36 35 33 31 33 36 36 38 39 39 39 39 38 37 37 35 34 34 35 36 36
47 46 46 47 47 47 47 47 48 46 43 45 44 45 43 41 37 36 33 34 35 34 35 35 35 39 36 40 37 35 33 33 33 37 33 30 31 35 35 35 37 39 39 39 39 38 38 38 39 38 37 36 35 35
46 46 46 46 47 47 47 47 47 47 46 44 40 36 39 35 33 29 32 33 32 33 34 34 34 34 37 36 34 35 33 32 35 32 30 30 34 35 35 35 35 38 38 39 39 39 37 36 35 34 33 34 32 33
46 46 46 46 46 46 46 46 47 47 43 35 34 32 30 32 31 32 32 33 32 33 33 34 33 34 33 33 33 33 31 32 30 28 27 32 33 33 35 36 36 35 33 35 36 36 35 33 33 32 30 30 29 32
46 46 46 45 46 46 45 45 46 44 39 33 34 28 28 31 32 32 32 33 33 34 33 33 33 35 32 32 32 31 27 26 27 26 30 32 33 34 33 35 35 34 29 33 36 34 28 29 30 32 32 32 32 28
46 45 42 44 46 46 46 45 42 41 36 33 32 30 32 31 31 32 32 32 35 33 33 34 32 31 30 31 29 28 26 23 26 31 32 33 33 33 34 35 36 36 35 35 35 35 33 30 29 32 32 31 29 29
44 37 43 45 45 45 44 40 38 35 34 32 31 33 32 32 32 32 33 32 35 33 32 32 29 27 30 28 27 30 27 29 32 32 33 33 33 34 35 35 33 34 34 34 33 32 31 31 28 29 28 30 29 30
36 38 44 45 43 41 37 35 33 34 30 31 30 30 32 32 32 32 32 32 33 33 32 30 32 26 25 21 25 29 31 33 33 34 34 34 35 35 35 34 33 33 32 30 29 29 29 27 27 26 27 28 28 29
40 40 43 44 41 34 32 32 33 30 30 31 31 31 31 31 32 32 32 32 31 29 30 26 23 24 26 28 28 30 31 31 33 33 32 32 33 32 32 32 31 30 28 28 28 27 27 27 26 26 25 24 23 24
42 42 42 42 42 32 30 29 33 33 30 31 31 30 30 30 31 32 32 33 30 28 26 24 25 27 28 29 30 30 33 33 33 30 28 29 30 30 28 28 28 28 27 27 26 24 24 24 24 23 21 19 18 17
38 37 39 37 32 32 31 29 29 31 32 30 30 30 28 30 30 30 31 32 32 28 26 28 27 28 30 29 30 31 31 32 30 30 28 26 27 27 26 25 26 24 22 20 20 19 18 18 19 18 16 15 16 17
35 39 31 33 28 28 30 32 30 28 30 28 26 29 24 25 27 29 30 29 29 29 30 29 31 32 30 28 28 29 29 29 29 28 27 26 24 23 21 21 20 18 17 16 17 15 15 16 15 14 12 12 13 14
35 32 26 26 23 24 25 32 23 27 24 21 28 23 24 27 28 30 25 29 29 30 31 31 29 29 27 27 28 27 28 27 24 24 23 23 23 21 18 17 16 14 13 14 14 13 11 8 11 9 10 10 10 10
35 28 23 18 20 20 22 22 29 27 22 18 19 15 19 20 23 23 24 25 28 29 29 29 28 26 25 24 22 23 25 25 22 21 22 21 19 19 19 16 14 12 12 12 10 7 7 5 3 6 6 5 6 7
20 22 18 19 21 14 19 19 24 26 23 17 15 12 22 23 15 16 21 22 23 23 24 27 28 26 22 21 21 21 21 23 20 17 17 18 16 16 15 15 13 12 11 7 5 3 3 3 3 3 4 4 4 5
15 22 22 21 21 22 18 8 15 18 13 10 16 19 19 21 17 15 17 19 21 21 21 23 23 21 19 21 19 18 17 20 20 15 14 15 14 10 8 6 6 8 10 5 2 1 2 2 1 1 2 4 3 5
16 18 24 28 26 23 14 14 22 19 16 18 19 18 18 16 11 17 22 21 21 20 20 19 22 20 17 16 16 15 16 16 16 15 15 14 12 11 7 4 3 7 8 5 0 -2 -2 -2 -1 1 2 5 6 4
24 21 15 14 14 19 12 13 14 16 19 24 22 15 14 16 15 16 18 21 20 19 17 16 16 15 14 12 12 14 13 13 11 11 10 9 8 6 4 4 3 3 -0 -1 -1 -1 -0 -1 1 3 3 2 2 2
19 19 15 10 11 16 16 15 16 22 24 21 15 13 12 14 13 13 16 17 17 17 14 12 11 12 10 9 6 5 4 6 6 1 -1 1 0 5 5 1 -0 -1 -2 -3 -2 2 5 6 5 2 -1 -2 -1 -1
15 20 12 8 13 10 16 23 14 18 20 19 18 16 14 11 11 13 13 13 10 7 5 5 3 6 1 2 1 3 1 -2 1 2 1 -0 1 3 0 -1 -2 -2 -5 -5 -5 -4 -2 -3 -2 -3 -5 -5 -5 -5
21 22 14 11 11 13 15 11 22 24 17 13 12 10 7 8 9 9 7 5 5 4 4 -0 0 -6 -0 -2 -1 -2 0 0 -7 -3 -2 -2 -2 -1 -2 -2 -3 -6 -7 -7 -7 -7 -8 -6 -7 -8 -7 -8 -9 -10
10 7 11 9 11 10 8 8 5 16 17 14 5 6 3 3 -1 6 5 3 1 1 -5 -9 -5 0 -3 -4 -6 -5 -7 -3 -2 -3 -5 -4 -2 -1 -2 -3 -7 -8 -7 -7 -8 -8 -9 -9 -8 -9 -9 -10 -10 -11
9 7 10 12 13 15 8 0 -1 4 10 5 1 -1 -1 2 -1 4 4 1 3 3 1 -2 -2 -4 -6 -7 -3 -3 -8 -5 -8 -4 -1 -1 -2 -1 -2 -4 -7 -8 -8 -7 -8 -10 -8 -9 -8 -10 -11 -13 -12 -13

GFSWCAN_sfc_temp_024.txt.gz
Temp
49 48 48 49 50 49 49 49 50 50 51 51 50 50 51 52 54 62 62 63 69 59 60 62 63 60 59 63 56 56 57 55 52 46 46 48 43 49 49 52 47 46 42 39 39 36 36 58 57 51 59 62 61 62
48 49 49 49 49 50 50 50 50 50 50 50 50 50 51 52 54 58 62 62 66 65 60 63 62 63 64 68 63 60 61 59 61 53 48 45 39 37 47 46 51 46 52 51 51 52 58 60 62 64 61 60 62 61
49 49 49 49 49 49 48 48 48 48 48 49 49 50 51 53 54 58 63 61 65 59 60 63 60 63 66 64 67 61 59 63 59 59 54 49 38 50 38 48 49 53 54 50 49 59 59 60 62 64 65 63 64 65
49 49 49 48 48 48 48 48 48 48 48 49 50 51 52 54 54 59 64 61 63 59 43 55 63 60 63 65 65 64 63 59 58 61 49 42 43 52 48 52 51 55 53 52 50 57 60 62 63 63 63 64 63 64
48 47 47 47 47 48 48 48 48 49 49 49 50 52 53 54 53 60 59 56 61 62 48 53 59 59 61 63 62 63 62 61 59 51 43 47 50 49 45 47 48 55 54 49 50 57 57 59 62 62 60 60 60 58
47 47 47 47 47 47 47 48 49 49 49 51 52 52 53 53 55 66 60 58 59 63 57 47 56 55 59 61 60 58 60 60 61 57 47 52 50 52 39 47 50 52 54 54 52 57 57 59 60 58 56 54 54 53
47 47 47 47 47 47 48 48 49 50 50 51 52 51 51 52 60 61 57 56 52 58 55 45 49 54 54 57 52 56 57 56 59 50 42 47 49 54 40 46 45 48 50 52 54 54 55 53 50 52 51 50 49 48
47 47 47 47 47 47 48 48 49 50 51 51 51 51 51 51 52 58 56 51 52 60 58 43 43 49 54 47 44 49 47 52 48 43 43 42 44 45 42 42 44 46 48 52 49 52 51 51 51 50 50 46 40 37
47 47 46 46 46 47 47 48 49 49 49 49 50 51 58 54 55 58 49 49 59 60 50 38 42 40 50 43 43 45 49 39 47 42 43 47 39 37 35 37 38 40 41 44 46 49 49 46 41 39 38 37 35 35
47 47 46 46 46 47 47 48 49 49 49 50 57 56 48 50 48 52 57 54 52 49 48 37 45 40 49 42 39 42 41 38 37 41 43 40 32 36 36 37 39 40 45 48 42 36 36 35 35 36 36 38 40 42
47 47 47 47 47 47 47 48 48 51 53 54 49 46 53 50 57 50 43 43 47 38 42 41 45 41 45 41 38 40 38 38 36 41 39 36 31 34 37 38 40 41 40 39 39 38 39 40 38 38 41 42 42 40
47 47 47 47 47 47 47 48 49 52 50 51 51 51 53 50 47 38 36 38 39 37 38 39 39 42 40 45 41 39 36 36 35 43 36 33 32 35 36 37 40 42 43 43 45 44 44 44 44 42 41 40 40 38
46 46 46 46 46 47 47 47 47 48 48 54 49 40 46 38 35 36 33 35 35 35 36 36 35 39 41 43 37 38 35 35 41 35 33 33 33 35 36 41 42 44 43 43 43 44 43 42 41 39 37 39 35 39
45 45 45 45 46 46 46 47 47 50 49 42 38 34 35 34 33 34 35 35 34 34 36 38 36 39 37 35 36 35 33 33 32 31 31 31 33 35 37 40 42 41 36 40 41 41 38 38 37 35 33 33 33 35
45 45 45 45 45 45 45 46 46 50 44 37 38 30 31 32 33 33 33 34 34 35 36 36 36 40 35 34 34 33 31 31 33 33 33 33 34 35 36 40 40 39 34 38 41 37 33 34 36 37 36 36 34 32
46 47 43 45 45 46 46 46 45 43 37 36 34 33 33 33 32 33 33 32 35 34 35 35 34 34 32 34 33 32 31 31 32 34 34 34 34 35 39 40 40 40 40 40 39 38 36 33 33 35 35 33 31 31
46 43 43 45 45 45 45 45 45 39 36 34 33 33 33 33 32 32 33 33 36 35 33 36 33 30 35 33 31 36 32 35 35 34 35 36 36 36 38 39 36 38 39 38 37 36 35 34 33 32 31 33 33 33
42 44 43 45 47 46 43 43 40 38 32 34 33 32 33 33 34 33 34 35 38 38 37 34 38 32 31 30 32 35 34 34 35 34 35 35 36 36 39 40 40 38 36 34 33 34 33 32 32 32 31 31 31 31
43 43 43 44 47 45 40 38 41 33 32 34 33 34 34 34 35 35 34 35 37 40 39 37 33 34 34 38 37 32 34 34 34 33 32 34 36 37 38 37 34 33 34 33 33 33 33 31 30 30 29 29 27 28
42 42 42 42 47 43 35 36 44 36 32 33 34 32 33 33 34 33 34 36 39 38 35 33 34 35 36 38 39 39 39 42 38 33 30 32 36 36 36 35 34 34 33 32 30 28 30 30 29 27 25 24 23 22
43 42 42 44 41 40 34 35 35 35 36 33 34 35 33 34 33 33 33 35 35 32 31 31 31 33 34 36 38 40 39 37 35 35 33 31 33 34 32 32 31 31 29 28 27 25 24 24 24 24 22 21 20 22
40 41 40 40 36 35 34 36 34 38 37 35 35 37 33 32 32 32 35 34 32 31 33 33 33 34 32 31 33 35 35 35 34 33 31 30 28 27 28 28 28 25 24 23 24 22 22 22 20 19 19 18 19 21
40 40 36 34 31 31 28 38 31 32 30 30 32 30 31 31 33 36 31 33 31 32 33 33 31 31 30 30 30 31 33 33 31 29 29 28 27 26 25 23 23 22 22 21 21 20 18 14 17 15 17 17 18 18
39 32 28 29 29 24 29 28 32 30 30 27 27 25 27 29 32 32 27 27 28 31 31 31 31 29 28 26 25 24 25 27 26 25 27 26 23 22 23 21 20 18 18 18 17 16 16 15 12 15 14 14 15 14
28 25 29 24 29 25 23 23 27 29 25 24 25 26 27 30 27 25 24 24 26 26 27 29 28 27 24 23 23 23 23 25 22 19 20 23 22 22 20 20 18 17 17 15 14 13 13 13 13 12 12 13 11 11
22 26 25 25 26 26 24 22 23 24 25 24 25 28 29 28 22 18 22 24 24 24 23 23 25 23 21 22 21 20 19 22 22 18 18 20 19 18 16 16 17 16 16 14 11 10 11 11 10 9 11 12 11 11
22 23 27 31 29 27 27 28 29 27 24 24 27 26 26 20 18 21 25 24 24 23 23 22 23 22 20 19 18 18 19 20 19 18 18 18 17 16 15 12 11 12 14 12 10 9 8 8 8 9 10 12 12 11
26 28 22 25 27 28 24 25 24 23 26 29 28 22 20 20 19 21 22 23 23 23 22 20 20 19 18 17 18 19 18 17 16 16 17 16 16 15 13 14 12 9 9 9 8 8 9 9 9 10 10 9 8 9
27 28 27 19 23 26 25 25 25 28 29 28 25 21 17 18 18 19 20 21 23 23 20 18 17 18 17 15 15 15 16 17 16 12 11 13 13 14 14 12 12 11 10 9 8 8 9 10 9 8 7 7 7 7
26 28 25 20 20 23 26 27 28 28 27 25 23 20 18 16 16 19 19 19 17 15 14 13 14 16 14 16 14 13 12 12 11 11 10 9 10 11 11 11 10 10 8 8 7 7 7 7 7 8 6 6 6 4
29 29 25 24 23 26 24 23 26 26 24 21 19 18 15 15 16 16 14 14 14 15 15 14 13 12 13 12 12 12 11 11 7 8 8 9 9 10 10 9 10 9 7 6 6 5 4 4 6 4 4 2 1 0
24 20 21 20 24 23 23 23 23 25 23 20 15 15 13 14 11 13 13 15 15 13 6 10 12 12 11 11 9 10 1 8 9 7 7 7 9 10 10 9 8 7 6 5 5 4 3 2 2 2 2 1 -1 -2
21 21 21 21 21 21 19 19 16 17 18 16 13 13 12 13 8 12 13 12 12 12 11 11 12 11 9 7 9 10 5 9 6 4 3 3 2 5 7 9 7 6 4 4 4 3 2 1 1 1 0 -2 -3 -3

GFSWCAN_sfc_temp_030.txt.gz
Temp
48 48 48 48 49 49 49 49 49 49 50 50 49 49 49 49 51 49 53 57 55 53 68 73 75 69 69 66 55 61 60 61 58 49 49 52 46 53 54 58 48 44 42 38 44 35 34 66 63 52 59 64 64 64
48 48 48 48 49 49 49 49 49 49 50 50 49 49 49 50 50 52 50 56 58 55 63 69 68 71 71 74 67 63 65 63 63 58 54 54 41 40 50 46 64 49 55 50 50 48 63 67 64 68 67 63 64 64
48 48 48 48 48 48 48 48 48 48 48 49 49 49 51 51 52 54 52 55 57 62 63 66 64 68 71 71 72 61 66 71 68 72 60 55 40 54 39 49 55 62 64 55 55 63 65 67 69 69 67 63 65 65
48 48 48 48 47 47 47 47 47 47 49 49 50 50 51 51 52 53 52 56 62 64 46 56 70 65 70 73 73 72 73 71 69 66 56 43 43 62 51 58 55 60 61 57 57 62 64 65 63 62 62 63 61 62
45 46 45 46 47 46 47 47 47 48 49 50 50 50 51 52 52 53 55 61 67 68 50 54 64 67 70 71 70 71 70 67 63 55 42 50 58 54 53 54 52 63 59 51 49 58 57 57 58 60 57 56 56 56
46 46 46 46 46 47 48 48 48 49 49 49 50 50 51 51 51 53 55 68 68 73 57 48 61 63 68 70 68 68 68 68 67 60 52 59 61 57 42 47 58 59 60 59 56 59 59 58 58 55 49 49 50 49
47 47 47 47 47 47 47 47 48 48 49 49 49 50 51 50 54 53 56 56 52 66 57 45 47 59 66 65 63 64 68 66 66 59 53 55 56 57 42 47 54 55 57 58 58 58 52 56 51 51 48 47 46 46
47 48 48 48 48 47 47 47 48 48 48 49 50 50 51 51 52 55 56 53 54 66 62 44 40 50 61 54 50 59 57 60 56 52 53 51 51 51 46 51 53 54 55 54 56 57 53 51 49 48 48 47 43 42
48 47 48 49 48 48 48 48 48 49 49 50 51 51 55 58 57 59 51 52 64 60 51 39 41 38 59 50 48 50 56 43 53 44 50 51 43 42 47 49 49 51 51 50 50 50 48 46 45 45 45 45 42 42
47 47 47 47 48 49 50 49 49 50 51 51 56 60 46 55 51 52 60 56 55 55 53 42 51 43 51 44 41 43 45 41 39 43 51 41 36 41 44 47 49 49 51 48 41 39 42 42 43 44 45 45 43 42
47 47 47 47 48 48 48 49 50 52 52 62 56 47 55 51 58 54 43 45 49 43 47 46 51 44 50 42 39 43 39 41 38 42 41 38 37 37 43 44 46 47 50 47 46 46 46 45 44 42 42 43 41 40
47 46 46 46 47 49 49 49 50 58 59 56 56 56 56 51 47 39 38 40 40 38 40 41 43 46 45 52 44 42 37 40 36 45 38 36 36 39 41 42 45 47 47 46 47 45 46 46 45 44 42 40 38 36
46 46 46 46 47 48 49 49 49 49 50 59 51 42 45 40 36 36 33 36 34 36 37 39 36 42 43 47 39 40 35 37 46 36 37 35 36 38 41 44 45 47 47 46 46 46 44 41 41 39 36 36 37 37
45 46 45 46 46 47 48 48 49 56 57 45 38 33 34 33 32 33 34 34 34 34 36 39 38 39 38 36 38 33 34 38 33 32 34 33 35 38 42 44 44 43 38 43 43 41 38 36 35 33 32 32 31 33
46 45 47 45 46 47 48 49 50 53 47 39 38 31 31 32 33 33 33 34 35 38 38 40 40 42 36 35 37 34 32 32 34 34 33 34 35 38 41 43 40 38 35 40 40 35 34 35 36 35 34 34 32 28
49 48 45 45 46 48 49 51 49 46 40 36 34 32 33 33 32 33 33 33 35 35 39 42 37 34 33 35 34 34 34 33 32 34 34 35 36 37 40 41 41 42 41 40 38 36 35 34 34 35 34 33 28 28
50 47 43 45 47 49 49 50 46 40 36 34 32 33 33 32 32 32 33 33 36 35 33 36 33 32 37 34 32 34 32 33 34 34 35 36 36 37 40 39 38 40 41 40 38 38 36 36 35 35 33 34 35 34
48 51 45 46 51 52 51 48 40 37 32 33 32 32 33 33 33 33 35 37 37 35 35 33 36 33 32 31 32 34 33 33 35 35 35 37 38 39 41 40 42 42 38 37 36 36 36 35 36 34 34 33 34 33
45 47 45 47 51 49 42 42 45 33 33 34 34 36 36 36 38 38 37 40 43 43 39 36 32 30 30 31 32 33 33 33 32 33 34 35 36 36 38 38 38 37 37 37 37 36 34 33 32 32 31 30 28 29
46 45 45 48 51 44 38 39 48 38 32 34 36 35 37 36 37 35 36 40 40 39 33 29 28 29 29 31 31 33 34 36 34 32 32 33 36 36 35 36 37 36 34 33 32 33 34 33 31 30 27 27 25 24
49 47 47 51 47 44 39 39 38 39 39 36 39 39 36 38 35 34 35 40 34 31 29 30 31 31 33 33 31 33 32 34 35 35 36 33 35 36 36 36 35 34 32 30 30 28 28 26 26 26 25 24 23 24
47 45 45 45 39 38 38 40 39 42 38 37 37 39 34 32 33 34 39 32 29 29 31 30 30 32 31 30 30 31 33 32 33 32 33 33 31 30 29 30 29 26 25 25 26 24 24 23 22 22 22 22 22 24
46 46 41 38 33 32 30 42 33 36 31 32 36 33 32 32 35 41 30 30 29 31 32 32 32 32 30 30 31 30 31 30 29 28 28 27 27 26 24 24 25 25 22 23 25 24 22 20 21 20 22 21 21 21
43 33 31 32 33 27 34 32 38 35 33 30 30 28 28 31 36 33 25 27 28 31 31 31 32 31 31 29 25 25 27 28 26 27 27 25 23 22 23 22 21 22 23 24 22 21 22 20 18 20 19 17 18 17
32 28 31 29 34 32 30 30 31 32 27 30 29 28 29 34 29 27 24 25 26 25 26 29 30 28 27 26 25 24 26 26 24 21 23 26 24 23 22 22 21 20 22 20 18 18 18 18 18 16 15 16 15 15
25 28 29 29 29 29 30 27 27 27 29 28 27 30 32 31 26 22 23 24 23 23 22 24 25 26 24 24 23 21 22 26 26 21 20 23 22 22 21 21 20 17 19 18 16 15 15 15 14 14 14 15 14 14
25 27 31 35 32 33 30 31 33 31 28 26 28 28 29 25 22 22 25 25 24 24 25 25 25 24 23 22 23 23 24 23 22 22 23 22 21 21 18 15 13 13 16 16 14 12 11 11 12 12 12 14 15 13
29 29 25 29 30 33 28 29 27 25 27 30 31 25 23 20 18 22 23 26 26 27 25 24 24 23 22 22 23 23 24 24 21 23 23 22 22 20 19 19 17 15 16 15 14 13 12 11 10 10 11 11 10 13
27 30 32 23 30 30 27 26 27 27 30 29 26 24 21 20 21 22 24 25 27 25 23 22 22 24 23 22 21 21 19 18 18 15 15 16 18 16 18 17 17 17 16 15 15 15 15 12 11 11 11 10 11 12
27 32 30 28 26 26 25 27 28 28 29 28 28 24 21 19 20 23 22 22 21 19 20 20 21 21 19 20 18 18 17 15 13 12 10 10 11 15 15 16 15 15 15 13 13 13 14 13 12 11 11 11 11 9
31 32 29 29 27 26 27 29 30 29 28 25 25 23 19 17 19 20 20 21 21 20 20 19 18 18 16 15 14 14 14 15 14 14 12 12 13 14 15 14 15 15 14 12 11 10 10 9 9 8 8 8 8 7
29 26 26 25 26 28 29 27 27 28 26 25 21 22 20 20 15 16 17 19 19 17 15 17 16 15 16 16 17 17 10 14 15 13 12 11 11 11 11 12 12 13 12 11 11 10 9 9 8 7 7 7 6 4
28 29 28 28 27 26 27 26 26 24 24 21 19 20 17 16 11 15 19 19 16 15 15 16 17 17 16 15 15 15 14 16 14 14 13 12 7 8 8 10 10 9 8 8 8 8 8 8 7 7 6 4 4 2

GFSWCAN_sfc_temp_033.txt.gz
Temp
48 48 48 48 48 48 49 48 49 49 49 50 50 50 50 51 52 49 47 50 49 48 54 57 63 60 59 54 46 52 49 49 45 38 37 35 32 40 41 47 40 36 32 28 32 30 30 57 55 45 48 52 55 54
48 48 48 48 48 48 48 49 49 49 49 49 49 49 50 50 51 51 45 52 54 48 50 58 59 59 64 62 54 52 53 52 51 45 40 38 36 35 38 33 51 37 42 37 39 37 50 55 55 56 56 53 52 52
48 48 48 48 48 48 48 48 48 48 49 49 49 49 50 50 50 50 47 52 51 48 48 52 52 60 66 64 63 50 54 59 56 54 46 41 36 38 32 35 41 50 55 44 46 52 53 55 55 56 55 53 54 52
47 47 48 48 48 48 48 48 48 48 48 49 49 49 49 50 50 50 47 51 51 48 41 50 64 58 66 65 67 64 63 59 57 52 41 37 36 48 36 44 43 48 51 49 47 52 51 52 52 53 52 52 50 49
48 48 48 48 48 48 48 47 47 47 48 48 49 49 49 50 50 50 50 52 54 50 44 47 58 62 65 62 63 65 61 57 50 43 35 38 44 43 41 42 41 51 49 39 36 50 48 47 49 50 47 46 48 46
47 46 46 46 47 47 47 46 47 47 47 48 49 49 50 50 51 51 46 53 54 53 47 39 54 56 60 59 60 60 58 56 53 47 40 46 51 43 34 32 48 50 51 51 48 52 50 46 46 47 44 44 45 43
45 46 46 46 46 46 46 46 47 47 47 48 49 50 50 50 52 49 47 52 52 52 48 39 41 53 57 55 51 53 56 52 51 47 41 44 45 44 34 33 47 50 51 52 53 52 46 46 41 44 43 43 42 41
45 45 45 45 46 46 46 46 46 48 48 49 49 50 50 51 53 50 55 52 50 54 50 39 38 44 56 46 41 48 46 47 46 43 42 39 41 36 34 43 48 50 51 48 47 49 46 45 45 43 43 42 39 39
47 47 47 47 47 46 47 47 48 48 49 49 50 50 52 52 49 52 52 50 54 52 39 35 37 36 51 44 42 45 45 37 46 37 38 41 33 33 41 43 45 47 46 44 45 45 44 42 42 42 40 39 38 38
47 47 47 46 47 47 47 47 48 49 49 50 52 50 43 50 50 52 52 46 45 45 43 37 43 38 47 38 37 37 37 36 35 37 42 36 33 40 41 42 43 45 47 45 38 36 37 38 39 41 40 40 39 38
47 47 48 48 47 47 47 48 49 50 50 52 47 43 48 49 50 45 36 36 38 34 37 39 42 40 45 37 35 37 35 35 32 34 35 34 32 37 42 42 44 44 46 45 44 44 43 43 40 38 37 36 34 31
47 47 47 48 49 48 48 49 50 52 51 52 51 51 49 47 39 35 33 34 35 34 35 36 38 43 39 45 35 37 34 33 32 39 34 32 33 38 40 41 43 44 45 44 45 44 43 43 41 38 36 34 32 30
46 47 47 47 48 50 50 50 50 51 50 51 46 39 42 36 33 32 30 33 32 33 35 35 35 36 39 41 35 35 34 33 36 34 33 31 35 38 40 42 43 45 44 43 40 39 38 36 35 34 32 33 31 30
46 47 47 47 47 48 49 49 49 52 49 39 35 31 33 31 30 30 31 32 32 33 34 35 34 34 34 34 34 33 32 34 30 25 26 32 35 37 40 42 41 40 37 37 36 34 32 32 31 31 29 28 28 29
47 46 47 46 47 48 48 48 49 48 41 34 34 28 29 31 32 32 33 33 33 35 34 35 35 37 33 33 33 32 31 30 31 30 31 33 36 38 38 38 37 35 34 35 36 33 32 31 31 30 30 30 28 25
50 48 44 46 48 49 48 48 46 43 37 34 32 31 32 32 31 32 32 32 35 34 35 34 33 33 32 33 32 31 28 27 29 31 33 35 36 36 37 37 38 38 35 34 34 33 32 31 29 30 30 28 23 22
48 42 45 46 48 50 49 45 41 35 33 32 31 32 32 32 31 32 32 33 36 34 32 32 31 30 33 31 29 31 28 30 31 32 34 35 35 35 37 36 36 36 35 34 33 33 32 32 30 29 28 29 29 28
41 45 46 47 49 48 46 43 36 34 30 32 30 31 32 32 32 32 32 34 34 33 33 32 34 31 27 27 27 31 31 32 32 33 34 36 36 36 37 36 37 37 34 33 33 32 32 29 29 27 28 28 28 27
43 44 47 48 48 42 35 37 39 30 31 32 32 32 33 33 34 35 35 36 37 36 34 32 27 25 25 28 27 30 32 31 31 32 34 35 36 35 36 34 34 33 33 32 31 29 28 28 27 26 25 25 22 21
47 46 46 48 48 36 34 34 41 33 30 32 33 32 32 32 33 33 34 34 35 33 29 27 26 27 27 27 28 30 32 33 33 31 31 32 33 33 33 33 31 30 30 29 29 28 27 25 26 25 22 20 16 14
43 43 45 44 39 38 34 32 33 33 32 32 33 31 30 32 32 32 30 32 28 27 25 27 27 28 29 29 30 32 30 31 30 32 32 31 32 32 31 31 30 30 28 25 24 22 21 20 21 21 14 9 9 10
40 45 35 37 33 32 31 34 32 34 32 32 30 32 30 26 27 30 29 26 25 27 28 27 28 28 28 27 27 28 30 29 28 27 27 29 26 26 26 25 23 21 21 22 22 19 19 19 18 16 9 7 11 12
43 39 33 32 25 24 21 32 25 30 23 28 29 27 26 25 28 32 23 27 26 28 28 29 30 29 26 26 27 27 27 27 25 25 24 23 23 22 21 21 22 20 19 20 21 20 19 17 15 9 10 7 7 4
40 32 28 26 25 25 25 23 29 30 30 27 25 23 26 24 28 22 21 22 24 27 26 27 28 27 25 24 21 22 24 25 23 23 24 22 19 19 19 19 19 19 20 20 19 17 15 10 10 8 1 -1 -1 0
24 22 25 18 26 21 18 22 21 25 24 25 20 19 26 26 18 21 19 21 19 19 21 24 24 22 21 20 20 20 22 23 19 17 18 22 20 19 18 18 17 17 17 13 11 7 3 2 0 -1 1 -4 3 -1
21 26 24 27 27 26 26 23 24 24 25 21 25 27 23 23 16 13 19 19 15 18 17 19 21 19 18 19 18 17 17 22 21 16 17 18 17 16 16 14 12 10 12 4 -0 -1 1 -0 -3 -2 -4 1 3 3
23 25 28 32 30 29 27 28 27 21 20 18 22 22 17 18 10 17 21 21 19 19 21 20 21 20 19 19 20 19 18 18 17 18 19 18 17 15 10 3 1 5 8 4 -1 -4 -5 -5 -5 -4 -5 3 2 -1
26 28 24 27 28 29 25 25 23 21 22 26 24 14 13 14 11 18 20 22 22 22 21 21 20 20 18 18 18 16 15 16 12 14 15 15 14 11 8 5 7 11 7 5 -0 2 -2 0 -4 -6 -6 -6 -6 -6
25 29 22 13 18 26 23 23 21 24 26 25 18 13 13 17 17 19 21 21 21 20 18 17 19 18 15 13 12 11 9 9 5 1 -2 -0 3 5 5 2 3 2 0 1 6 8 5 4 4 -0 -5 -1 2 -2
24 28 19 15 13 18 22 25 24 24 26 25 20 19 16 14 16 19 18 18 16 13 12 16 15 13 10 11 9 7 3 1 1 -4 -7 -8 -5 2 1 6 4 -0 -0 -3 -4 -2 5 -1 -1 -5 -5 -5 -0 -3
30 25 19 18 16 19 24 26 25 24 24 20 16 13 11 11 11 14 14 16 13 15 15 10 9 7 4 3 0 -2 0 0 1 2 -2 -4 -3 -3 4 2 5 6 -2 5 0 -5 -7 -7 -5 -3 -7 -8 -5 -4
21 18 13 14 19 19 27 24 21 22 21 17 9 9 8 11 4 7 13 15 12 11 10 8 5 4 1 0 0 -1 0 -1 5 -0 -2 -4 -5 -6 -6 -4 -4 3 3 1 1 1 -1 -3 -6 -2 -4 -4 -10 -12
18 18 16 15 15 17 18 13 17 15 13 11 8 11 7 6 2 7 13 12 7 3 4 7 9 8 5 1 -0 1 6 4 3 8 9 7 -0 -2 -6 -6 -8 -10 -9 -9 -8 -9 -8 -3 1 0 -4 -8 -10 -10

GFSWCAN_sfc_temp_036.txt.gz
Temp
48 48 48 47 48 48 48 48 48 48 48 48 48 49 49 50 50 49 48 50 47 44 46 51 56 51 55 55 44 48 47 47 42 37 37 33 31 39 37 43 39 37 31 26 31 26 30 52 52 45 46 48 51 50
48 48 47 47 47 48 47 47 47 47 48 49 49 49 49 50 51 51 45 50 51 44 46 52 52 54 55 63 51 48 52 50 48 44 39 36 33 31 36 32 46 37 40 35 38 36 48 51 50 51 51 49 48 48
47 47 47 47 47 48 47 46 47 47 47 47 49 49 50 51 52 49 46 48 48 44 46 48 51 58 60 63 61 49 48 55 53 52 44 39 36 35 31 33 39 46 49 42 43 46 47 48 50 50 50 47 47 48
47 47 47 47 47 48 48 48 48 48 48 48 49 49 50 51 51 50 46 49 50 48 38 46 58 56 61 61 61 60 58 56 55 50 39 37 36 45 33 42 41 45 49 45 41 44 47 47 47 47 46 46 45 45
47 47 47 47 47 47 47 47 47 47 48 48 49 49 49 50 50 47 47 49 50 47 40 42 53 58 59 59 61 60 59 53 48 44 35 37 41 42 37 39 39 48 46 39 37 48 44 43 45 47 45 43 43 41
47 47 47 47 47 47 47 47 47 47 48 48 49 49 49 49 49 47 42 49 51 52 45 38 49 52 56 58 55 58 54 52 49 47 40 44 48 41 33 31 45 47 48 49 45 47 44 43 44 44 41 41 41 39
47 47 47 47 47 47 47 47 47 47 47 48 48 49 49 49 47 44 44 50 52 51 44 37 40 50 54 52 48 50 52 50 49 45 41 41 43 42 32 33 44 46 47 47 46 45 40 42 38 41 40 39 40 39
46 46 46 46 46 47 46 46 47 47 47 48 48 49 49 49 50 46 51 50 52 49 47 37 40 42 52 43 41 46 43 46 45 42 39 37 40 34 33 42 45 44 44 45 44 45 43 42 41 39 40 39 37 35
46 46 46 46 46 46 46 46 47 47 47 48 49 49 48 48 47 48 50 50 51 49 40 35 36 36 47 40 40 40 41 36 43 35 36 39 34 32 38 41 43 43 43 40 42 42 41 38 38 38 38 37 34 33
45 45 45 46 46 46 46 47 46 47 48 49 48 46 40 46 50 52 50 45 44 44 42 36 41 37 44 36 36 33 34 34 32 35 41 34 32 37 37 40 42 43 43 42 36 34 36 35 36 37 37 36 35 33
47 46 46 46 46 45 45 46 47 48 49 48 45 42 48 49 49 44 37 36 38 34 36 38 39 39 43 35 35 35 34 34 34 35 35 33 32 36 40 40 42 43 45 44 43 41 41 40 37 36 34 34 31 31
47 47 47 47 47 47 48 48 48 49 49 49 49 49 47 44 38 35 32 34 34 33 35 36 38 41 38 44 37 36 34 33 30 38 34 31 33 39 41 41 42 44 44 43 43 41 41 40 38 36 33 29 30 31
47 48 47 47 48 48 48 49 49 49 51 49 43 37 41 34 32 31 29 32 31 33 34 35 34 36 38 40 34 32 27 31 32 33 32 31 36 38 40 41 41 41 40 40 39 39 37 36 35 32 29 30 30 29
47 47 47 47 48 48 48 48 48 49 45 36 34 30 31 29 29 29 31 32 32 33 34 34 34 34 33 35 33 33 33 33 28 26 27 31 35 37 39 41 38 37 35 35 35 34 32 30 30 31 30 29 28 27
48 47 47 47 47 48 48 48 47 45 38 33 33 27 28 31 32 32 33 33 33 34 34 34 34 36 33 33 33 32 30 29 27 24 31 33 35 36 36 36 35 33 33 33 33 31 30 30 30 29 29 29 28 24
47 48 46 46 47 48 47 46 43 41 35 33 32 30 32 31 31 31 32 32 35 33 34 35 33 31 31 32 31 30 29 27 28 30 32 35 35 35 36 35 36 35 34 33 32 32 31 29 29 29 28 27 23 22
46 42 46 47 48 48 47 42 38 34 33 31 30 32 32 32 31 32 32 33 35 34 32 30 29 29 32 29 27 30 26 29 31 32 33 35 34 34 35 33 33 33 33 33 32 32 31 31 29 28 26 27 28 25
38 40 47 48 47 46 43 40 34 32 30 31 29 31 32 32 32 32 33 35 34 32 33 30 32 27 23 22 23 28 30 31 32 32 34 34 34 34 35 34 35 34 32 32 32 32 30 29 28 27 28 28 26 26
43 44 46 47 45 40 35 36 37 30 30 32 32 32 32 32 32 32 32 34 34 34 33 29 25 23 22 25 24 26 30 31 31 32 33 34 35 34 35 33 32 32 31 31 29 27 27 27 26 25 25 24 20 20
45 45 44 45 44 35 34 33 38 32 30 31 32 32 32 31 32 31 31 31 33 31 26 24 22 23 24 25 27 28 28 32 32 31 30 31 33 33 32 30 29 29 28 28 27 25 25 24 24 23 22 20 16 13
40 40 41 39 35 35 31 30 31 31 32 31 31 31 30 31 29 27 26 30 27 25 23 25 24 25 27 27 27 28 27 27 26 29 31 28 29 29 28 27 28 27 25 22 21 20 20 19 20 20 17 14 10 9
36 42 29 34 29 29 29 31 30 30 30 29 29 29 24 22 24 24 27 23 23 24 27 26 25 25 24 24 25 26 27 27 26 24 24 24 22 23 22 23 22 20 20 20 19 18 18 18 19 17 15 12 13 13
38 34 29 27 22 21 20 29 23 28 21 23 25 23 23 23 28 29 21 24 23 25 27 25 25 25 24 24 25 25 25 25 23 22 21 20 20 20 20 20 20 19 18 19 20 19 17 18 16 13 11 10 7 3
37 26 22 22 22 18 18 23 27 30 27 25 20 23 25 25 25 19 17 18 21 24 23 24 26 23 22 21 18 19 21 22 20 19 21 20 17 17 18 17 16 17 17 17 16 14 13 10 10 9 5 -3 -7 -7
22 20 19 14 18 17 12 13 16 20 15 15 13 16 21 20 15 12 13 16 16 16 17 20 20 20 17 16 17 17 20 20 16 15 16 19 17 16 15 14 13 13 14 10 7 4 3 2 -2 -5 -4 -11 -1 -4
21 23 21 25 25 24 22 19 20 21 16 15 19 20 20 13 6 8 16 14 12 15 13 15 16 15 15 17 15 15 16 20 18 14 14 16 15 13 11 10 7 8 9 2 -4 -7 -6 -7 -9 -8 -10 -3 1 -3
22 19 26 30 27 25 20 19 20 15 9 11 14 12 11 5 4 14 19 20 18 17 19 18 19 18 16 16 17 16 16 16 16 15 16 15 14 12 4 -2 -1 4 6 -1 -7 -9 -7 -10 -11 -11 -12 -12 -10 -10
26 25 21 23 23 20 14 11 9 12 13 22 18 7 3 3 7 16 18 20 20 21 19 19 18 17 15 13 11 10 9 10 14 13 12 11 10 8 5 6 4 11 2 -0 -4 -2 -5 -3 -3 -4 -6 -11 -8 -8
24 23 17 14 11 14 19 14 14 20 24 23 11 7 8 14 14 16 18 19 19 17 14 14 14 12 11 9 6 6 6 4 -0 -4 -10 -10 -8 -3 4 5 7 4 -2 -2 2 5 2 -1 -0 -6 -9 -10 -3 -5
16 17 12 4 6 12 17 21 18 19 20 16 15 15 13 11 13 15 14 14 13 11 10 9 9 8 4 -0 -0 3 1 -0 1 -6 -11 -11 -7 -2 -5 -5 -4 0 2 0 -1 0 2 -9 -7 -9 -7 -7 -14 -15
20 13 10 10 13 15 22 25 19 19 9 5 7 4 4 7 7 12 13 11 13 10 8 5 2 -3 -1 -2 -7 -10 -7 -2 -2 -2 -5 -8 -11 -13 -12 -12 -12 -11 -7 -7 -8 -6 -6 -8 -9 -10 -9 -5 -7 -11
7 5 6 10 12 17 15 14 19 18 9 6 2 -3 1 -0 -2 5 9 5 7 5 5 2 -2 2 -4 -9 -11 -7 -1 -2 -1 -1 -2 -4 -5 -4 -9 -11 -15 -15 -16 -17 -17 -14 -14 -14 -12 -7 -4 -5 -9 -12
10 4 1 3 12 11 8 6 13 10 6 6 4 3 0 1 -1 4 10 7 4 -2 -3 -3 -2 0 2 -1 -4 -5 -4 -8 -9 -1 -1 1 -3 -3 -9 -12 -14 -14 -12 -15 -17 -18 -13 -13 -16 -16 -12 -9 -9 -13

GFSWCAN_sfc_temp_039.txt.gz
Temp
46 46 46 46 46 47 48 48 48 48 48 49 49 49 49 49 50 46 43 49 46 42 44 49 49 49 50 50 44 46 49 45 39 37 35 34 31 38 36 41 38 37 31 26 27 24 30 49 49 44 45 45 48 48
47 47 47 47 47 47 47 47 47 48 48 48 48 48 49 49 50 48 41 49 51 44 44 50 50 51 50 55 53 46 49 48 47 42 38 35 34 30 35 31 43 38 40 35 38 37 46 46 49 48 48 48 47 48
47 47 47 47 47 47 48 48 48 48 48 48 48 49 49 49 50 48 44 48 47 42 43 44 45 53 55 54 56 48 46 53 50 50 43 39 37 35 32 32 37 43 46 40 41 43 43 44 45 46 47 46 46 47
47 47 47 47 47 47 47 47 47 47 48 48 48 48 49 49 49 49 45 49 48 45 37 44 56 51 57 57 56 57 56 53 50 48 40 36 35 44 33 41 39 43 46 41 38 41 44 44 43 43 43 43 42 42
47 47 47 47 46 46 47 46 46 47 48 48 48 48 49 49 50 49 48 48 50 44 39 42 49 55 55 54 55 59 55 51 45 41 33 37 41 42 38 39 37 45 44 39 36 45 44 42 43 44 42 40 41 40
47 47 47 47 47 47 47 47 47 46 46 47 48 49 49 49 49 47 41 47 50 50 42 36 46 51 53 53 55 55 54 49 47 44 38 43 47 44 36 32 45 46 47 48 47 49 43 42 41 42 40 39 39 38
46 47 47 47 47 46 46 47 48 48 47 48 48 49 48 49 47 42 40 44 50 51 42 36 37 48 52 49 48 49 50 47 49 46 40 42 42 42 33 32 44 44 44 43 44 43 38 39 36 39 39 38 39 37
46 47 47 47 46 46 46 47 47 48 48 48 48 49 49 49 48 42 49 49 51 48 46 35 36 40 50 44 41 47 43 46 45 42 39 37 40 35 37 40 40 43 43 43 41 43 41 39 38 37 38 37 35 33
46 46 46 46 46 46 46 47 47 48 48 48 48 48 47 45 39 43 49 50 52 48 39 34 35 34 45 40 41 40 43 37 43 37 37 40 34 35 40 40 40 42 41 38 39 39 38 36 35 36 36 34 32 30
46 46 46 46 46 46 46 46 47 47 48 48 47 44 37 44 50 50 48 43 44 44 43 35 41 37 44 36 36 37 36 35 35 37 39 35 34 37 37 39 40 40 40 40 35 33 34 35 34 35 34 35 33 31
46 46 46 46 46 46 46 46 47 48 48 45 41 39 48 50 47 42 35 35 37 34 37 38 40 39 42 36 34 35 34 33 33 36 36 33 33 35 38 38 40 41 42 41 42 40 40 39 36 35 33 32 31 31
46 46 46 46 46 46 46 46 47 46 47 46 48 48 46 44 38 33 32 33 33 33 35 35 37 41 37 41 35 35 33 33 31 37 34 31 34 36 39 39 40 42 42 41 42 40 40 39 37 34 32 31 31 31
46 46 46 46 46 47 46 47 47 48 48 47 42 37 39 33 31 31 29 31 31 33 34 34 34 34 36 38 32 30 29 30 34 33 32 31 35 38 39 40 40 42 41 40 39 38 37 35 33 32 30 31 29 29
47 47 47 47 46 47 47 47 47 47 44 37 32 29 30 28 29 29 31 31 32 32 33 34 33 34 33 33 32 27 32 32 28 26 28 32 35 37 38 38 37 36 35 35 34 33 32 31 29 29 29 29 28 28
46 46 47 47 47 47 47 47 47 44 38 32 33 27 28 31 32 32 32 33 33 34 33 34 34 36 33 32 32 32 31 28 27 21 30 33 35 36 35 34 33 32 32 32 33 31 30 29 29 29 29 29 27 24
47 47 44 46 46 46 46 46 43 40 33 31 31 30 31 31 31 32 32 32 35 33 33 33 30 27 31 31 30 28 29 25 27 30 32 34 33 34 34 34 34 33 32 31 31 31 30 29 28 28 28 26 23 21
46 42 45 47 47 47 46 41 37 33 32 30 29 32 31 31 30 31 32 32 35 33 32 28 30 28 32 27 26 28 24 27 30 32 33 34 33 32 33 32 32 32 31 31 31 30 29 30 28 27 25 26 27 24
39 42 46 47 48 46 42 39 34 33 30 31 29 30 30 29 29 29 31 33 33 32 31 28 31 23 19 19 20 24 26 31 32 32 32 33 33 33 34 33 33 33 32 31 30 30 30 28 28 27 27 27 25 24
41 43 45 46 46 40 35 35 36 29 30 31 32 32 31 29 29 30 31 32 33 33 31 28 22 20 20 23 22 24 25 28 30 31 32 32 33 33 33 33 32 31 30 29 30 28 28 27 26 26 24 24 21 21
44 44 43 44 45 35 32 32 37 32 30 31 32 30 30 29 29 28 28 30 31 29 24 21 20 21 21 23 24 25 25 27 31 30 29 28 30 30 29 29 28 27 26 25 24 24 24 23 23 22 21 20 18 17
39 39 40 38 34 34 31 30 31 33 31 30 30 29 27 28 26 24 24 28 25 23 21 23 22 23 26 25 25 26 25 24 22 25 27 24 25 25 25 25 25 24 22 21 20 19 19 19 19 19 17 14 14 15
34 40 28 32 29 30 29 30 29 28 29 28 27 28 24 21 18 22 26 21 20 21 23 22 22 23 22 22 22 23 25 24 23 22 22 22 20 20 20 21 21 19 19 18 18 17 17 18 18 17 14 13 15 14
37 33 28 28 23 22 19 28 22 27 19 20 23 21 20 18 23 26 17 22 21 23 25 23 23 24 22 23 23 23 23 23 21 20 19 18 18 18 17 17 19 17 16 17 18 17 15 16 14 12 12 11 10 6
35 22 18 17 21 12 16 19 25 24 20 17 17 20 22 21 21 15 13 15 19 21 21 21 22 20 20 19 17 17 19 21 18 18 19 17 15 14 15 14 14 14 14 14 12 10 9 8 8 7 4 -0 -2 -3
22 19 17 13 16 15 10 9 12 16 9 10 11 18 22 18 10 8 9 13 14 14 15 18 17 17 14 14 15 16 19 17 14 13 14 18 15 14 13 12 11 12 12 8 4 3 3 1 -2 -4 -3 -10 -2 -6
16 21 20 19 17 15 11 12 10 13 10 12 15 19 15 6 3 4 14 12 11 13 11 13 12 14 14 15 13 13 13 16 15 11 11 13 12 9 7 5 5 7 6 -2 -6 -9 -8 -9 -12 -9 -12 -8 -6 -11
11 11 24 28 22 21 13 12 16 12 14 15 17 4 5 -2 -0 12 18 18 15 16 18 17 17 14 13 13 14 13 13 14 13 12 12 11 9 8 3 -3 -2 4 5 -2 -8 -8 -6 -8 -11 -10 -11 -17 -16 -15
18 18 11 12 13 16 5 4 7 12 10 18 13 1 -3 -3 4 14 15 19 18 18 17 15 14 12 9 8 8 8 10 10 9 8 6 7 6 5 3 6 7 9 3 -0 -3 -7 -12 -6 -5 -6 -10 -11 -8 -14
23 19 16 8 9 12 16 10 10 20 22 15 3 4 5 11 10 11 15 17 16 14 11 8 7 7 7 5 4 2 3 -1 -3 -8 -12 -14 -12 -5 -4 -7 -7 -7 -6 -4 -0 6 7 2 -3 -10 -10 -12 -8 -9
12 13 8 -0 6 12 14 12 6 7 15 10 12 12 11 8 11 14 13 12 9 6 3 1 -1 1 -6 -6 -6 -1 -2 -8 -7 -8 -12 -11 -8 -6 -15 -15 -15 -13 -13 -13 -11 -9 -2 -9 -7 -11 -13 -12 -15 -18
11 9 7 7 11 12 12 7 9 7 2 0 -2 -1 1 6 6 10 10 7 6 3 2 -3 -7 -13 -9 -10 -13 -13 -10 -3 -5 -4 -5 -8 -9 -10 -9 -11 -17 -18 -19 -20 -21 -19 -16 -17 -18 -17 -14 -12 -10 -11
5 -0 5 6 10 13 18 13 11 4 3 1 -1 -7 -1 -5 -5 3 5 1 -1 -5 -4 -9 -8 -4 -7 -10 -13 -11 -6 -8 -10 -12 -11 -13 -11 -12 -13 -13 -17 -18 -18 -19 -21 -20 -19 -19 -19 -21 -21 -18 -14 -12
1 -3 -3 1 7 7 4 5 11 6 4 1 -0 -1 -3 -4 -6 -0 4 -2 -4 -8 -9 -11 -12 -10 -4 -6 -8 -12 -10 -14 -15 -5 -4 -2 -5 -8 -14 -17 -19 -19 -17 -19 -20 -19 -19 -19 -21 -23 -18 -14 -12 -11

GFSWCAN_sfc_temp_042.txt.gz
Temp
49 48 49 49 49 49 48 48 48 48 49 49 49 50 50 50 50 45 43 46 41 41 43 48 47 45 47 48 39 43 45 45 38 37 36 34 30 37 36 40 38 37 32 27 26 24 30 48 47 43 45 43 46 46
46 46 46 47 47 47 47 47 48 48 49 49 49 50 50 49 50 47 40 46 47 41 43 47 47 49 48 50 49 45 45 45 47 40 36 34 32 29 36 33 42 38 41 36 38 38 46 46 47 48 47 46 46 47
46 46 46 46 46 47 47 47 47 47 47 48 49 49 49 49 50 48 42 44 42 39 41 43 43 49 52 51 53 46 44 50 47 48 41 38 34 36 33 35 38 41 44 39 41 44 44 44 44 45 45 45 46 45
47 47 47 47 47 47 47 47 47 47 48 48 48 48 48 49 49 49 41 45 43 43 34 39 53 49 54 53 52 52 53 50 49 46 39 35 35 42 34 42 40 42 44 40 39 41 41 44 43 42 41 42 42 41
47 46 47 47 47 47 47 47 47 47 47 48 48 48 48 49 49 47 45 45 47 42 36 39 48 51 55 52 51 52 53 48 44 40 34 36 40 40 36 39 37 44 42 39 40 46 46 45 41 42 41 39 40 39
46 46 46 46 46 46 46 47 47 47 47 48 48 48 48 48 49 45 38 46 48 48 40 34 46 46 51 53 52 49 52 47 45 42 36 42 47 44 36 35 47 47 47 47 48 47 41 41 40 41 39 38 38 38
46 47 47 47 46 46 46 46 47 47 47 47 47 48 48 48 45 41 39 44 50 50 41 34 34 47 51 51 48 48 47 45 45 42 37 41 41 44 32 35 45 43 45 44 43 43 38 41 37 38 38 37 38 36
47 47 47 46 46 47 46 46 47 47 48 48 48 48 48 49 48 41 45 48 50 45 43 33 35 39 48 44 43 46 42 42 43 39 37 37 40 34 36 41 40 41 42 41 40 41 42 38 38 36 36 36 34 32
46 46 46 46 46 47 47 47 47 47 47 48 48 48 46 45 40 41 48 48 50 45 34 32 33 34 45 40 42 41 40 35 42 34 37 39 33 36 38 38 39 40 41 36 38 38 38 35 34 34 34 33 32 32
46 46 45 46 46 46 47 47 48 48 48 48 46 43 36 39 48 48 44 41 42 44 43 35 40 37 41 35 36 36 36 35 35 37 40 34 35 38 38 40 40 39 39 39 34 32 33 32 32 33 34 35 34 33
46 46 46 46 46 46 46 47 47 48 48 41 39 37 43 49 45 41 34 34 36 34 36 38 39 39 43 35 34 34 33 34 33 36 34 32 33 36 38 39 41 40 41 40 40 39 39 36 34 32 32 32 32 32
46 46 46 46 46 46 46 47 48 45 41 42 46 48 45 41 36 33 32 32 32 33 35 35 36 41 37 42 36 35 33 32 32 37 34 32 33 36 37 37 39 40 40 39 40 38 38 37 36 33 31 30 31 30
46 46 46 46 46 47 47 47 47 47 47 46 41 36 37 32 31 30 28 30 31 32 34 34 34 35 36 38 33 32 32 31 34 33 31 31 35 37 38 39 39 41 40 39 38 37 35 33 32 31 30 30 30 29
46 46 47 46 46 46 46 46 46 46 43 35 32 28 26 24 29 29 30 31 32 32 33 33 33 34 33 33 32 32 32 33 29 27 27 31 34 34 36 38 37 35 34 34 33 32 31 30 30 30 29 29 29 28
46 46 46 46 46 46 46 46 45 43 36 32 32 26 27 31 32 32 32 32 33 34 33 33 34 36 33 32 32 32 30 27 27 26 29 32 33 34 33 33 33 32 31 31 31 29 28 29 29 28 29 29 27 25
47 46 45 46 46 46 45 44 42 40 34 32 31 29 31 30 29 30 31 31 34 33 33 34 31 31 31 31 28 25 27 22 25 29 32 32 32 32 32 32 32 32 31 30 30 29 29 28 28 27 27 25 23 22
46 41 45 45 45 45 45 41 38 33 30 30 29 29 28 29 27 28 29 30 34 34 31 31 23 23 29 24 21 23 21 25 27 31 32 32 32 31 32 31 31 31 30 30 30 30 29 29 27 27 24 25 26 23
39 42 45 46 46 44 41 39 33 33 29 30 26 27 27 26 25 25 28 31 32 32 28 25 29 20 16 16 17 21 23 25 31 31 31 32 32 32 33 32 32 31 30 29 29 28 27 26 26 26 26 25 24 24
41 42 46 47 45 39 34 34 34 27 27 29 28 30 27 27 29 29 29 30 31 32 29 25 19 17 17 20 19 21 22 23 27 29 27 29 31 32 32 31 31 30 29 28 27 26 25 26 25 25 25 24 21 20
44 43 44 45 44 36 33 32 36 31 29 28 29 26 25 25 26 26 27 29 29 27 21 18 17 19 19 20 21 22 22 24 26 26 23 24 26 26 25 26 25 25 24 24 24 23 22 21 21 21 21 20 19 17
39 38 40 38 34 34 31 30 31 32 31 29 29 27 25 25 23 21 21 26 22 20 18 20 20 21 23 23 23 24 22 23 20 22 22 20 22 23 23 23 23 22 20 19 18 18 18 18 18 18 16 15 16 16
33 39 29 33 29 29 28 29 28 27 28 26 25 26 20 15 14 19 23 17 17 19 21 20 20 21 21 20 21 22 23 22 21 20 19 19 17 17 17 19 18 17 17 16 16 15 15 16 16 15 14 14 15 13
36 32 26 27 22 21 19 27 21 26 18 17 20 19 17 18 20 24 12 18 18 21 21 22 21 22 20 21 21 21 22 21 18 17 16 15 15 15 14 14 15 14 13 13 15 13 12 13 11 10 10 10 9 6
34 21 16 15 19 10 14 14 23 21 17 14 15 15 19 17 17 12 10 12 17 19 19 19 20 18 18 17 15 15 17 18 16 16 17 15 12 11 12 11 11 11 11 11 10 7 7 5 5 4 1 -2 -2 -5
22 18 16 11 13 13 7 7 11 14 6 8 12 16 18 15 6 5 7 12 14 12 13 16 16 15 12 12 13 14 16 15 12 10 11 14 12 11 10 9 9 9 10 5 0 -2 -5 -7 -9 -11 -9 -15 -5 -9
16 19 18 8 11 13 8 7 14 6 7 10 10 16 10 4 0 3 12 11 9 13 10 11 13 12 12 12 10 10 11 13 12 8 8 9 8 4 2 1 1 5 5 -7 -9 -10 -8 -10 -13 -10 -13 -9 -11 -17
11 9 21 25 20 18 10 9 13 9 13 15 9 -1 0 -6 -3 10 16 16 14 14 14 13 13 11 10 11 12 11 11 11 9 8 9 8 7 7 2 -3 -2 3 6 1 -4 -7 -7 -9 -11 -12 -14 -18 -19 -17
12 16 9 9 10 13 1 4 9 7 11 17 7 -2 -8 -5 2 11 14 17 15 15 13 11 10 8 6 6 7 7 6 4 6 4 3 3 2 -1 -3 -4 -4 3 -7 -8 -6 -8 -9 -8 -5 -7 -10 -11 -10 -13
12 11 13 4 6 10 12 6 12 18 17 10 -4 -0 2 9 7 8 13 14 14 12 8 7 5 3 3 2 -0 -0 -1 -6 -6 -10 -15 -15 -13 -6 -5 -13 -16 -14 -16 -13 -5 1 3 1 -2 -7 -8 -9 -8 -10
10 11 6 2 6 13 9 8 4 -1 11 7 10 10 8 6 9 12 11 9 6 0 -8 -10 -10 -6 -11 -10 -10 -5 -6 -13 -13 -11 -15 -15 -10 -7 -12 -16 -17 -17 -20 -22 -22 -16 -7 -16 -12 -17 -17 -16 -18 -18
8 7 5 6 7 8 7 -2 -3 -0 -4 -3 -7 -6 -2 1 4 7 6 1 -1 -7 -6 -9 -9 -16 -12 -13 -16 -16 -12 -11 -13 -10 -11 -14 -14 -16 -16 -17 -18 -21 -23 -23 -23 -23 -22 -24 -25 -25 -23 -19 -18 -17
3 -2 3 3 11 9 8 7 -1 -0 -4 -7 -3 -12 -8 -9 -9 -1 -0 -3 -8 -9 -9 -14 -12 -8 -11 -12 -16 -17 -11 -15 -15 -15 -13 -14 -16 -18 -18 -18 -23 -23 -22 -23 -25 -24 -23 -22 -25 -27 -27 -25 -21 -21
-4 -7 -6 -0 6 7 5 7 6 3 -1 -2 -4 -6 -9 -8 -9 -3 -0 -8 -8 -11 -11 -14 -14 -14 -9 -12 -14 -17 -15 -18 -18 -8 -6 -5 -10 -11 -18 -22 -24 -24 -22 -23 -25 -26 -23 -22 -24 -25 -25 -26 -24 -24

GFSWCAN_sfc_temp_045.txt.gz
Temp
48 49 48 48 48 49 49 49 50 49 49 48 49 49 50 51 51 49 42 46 42 39 42 45 46 46 48 48 41 44 45 45 41 37 37 37 35 42 41 44 41 41 37 35 35 34 37 52 51 48 54 53 53 53
47 48 49 49 49 49 49 49 49 48 48 48 48 49 50 50 51 48 41 45 46 39 40 46 48 50 49 56 49 49 47 46 47 42 39 38 36 35 41 39 45 41 45 43 45 45 53 53 57 56 54 55 52 53
46 46 46 48 48 49 48 48 47 47 48 48 48 49 49 49 49 47 42 43 41 36 39 43 43 50 51 50 57 45 46 51 48 50 43 42 37 40 34 37 41 45 47 45 47 51 51 52 53 52 54 54 53 55
47 46 46 46 46 47 47 47 47 47 47 48 48 48 48 49 49 47 42 43 43 40 33 40 51 48 54 53 52 54 54 52 51 48 41 38 38 45 39 46 43 47 47 44 45 48 47 51 50 52 49 48 48 49
46 46 46 46 46 46 46 46 47 47 47 47 48 48 49 49 49 45 44 45 46 40 34 37 48 50 53 52 50 52 52 50 47 43 37 40 43 42 39 42 40 48 46 43 44 53 53 56 55 48 46 46 47 45
46 46 46 46 46 46 46 46 46 46 47 47 48 48 49 49 47 43 37 46 48 47 37 32 45 46 50 51 51 50 50 49 48 45 41 45 48 45 37 39 49 50 50 50 52 50 45 43 44 47 45 44 44 44
47 46 46 46 46 46 46 47 47 47 47 47 48 48 48 48 44 40 37 43 47 45 38 33 35 45 50 51 49 49 51 48 48 45 41 44 45 46 36 39 50 47 48 47 45 46 44 43 43 42 42 41 41 41
46 46 47 46 46 46 46 46 47 47 47 48 48 48 48 48 47 42 45 47 47 42 42 34 34 38 49 43 43 47 45 46 45 44 41 41 41 38 38 46 45 44 45 44 42 44 44 41 40 38 39 39 37 36
46 46 46 46 46 46 46 47 47 47 47 48 48 48 45 43 39 41 48 49 49 43 34 32 32 34 45 40 41 41 43 37 43 38 40 42 36 38 43 43 42 42 43 39 39 40 41 39 37 37 37 37 34 34
45 45 45 46 46 46 47 47 47 47 48 47 45 40 34 39 48 48 44 41 40 41 41 34 40 37 43 36 37 34 37 36 36 38 41 36 37 39 39 41 43 41 40 40 35 34 34 34 35 35 35 36 36 35
46 46 46 46 46 47 47 47 47 47 48 42 36 34 41 48 43 41 34 34 36 33 37 38 39 39 43 37 34 35 34 33 33 35 37 35 35 37 39 40 41 41 42 42 42 40 39 37 36 34 34 34 34 34
46 46 46 46 46 47 47 47 48 45 43 43 44 45 45 41 36 33 31 32 32 33 35 35 38 41 38 43 36 34 33 33 32 37 34 32 33 37 38 38 39 40 40 39 39 37 37 36 36 34 33 33 32 30
46 46 46 46 46 46 48 47 46 46 47 45 40 36 37 33 30 29 28 31 31 32 34 34 34 35 37 38 33 34 32 32 34 32 30 30 34 35 37 39 38 39 38 37 36 36 35 34 34 33 30 30 30 29
46 46 46 46 46 46 46 45 45 45 41 34 32 26 29 27 29 29 30 31 33 32 32 33 33 34 33 33 32 33 32 33 30 27 27 31 32 32 35 36 35 33 33 33 32 32 31 31 30 30 30 30 28 27
46 46 46 46 46 46 46 45 44 41 35 32 31 26 28 31 31 32 32 32 32 34 33 34 34 36 32 32 32 32 31 26 26 25 28 31 33 33 33 33 32 31 30 30 30 29 28 28 28 28 29 30 28 26
46 45 43 46 46 46 45 45 42 40 34 31 27 25 28 27 25 27 27 29 33 32 34 34 32 32 29 29 26 22 25 21 23 26 28 32 32 32 31 31 31 31 30 30 30 29 28 27 27 27 27 26 24 24
45 41 45 45 45 45 45 40 38 33 31 30 25 26 25 25 24 25 27 28 32 33 28 30 22 21 28 22 19 22 18 21 24 25 31 32 32 31 32 31 31 31 30 30 29 28 27 28 28 27 25 25 26 24
40 44 46 46 46 43 40 38 34 32 27 27 24 24 25 24 23 25 27 29 31 30 29 24 28 19 16 16 16 19 21 23 26 26 25 29 32 32 32 31 30 30 29 28 28 28 28 27 25 24 24 24 25 25
44 45 45 45 44 39 34 34 34 25 24 27 27 28 26 25 27 27 28 30 31 31 28 24 17 15 16 18 17 19 20 21 22 24 24 25 26 27 27 27 27 26 26 26 25 24 24 25 25 24 24 24 22 22
45 45 44 44 43 35 33 32 36 30 26 27 27 25 24 23 24 23 25 27 27 24 18 16 16 17 18 19 20 21 21 22 26 22 20 21 24 23 23 23 23 23 23 22 22 22 22 20 21 21 22 22 20 18
40 39 43 41 35 34 30 30 31 31 31 29 30 27 23 24 21 19 19 25 20 18 16 18 19 20 22 22 23 23 21 20 18 20 19 18 20 21 20 20 21 20 19 18 18 17 17 16 18 18 18 17 18 18
35 40 31 34 30 30 28 29 28 28 27 26 24 26 21 15 12 17 22 16 15 17 20 19 20 20 19 19 20 21 21 20 19 18 17 17 14 15 15 16 16 14 15 15 15 13 13 14 15 15 14 14 15 14
36 32 26 26 22 21 19 28 22 25 18 18 21 19 16 16 19 23 12 17 16 19 20 21 20 21 19 19 19 19 20 19 17 16 15 14 14 14 13 12 13 13 11 12 13 12 10 10 10 9 10 10 10 9
34 20 15 14 18 10 14 14 23 21 17 16 16 13 18 15 17 12 9 12 16 18 18 18 19 17 17 16 14 14 16 17 14 13 15 13 10 10 11 10 10 10 10 11 9 7 6 5 3 5 3 4 3 4
21 18 17 11 13 14 8 9 11 15 7 10 13 14 12 15 7 6 7 12 13 12 13 16 16 15 12 12 12 12 14 14 11 9 10 12 11 11 10 10 9 9 10 7 4 4 3 2 2 3 3 1 2 1
11 14 14 7 10 14 8 11 12 7 9 12 10 13 8 5 2 4 11 11 11 13 11 11 13 12 11 12 10 10 11 14 12 8 8 9 8 7 5 4 5 5 7 3 4 3 3 2 1 1 2 2 -4 -3
9 6 16 22 19 16 9 8 12 9 12 13 7 1 0 -6 -3 10 15 15 13 12 12 10 12 12 11 11 11 10 10 10 9 8 8 8 7 7 4 2 1 3 5 3 2 1 1 0 -0 0 -0 0 -0 -3
10 15 7 7 10 12 3 6 12 8 12 15 5 -3 -9 -5 3 10 14 14 13 13 11 10 9 8 8 7 8 7 7 6 6 6 6 6 4 3 0 -1 -1 1 -2 -3 -0 -0 1 1 0 0 -0 -1 -2 -1
8 9 11 2 5 8 10 5 11 14 14 7 -3 -2 2 8 7 9 12 14 14 12 7 5 4 3 3 3 0 1 1 2 3 -3 -5 -4 -3 1 -0 -3 -3 -3 -6 -4 -3 3 5 2 1 -2 -4 -5 -5 -7
8 10 6 2 4 5 1 5 -0 -1 8 7 10 9 7 6 9 12 10 9 7 2 -2 -3 -5 -1 -3 -1 -2 -1 -2 -5 -2 -2 -4 -4 -2 -1 -4 -4 -4 -4 -8 -7 -6 -4 -4 -6 -3 -5 -8 -8 -8 -8
8 6 5 6 7 5 2 -4 -8 -2 -3 -2 -6 -4 -0 3 6 7 6 2 -1 -6 -1 -2 -4 -8 -3 -5 -4 -6 -4 -3 -11 -6 -5 -5 -5 -5 -4 -6 -6 -9 -10 -9 -9 -9 -9 -8 -9 -10 -9 -10 -12 -12
2 -1 3 3 8 5 2 4 -6 -3 -7 -5 -5 -11 -7 -6 -8 -1 0 -1 -2 -4 -7 -9 -7 -3 -5 -6 -11 -9 -11 -6 -5 -6 -7 -5 -3 -4 -6 -7 -10 -10 -9 -10 -11 -11 -11 -10 -10 -11 -11 -12 -13 -13
-5 -8 -4 2 5 5 5 5 4 1 -2 -4 -4 -7 -11 -6 -6 -2 0 -7 -2 -3 -5 -6 -6 -8 -9 -10 -6 -7 -11 -8 -11 -6 -5 -4 -8 -5 -6 -8 -9 -10 -9 -9 -10 -11 -10 -11 -10 -11 -11 -14 -14 -14

GFSWCAN_sfc_temp_048.txt.gz
Temp
48 49 48 49 48 48 49 48 48 49 49 49 50 50 49 49 50 50 47 53 51 46 46 51 55 51 52 51 48 54 51 50 48 43 44 45 43 49 50 53 48 46 44 41 48 40 40 63 61 58 67 65 69 67
47 48 48 48 48 48 49 49 49 49 49 49 49 49 49 49 51 51 42 51 54 49 39 47 50 53 51 62 58 56 55 54 55 49 49 51 42 42 51 44 57 47 55 53 53 54 66 64 69 70 71 71 66 68
47 47 48 48 48 48 48 49 49 49 49 49 49 49 49 49 51 49 44 49 49 46 48 42 41 54 56 57 65 54 59 61 57 62 54 51 44 51 42 49 53 55 56 51 52 64 64 65 69 67 68 68 68 69
46 47 47 48 48 48 48 48 48 48 49 48 48 48 49 49 49 49 46 52 53 46 38 43 50 50 58 58 60 62 63 62 61 58 53 46 45 56 51 56 51 60 54 55 57 63 58 62 66 69 64 62 62 66
46 46 46 47 47 47 47 47 47 47 47 48 48 48 48 48 49 50 51 53 56 50 37 40 49 50 49 54 58 60 59 60 56 51 43 46 56 52 50 50 52 58 57 52 53 65 61 69 71 68 63 60 62 62
46 46 46 46 47 47 47 46 47 47 48 48 48 48 48 49 50 47 39 48 55 54 42 33 49 50 51 50 54 57 58 58 57 55 51 57 57 54 44 48 60 62 63 64 62 58 58 55 57 64 63 61 61 60
46 46 46 46 46 46 47 46 47 47 47 47 47 47 49 49 53 47 44 49 51 53 43 34 39 48 51 50 53 53 57 55 55 53 51 54 53 53 45 45 59 62 63 60 55 53 54 52 54 52 55 55 53 57
46 46 46 46 46 46 46 46 46 47 47 47 48 48 49 49 50 48 50 49 53 50 47 34 36 42 55 49 43 50 46 50 53 52 52 51 52 49 45 57 61 58 55 53 53 51 52 51 50 49 48 50 49 49
46 46 46 46 46 46 46 46 47 48 48 48 48 48 49 48 45 42 48 49 54 49 36 33 34 36 50 46 45 42 47 38 49 44 48 52 48 43 52 55 57 54 52 53 48 49 48 48 47 44 46 46 45 42
46 46 46 46 46 46 46 47 47 47 48 48 47 40 36 44 47 46 42 40 41 42 41 35 40 36 44 38 40 41 38 37 35 42 49 42 46 48 46 48 50 50 50 49 45 43 44 43 44 43 43 44 42 41
46 46 46 46 46 46 46 47 47 48 48 47 40 38 48 48 45 42 36 35 36 32 38 43 44 39 45 38 38 42 38 35 33 37 41 37 36 36 41 45 47 45 47 50 52 51 49 48 44 42 39 40 39 37
46 46 46 46 47 47 47 47 48 49 48 45 44 50 49 46 42 35 33 34 33 34 37 38 40 41 41 46 39 36 36 34 32 37 36 32 34 36 38 39 42 46 47 46 48 47 45 45 44 40 38 35 34 32
46 46 47 47 47 47 47 47 46 46 45 45 43 37 39 35 30 31 29 33 33 33 35 36 35 40 40 40 35 36 35 34 35 32 30 30 33 35 34 35 35 36 37 37 38 38 37 36 36 34 31 31 31 30
46 46 46 47 46 45 45 45 45 44 43 37 34 29 32 30 32 32 31 33 33 32 33 35 34 35 34 34 34 34 33 35 31 29 28 31 31 33 34 34 33 32 32 32 31 31 31 30 30 30 30 31 30 30
46 46 46 46 46 45 45 45 44 47 41 33 35 28 29 31 31 31 31 34 34 33 33 33 35 37 33 34 33 35 31 27 28 25 28 31 30 33 33 32 31 30 30 30 30 30 30 31 31 30 30 30 29 28
46 47 46 46 46 46 45 45 44 43 38 33 28 25 28 28 26 27 28 28 32 32 32 35 35 32 29 30 28 24 27 21 24 26 30 31 33 33 33 32 31 31 31 31 31 30 30 28 28 27 28 27 27 27
46 44 45 45 45 45 45 42 40 35 32 29 25 26 24 25 23 25 26 28 31 33 30 33 25 23 32 26 22 24 20 23 25 28 27 29 31 32 32 31 31 31 30 30 29 29 29 31 32 31 28 28 27 26
42 45 46 46 48 46 43 41 35 31 25 26 23 24 24 24 23 25 27 30 34 34 32 26 31 22 20 19 19 21 23 25 28 26 25 27 28 29 30 29 30 30 30 29 29 29 29 27 27 26 26 26 26 27
44 44 45 45 45 42 36 37 38 25 25 27 27 28 27 26 29 30 32 33 34 35 32 28 21 18 18 21 20 22 23 24 26 24 24 25 25 26 26 26 26 26 26 26 26 26 26 27 27 27 27 26 24 25
44 44 44 44 45 40 35 35 42 33 28 30 32 28 27 26 28 28 29 32 31 28 22 19 18 19 20 22 24 22 23 26 28 24 22 23 24 23 23 24 24 24 24 23 23 24 24 23 24 24 24 24 23 22
42 40 43 43 39 38 35 36 33 33 34 32 34 32 29 30 25 23 24 30 24 21 18 21 21 22 24 24 25 24 22 23 22 23 22 20 22 23 22 23 23 23 22 21 20 19 19 19 21 21 21 20 21 21
38 42 41 40 38 36 35 36 36 37 35 33 32 32 26 23 22 22 27 21 18 19 22 22 22 23 22 21 22 24 23 23 22 21 20 21 18 18 19 20 20 19 18 18 18 17 17 17 19 19 18 18 19 17
41 40 35 35 31 32 29 38 31 32 28 28 32 26 24 23 24 29 18 20 19 22 24 23 22 23 21 22 23 22 24 24 22 21 20 19 19 19 18 18 19 17 16 16 18 16 14 14 15 15 16 16 17 16
38 29 26 26 30 24 29 27 32 30 29 27 26 21 21 23 26 21 14 17 19 22 22 22 24 22 22 21 19 19 21 23 21 20 21 20 18 17 18 17 17 17 17 17 16 14 14 13 12 14 13 13 12 12
27 23 28 23 28 25 22 22 23 26 22 24 22 20 20 25 17 15 13 17 18 18 19 21 21 21 19 19 19 18 19 21 19 16 17 19 19 19 17 16 14 14 15 14 13 13 12 12 12 12 12 10 8 9
18 21 22 23 23 23 22 18 19 19 21 19 18 20 22 18 13 11 16 18 18 18 17 18 19 18 17 19 18 17 17 20 20 15 14 16 15 15 13 12 13 11 13 12 11 10 10 10 9 8 9 9 6 7
18 19 24 27 26 24 21 22 23 21 17 16 18 15 16 9 9 14 19 20 18 17 19 19 21 19 17 16 17 17 17 17 15 14 14 13 13 13 12 9 6 8 11 9 9 9 8 8 8 7 7 9 9 7
23 23 16 17 20 22 16 18 17 16 17 19 18 8 8 8 10 16 18 18 18 18 17 17 17 18 17 16 16 16 14 13 12 13 13 13 12 11 9 10 8 6 8 7 8 9 9 8 7 6 5 4 5 6
19 21 21 10 16 16 15 16 17 17 17 18 12 10 9 13 14 17 18 19 20 19 16 14 12 14 13 13 12 13 14 14 10 6 5 7 9 8 9 9 9 8 8 7 7 7 8 7 6 4 3 3 4 5
18 21 18 13 11 12 12 14 14 14 15 16 16 13 13 13 14 18 18 18 17 14 13 13 12 15 12 13 10 9 9 9 8 8 7 6 6 7 7 7 7 6 6 6 5 6 5 5 5 6 4 3 3 2
19 23 18 18 14 15 15 14 15 14 13 13 13 12 10 12 13 14 13 13 12 11 13 11 10 11 11 10 11 10 8 8 3 4 5 7 7 8 7 5 6 5 5 4 3 3 2 3 4 2 1 -0 -1 -1
16 15 16 13 13 15 14 17 16 14 13 13 10 10 9 11 8 11 12 13 13 13 6 9 11 11 9 8 6 7 -3 6 7 5 2 6 8 7 7 6 5 4 4 3 3 2 1 0 1 0 -0 -1 -2 -3
14 16 17 15 13 12 16 16 15 12 12 11 10 10 10 11 7 11 10 10 13 13 12 11 11 10 7 6 7 6 2 7 0 -0 -0 1 -1 2 3 6 4 4 2 2 3 1 -0 -1 -0 -1 -1 -3 -3 -4

GFSWCAN_sfc_temp_051.txt.gz
Temp
48 48 49 49 49 48 49 48 48 49 49 49 49 49 50 50 50 48 47 54 50 47 51 52 54 51 53 54 48 53 53 51 49 43 45 47 46 51 52 56 48 45 45 42 47 44 41 68 68 60 68 74 75 75
47 48 49 49 48 48 48 48 48 48 48 48 48 49 50 50 50 51 45 52 56 48 43 52 55 59 56 62 59 59 52 54 56 52 53 53 47 47 52 45 61 47 53 50 54 55 67 67 69 74 78 76 75 75
47 48 49 49 49 49 48 48 48 48 48 49 49 50 50 49 49 49 49 52 50 43 47 50 51 56 58 61 67 54 58 63 61 65 59 54 46 55 44 50 55 60 64 57 56 63 67 70 71 75 76 75 77 77
47 47 48 48 49 48 48 48 48 48 48 49 49 50 50 49 49 51 51 54 52 47 39 45 58 55 60 59 60 61 59 66 65 64 55 50 48 62 51 56 55 61 63 58 58 63 68 71 70 70 74 74 74 73
46 47 47 47 47 48 48 48 48 49 49 49 49 48 48 49 51 52 51 53 56 52 43 47 53 58 59 54 56 58 59 57 60 55 49 48 58 58 58 56 54 63 59 52 53 66 63 66 72 72 73 72 70 70
46 47 47 47 47 47 47 48 48 48 49 48 48 48 49 50 50 48 39 49 58 58 49 42 50 54 58 55 51 54 57 58 61 56 53 59 64 58 48 49 62 65 67 67 64 69 65 65 63 64 69 73 72 69
46 47 47 46 47 47 47 47 47 47 47 47 47 48 49 50 51 45 45 54 55 62 51 40 40 52 56 53 49 52 56 57 57 56 53 56 59 58 50 46 60 65 66 67 70 61 59 61 62 60 65 70 62 68
46 46 46 46 47 47 47 47 47 47 47 48 48 48 49 48 49 49 54 52 58 56 53 35 36 40 50 41 39 53 50 53 54 52 56 53 57 54 47 58 61 64 64 63 62 60 58 57 57 57 59 58 59 60
46 46 46 46 46 46 47 47 47 47 47 48 49 50 51 50 47 46 49 50 59 54 40 36 33 34 45 40 43 44 50 43 55 48 50 54 50 45 50 54 53 53 56 55 57 55 56 53 56 54 54 54 54 53
46 46 46 46 46 46 46 46 47 48 48 49 51 47 42 47 47 50 47 42 44 48 43 36 44 38 43 44 41 40 40 41 37 46 54 45 48 43 39 44 51 51 53 54 51 51 53 52 52 52 52 53 52 51
46 46 46 46 47 47 47 47 47 48 49 53 47 40 47 48 46 40 34 35 36 34 40 44 46 42 48 40 38 44 35 38 36 39 44 42 38 34 37 38 45 49 52 53 53 54 55 54 53 50 48 47 46 44
47 46 46 46 47 47 47 47 48 52 49 47 50 52 48 41 38 35 34 37 37 38 40 41 46 51 47 45 37 40 37 36 33 37 35 29 32 36 35 35 36 40 43 43 47 47 48 49 49 46 42 38 36 33
47 47 47 47 47 47 47 47 47 47 50 53 49 43 40 37 31 31 29 33 34 35 35 38 39 44 44 41 35 36 34 33 34 32 30 31 34 36 35 35 34 35 35 35 34 34 34 33 34 33 31 32 32 30
46 46 45 46 46 46 46 47 47 49 43 37 35 31 32 30 29 29 29 32 33 33 34 34 36 37 35 33 32 33 33 35 32 30 27 30 31 33 34 34 33 31 31 31 31 31 30 30 30 31 31 31 31 30
46 46 46 45 45 45 45 46 45 48 41 34 37 27 29 31 32 32 33 33 33 33 33 34 34 35 34 32 33 34 31 27 27 25 28 30 31 33 33 33 32 32 31 32 32 31 30 30 30 29 30 30 29 28
47 48 48 46 45 45 45 46 49 48 41 34 29 27 29 30 27 28 29 30 35 34 33 34 33 31 29 31 28 26 27 22 24 28 29 31 32 32 32 32 32 32 31 31 31 30 29 29 29 29 29 28 27 27
48 47 45 45 46 46 46 45 43 35 33 29 26 27 27 26 25 26 27 29 33 33 31 32 27 25 32 26 23 26 22 25 27 27 29 29 29 30 31 31 31 31 31 31 31 30 30 30 29 29 26 26 27 26
47 47 46 46 48 48 47 45 37 33 25 26 25 25 26 26 25 27 28 29 32 31 29 26 31 22 21 20 20 24 27 29 28 27 26 27 28 28 29 28 29 29 29 29 29 29 29 28 27 27 27 27 27 26
47 47 45 45 47 46 40 38 39 26 25 28 27 28 28 27 28 30 31 33 35 36 33 29 22 20 20 23 23 25 27 29 26 26 26 25 26 27 27 27 26 26 26 27 27 26 27 27 28 29 29 29 27 28
43 43 43 45 47 44 35 35 43 34 29 31 33 30 30 28 30 30 31 34 33 30 23 20 19 21 22 23 25 25 26 30 29 25 23 25 26 25 25 26 27 27 26 26 25 26 26 25 26 26 26 26 24 23
43 43 45 47 44 42 39 38 37 37 36 33 36 35 31 33 29 27 27 31 26 23 20 22 22 23 26 26 27 27 25 27 25 25 24 23 25 26 26 26 26 25 24 23 22 21 21 21 22 24 22 22 21 22
45 43 45 43 39 40 38 41 39 41 39 36 35 36 30 27 26 26 30 23 21 22 24 24 25 25 24 24 26 27 26 26 25 25 24 25 22 22 23 24 23 20 21 20 20 19 19 19 22 22 21 22 22 19
43 45 41 40 34 34 30 44 32 36 30 31 35 29 27 27 28 33 22 23 22 26 27 26 25 26 25 26 27 27 28 28 26 26 25 25 25 24 23 23 23 21 20 21 22 21 18 18 18 19 20 20 20 19
42 33 30 31 33 27 33 30 37 34 33 31 28 23 24 27 31 25 18 20 22 26 25 26 28 26 26 25 23 24 26 27 25 25 26 25 22 21 22 21 21 21 22 22 21 19 18 18 17 18 17 16 15 15
31 25 30 27 33 30 27 27 27 29 25 28 24 23 24 30 22 20 18 20 21 21 23 25 26 26 23 23 23 23 25 26 23 20 22 25 24 24 22 21 18 18 19 18 16 17 16 16 15 15 15 13 11 12
22 25 26 27 28 28 27 24 24 24 25 23 22 26 27 24 18 16 19 21 20 21 21 22 23 22 22 24 22 20 21 25 25 19 18 20 19 19 17 16 16 14 17 16 14 14 14 13 13 12 12 13 11 11
23 24 28 33 32 30 27 28 29 26 22 21 23 22 22 15 14 16 21 24 21 22 23 24 25 23 22 21 21 21 21 20 18 18 19 18 17 17 15 12 9 11 15 14 13 13 12 11 11 11 11 12 11 10
26 27 20 24 25 28 22 23 22 21 22 25 25 14 14 15 15 20 21 22 23 23 22 22 23 23 22 21 21 21 20 18 17 18 19 18 17 15 14 14 12 10 12 11 11 12 12 11 10 10 9 8 8 10
25 27 25 16 21 20 19 21 21 21 22 25 20 16 14 17 20 20 21 22 23 23 20 18 18 19 19 19 18 18 18 18 15 10 9 12 14 12 14 13 13 13 13 12 11 10 10 10 9 8 7 8 9 10
23 29 22 18 16 16 17 21 18 19 22 21 20 18 16 16 18 23 22 22 21 19 19 19 19 20 18 18 15 14 14 14 12 12 11 10 10 12 12 12 11 11 11 11 10 11 9 10 10 11 9 8 9 6
28 28 23 21 17 18 19 20 21 21 20 19 20 18 15 15 17 19 20 19 19 18 17 16 16 18 16 16 16 14 12 12 8 9 10 12 12 13 11 10 11 10 11 9 8 8 7 7 9 8 7 5 4 4
24 23 20 16 16 19 22 22 22 20 20 19 16 17 16 17 14 15 18 19 18 17 11 17 16 15 15 14 13 11 6 12 12 10 7 11 12 11 11 11 11 10 9 7 8 7 7 5 6 6 5 5 4 2
23 23 22 20 17 17 20 22 20 17 19 18 16 17 16 17 13 16 17 19 18 18 17 17 17 15 12 11 13 11 9 12 6 4 3 4 2 5 7 10 10 9 7 7 7 7 6 5 4 4 3 3 2 2

GFSWCAN_sfc_temp_057.txt.gz
Temp
48 48 48 48 48 48 49 49 49 49 49 50 50 50 49 50 50 48 45 48 43 37 42 48 49 41 46 46 40 43 43 44 41 34 34 32 29 40 41 45 40 36 33 31 34 30 30 55 58 51 53 60 62 63
48 47 47 48 48 48 49 49 49 48 49 49 49 49 50 49 50 49 43 48 48 42 42 46 48 50 49 49 46 46 45 45 43 37 36 37 31 34 38 34 50 36 42 38 41 37 51 54 54 56 55 54 62 61
47 47 47 48 49 49 48 48 48 48 48 49 49 49 50 50 50 49 45 46 45 41 41 42 41 50 53 52 53 41 42 51 45 45 40 39 34 40 32 38 44 49 52 44 45 50 53 56 57 58 57 56 58 64
47 47 47 47 48 48 47 47 46 47 48 48 48 49 50 50 50 49 45 47 46 41 34 40 53 47 53 53 53 51 50 54 50 46 40 38 35 46 39 43 42 46 50 48 47 52 53 59 58 57 59 58 59 61
46 46 47 47 48 47 47 46 47 48 48 48 48 49 49 50 50 48 48 48 49 43 33 37 48 52 53 51 50 51 49 47 45 38 34 36 43 44 43 43 41 51 48 40 39 51 51 55 57 59 57 58 58 60
47 46 47 48 47 47 47 47 47 48 48 48 47 49 50 49 50 46 39 46 50 47 39 33 45 48 51 50 49 50 48 46 44 42 38 44 51 46 31 35 50 54 55 55 53 58 57 57 57 56 57 56 59 58
47 46 47 47 47 47 48 48 47 48 48 48 47 48 48 48 47 42 38 43 49 47 40 34 34 47 50 49 44 44 47 44 43 44 40 40 42 44 32 32 40 45 48 52 52 54 52 51 50 54 54 55 55 57
46 46 47 47 47 47 47 47 47 48 48 48 48 48 49 49 49 44 47 50 49 46 44 29 29 37 48 38 37 44 40 42 43 41 40 41 43 42 31 37 39 41 45 47 48 51 50 51 53 52 52 51 50 49
46 46 47 46 47 47 47 47 48 48 49 49 49 49 46 44 39 43 51 51 49 45 33 31 29 31 41 39 39 40 41 31 42 35 38 40 36 29 32 34 35 37 38 41 48 49 49 48 50 50 49 48 45 41
46 46 46 46 46 46 47 47 48 49 49 50 48 42 35 41 49 50 45 41 41 41 41 30 36 31 39 35 35 33 30 30 32 35 42 34 29 34 34 36 36 36 39 42 42 40 41 42 45 39 39 39 37 35
46 46 46 46 46 46 46 47 47 48 48 45 39 36 42 48 42 38 31 32 35 30 34 35 37 35 40 33 33 34 31 31 27 32 34 31 26 29 33 34 35 36 37 38 41 40 40 39 38 36 33 32 31 30
47 46 47 46 47 47 46 47 48 44 43 44 44 46 44 39 35 33 31 32 30 30 34 33 33 39 37 40 34 34 33 33 30 36 31 23 27 31 32 32 32 33 34 33 34 33 33 33 33 31 30 28 27 27
46 47 47 46 46 46 47 47 48 49 49 46 42 35 36 33 27 22 24 29 29 31 32 33 33 33 36 36 32 32 30 30 34 28 22 23 29 31 31 32 31 31 31 30 30 30 30 29 29 28 27 27 27 25
46 47 46 46 46 46 47 47 47 48 43 34 33 23 26 21 24 24 25 27 31 31 30 32 33 33 32 32 32 31 30 31 26 20 18 24 27 28 30 30 29 27 27 27 27 27 26 25 25 25 25 26 25 24
46 47 47 45 46 46 46 48 49 43 35 27 28 22 21 27 25 26 28 29 30 31 31 32 32 34 31 30 29 30 25 19 20 17 21 25 27 28 28 28 28 27 26 25 25 25 25 25 25 24 25 25 25 24
47 47 44 46 46 47 46 47 43 41 34 28 24 21 24 22 22 24 25 26 31 30 30 32 32 26 25 24 21 20 19 15 17 21 24 26 25 27 27 27 27 27 27 26 26 25 25 24 24 24 25 25 24 24
48 43 45 46 46 48 47 42 36 32 28 27 22 25 24 23 23 24 27 26 30 29 27 28 21 20 28 20 18 21 16 18 21 23 23 24 24 24 25 25 26 27 27 26 26 26 25 26 27 26 23 24 25 25
43 44 46 46 46 46 41 38 31 29 22 24 20 23 24 24 23 25 27 27 29 28 27 23 25 16 12 14 16 20 20 21 22 22 23 23 23 23 24 24 24 25 24 24 23 24 25 25 24 24 25 25 24 24
44 44 45 46 44 41 33 32 34 23 25 25 26 27 25 25 26 26 27 27 29 29 26 21 15 14 14 18 18 21 22 21 20 21 22 22 24 24 23 23 22 21 21 22 22 21 21 21 20 21 22 21 19 22
45 45 45 46 45 37 32 30 36 29 25 25 28 25 24 23 25 25 25 28 27 24 18 16 15 17 18 20 21 23 24 24 23 20 19 21 22 21 20 20 20 20 19 19 19 20 20 19 20 19 18 18 16 16
44 44 45 45 40 39 34 32 31 31 29 28 29 29 26 27 22 21 21 26 21 18 16 19 19 21 23 23 24 23 22 23 21 21 19 18 21 21 20 20 20 19 17 16 14 13 14 15 16 18 12 9 11 15
42 44 39 39 34 35 32 35 32 34 31 30 28 28 22 17 16 19 24 18 17 18 20 20 21 22 22 23 23 24 23 23 23 21 21 21 17 17 17 18 17 14 15 14 12 10 12 14 14 13 12 12 9 9
43 41 34 34 29 29 26 35 28 32 23 24 26 23 19 17 23 26 15 19 20 23 23 23 24 26 24 25 26 26 26 24 21 19 18 16 16 14 13 14 14 12 12 13 14 12 9 10 10 6 6 8 8 6
40 30 26 25 26 19 25 22 28 27 24 21 19 15 18 18 23 15 13 16 19 24 24 24 24 21 21 21 18 20 21 21 18 16 19 16 13 12 13 12 12 12 14 15 12 7 8 1 5 6 -3 -3 -2 -4
24 21 24 21 26 20 16 16 19 20 14 18 14 16 17 22 12 13 12 16 19 18 17 22 22 21 16 15 16 17 19 18 14 12 14 15 15 14 12 11 10 11 12 5 7 -1 -4 -3 -0 0 0 -8 -0 -3
16 20 21 21 19 19 20 13 14 14 15 13 16 21 18 11 6 8 16 15 11 16 17 19 14 15 15 16 13 12 14 18 15 11 12 13 11 7 5 5 3 5 8 4 -3 1 -2 -2 -5 -4 -3 1 -5 -8
14 16 25 30 27 26 19 20 23 17 12 10 13 15 9 1 1 13 18 17 13 16 19 19 20 17 15 14 15 14 13 13 12 13 14 13 12 10 4 -3 -4 1 8 0 -4 -2 -6 -6 -6 -5 -9 -8 -9 -9
23 23 13 18 18 22 13 13 11 9 10 18 14 3 1 4 8 16 15 16 15 18 18 17 17 17 15 15 16 14 12 10 7 11 11 10 7 3 4 4 3 8 4 -1 -5 -6 -7 -8 -9 -9 -11 -9 -8 -7
19 22 18 11 13 14 15 13 11 16 19 19 5 5 6 16 14 14 15 14 16 16 12 9 7 6 9 10 8 8 5 4 -0 -4 -6 1 -0 -0 -1 -2 -1 -2 -3 -2 5 4 -1 -5 -6 -6 -8 -9 -7 -3
18 22 13 9 7 8 13 14 16 14 15 12 14 15 13 13 17 16 17 18 17 13 9 8 11 10 10 8 1 -2 -1 -4 -5 -4 -4 -4 -4 -4 -3 -6 -3 -5 -5 -4 -6 -5 6 -6 -3 -1 -3 -5 -8 -12
24 19 13 12 9 10 10 11 17 17 13 13 11 6 7 6 9 14 11 8 7 5 5 4 5 6 4 1 1 1 -4 -4 -6 -5 -5 -5 -3 -0 -7 -6 -3 -6 -6 -5 -8 -8 -7 -10 -11 -11 -9 -9 -9 -8
19 13 9 5 10 15 17 19 14 12 11 5 2 4 5 7 2 4 7 9 10 8 6 11 7 0 -2 -2 -5 -6 -2 -2 -3 -4 -6 -5 -3 -8 -8 -6 1 -1 -7 -8 -8 -8 -6 -8 -10 -10 -12 -12 -13 -13
18 16 13 11 10 10 15 14 10 11 9 6 3 7 5 6 2 5 7 10 14 11 9 5 3 -1 -2 1 -1 -5 -1 -7 -5 3 -1 -3 -6 -6 -11 -11 -11 -12 -11 -12 -11 -9 -7 -7 -7 -9 -11 -13 -13 -15

GFSWCAN_sfc_temp_060.txt.gz
Temp
48 48 48 48 48 48 48 48 48 48 48 49 49 49 50 50 50 47 44 46 41 35 38 43 47 41 43 42 36 39 40 40 38 33 31 30 26 35 34 40 37 33 30 30 32 31 28 51 52 44 47 52 54 55
48 48 47 47 47 47 48 48 48 49 49 49 49 49 49 49 50 49 42 46 47 40 39 47 48 50 50 48 44 41 41 41 42 36 33 33 27 27 34 31 46 34 41 35 39 37 51 51 52 54 53 52 53 52
47 46 47 47 47 48 49 48 48 48 48 49 49 49 49 49 50 49 44 45 44 39 38 40 41 48 51 49 50 41 41 48 46 44 38 36 32 36 31 31 38 45 49 42 41 49 51 54 55 56 55 55 58 56
47 47 47 47 47 48 48 48 47 47 48 48 49 49 49 50 50 49 44 46 44 40 32 38 48 45 51 50 50 50 48 50 49 44 38 32 31 41 33 39 40 47 48 46 44 49 52 54 56 56 59 59 58 59
47 46 47 48 48 47 47 47 46 47 48 48 48 49 49 49 50 48 46 47 48 40 32 36 45 49 52 49 49 49 46 45 44 40 36 33 37 38 37 38 38 45 43 40 41 50 48 50 58 60 57 58 59 57
46 47 47 48 47 47 47 47 47 48 48 48 49 49 49 49 49 45 39 46 49 45 39 31 42 44 47 48 47 45 45 44 42 41 37 39 44 40 31 33 40 42 43 45 43 47 50 50 51 54 53 53 56 55
47 47 47 47 47 47 47 48 47 47 47 48 47 49 49 49 46 40 37 43 49 47 39 32 34 42 46 46 44 44 45 46 44 42 39 40 41 43 30 32 38 40 41 44 45 47 46 47 46 50 51 52 52 52
46 47 47 47 47 47 47 47 47 47 49 48 48 49 49 49 48 43 47 50 49 43 43 30 30 35 45 37 38 43 41 42 42 41 41 39 42 40 32 34 37 39 40 42 42 46 45 48 49 48 49 48 44 40
46 46 46 47 47 47 48 47 47 48 48 48 48 48 45 43 40 42 48 49 47 42 31 26 26 29 41 38 38 38 39 31 40 31 36 40 33 25 29 31 33 35 36 38 43 42 43 42 40 40 41 40 35 33
46 46 46 46 46 46 46 47 47 48 48 48 46 40 34 41 47 48 43 37 37 38 37 29 34 31 38 34 33 33 30 29 32 35 39 30 26 32 32 34 33 34 36 38 37 36 38 38 35 34 33 33 32 30
46 46 46 46 46 46 46 47 47 47 48 41 36 36 42 47 41 37 31 31 34 30 32 33 35 32 38 33 33 32 32 32 27 32 30 25 23 27 31 31 33 34 35 35 37 36 37 36 35 32 30 29 28 27
47 47 46 46 46 46 47 47 48 42 40 42 43 43 41 40 36 31 30 30 30 31 33 33 35 37 36 37 34 34 30 32 26 33 23 17 25 30 30 29 29 30 32 31 32 30 30 30 29 28 27 26 25 25
46 46 46 46 46 47 47 48 48 48 47 44 39 36 34 29 21 19 23 27 26 30 30 32 33 33 35 36 32 32 30 29 33 23 18 21 26 28 28 28 28 28 28 28 27 27 27 26 27 26 25 25 25 23
46 46 46 46 46 47 47 48 47 45 40 32 29 19 20 16 20 20 21 21 27 28 28 31 32 32 32 31 31 29 27 28 18 15 14 22 25 26 27 27 26 24 25 25 24 24 24 24 23 24 24 24 23 22
46 46 46 46 47 47 47 46 46 38 31 25 25 15 18 23 21 22 23 25 27 27 29 30 32 32 29 27 26 27 21 14 16 12 19 23 25 26 26 26 25 25 24 23 24 23 23 24 23 23 24 25 24 23
47 46 43 45 46 47 46 43 39 37 31 27 24 18 21 18 18 19 19 23 28 29 30 31 28 24 23 22 20 18 17 12 16 19 22 23 23 23 25 25 25 25 25 25 25 24 24 23 23 23 23 23 22 23
46 40 45 46 46 46 45 37 34 30 27 25 21 24 22 22 21 22 24 24 29 27 23 25 17 18 25 19 16 18 14 17 19 20 21 21 22 22 23 23 23 22 22 23 24 25 25 25 25 24 21 22 23 22
41 42 46 46 44 43 37 34 30 28 22 24 21 21 23 22 21 22 24 25 25 25 24 19 24 13 12 12 11 16 18 19 20 21 21 21 21 21 21 20 21 21 21 21 21 21 21 21 21 20 22 23 22 21
43 42 45 46 43 36 31 31 32 23 23 23 23 23 22 22 24 25 25 26 26 26 22 18 10 10 11 16 17 18 19 19 18 19 19 20 21 21 20 20 20 19 19 19 20 18 18 18 18 19 19 20 18 18
45 45 45 46 44 33 31 30 35 28 23 24 26 22 21 21 24 23 24 26 26 23 17 13 13 14 14 19 22 21 21 22 20 17 16 18 20 19 18 18 17 17 17 17 16 18 17 16 16 15 15 14 12 12
41 41 43 41 37 35 32 31 28 28 27 27 27 27 23 24 20 19 19 25 19 16 15 18 18 20 22 22 22 22 22 22 20 19 18 16 18 18 18 18 17 16 13 12 11 11 12 11 13 12 7 5 8 9
38 44 36 36 33 33 31 33 31 30 29 27 26 27 20 14 15 19 23 17 16 17 19 19 20 22 21 20 21 22 21 21 19 18 17 17 14 14 13 13 13 12 11 9 9 6 7 9 9 9 7 3 5 4
40 38 32 32 27 26 24 32 26 30 21 21 23 19 14 11 18 23 11 18 18 21 21 21 21 23 21 22 22 22 23 20 16 14 13 11 11 10 9 10 11 7 8 10 10 7 7 4 3 -0 2 3 2 -2
38 29 27 21 23 18 21 19 26 25 20 17 15 11 16 13 19 11 11 14 19 23 21 21 20 17 18 18 15 16 17 17 14 13 13 11 9 8 9 9 9 10 11 10 7 2 2 -3 -2 -2 -7 -6 -8 -8
23 21 21 16 21 16 8 8 12 16 9 12 9 10 12 17 7 5 7 14 14 14 15 18 18 17 12 11 12 13 16 15 11 9 11 13 10 9 8 8 7 8 8 2 -3 -7 -10 -7 -5 -7 -7 -11 -4 -13
12 16 16 13 14 16 13 7 7 8 8 8 12 17 12 5 1 4 12 10 8 12 9 5 11 12 11 13 10 10 10 14 12 8 9 10 9 2 0 -4 -4 0 3 -6 -6 -9 -7 -10 -11 -7 -10 -9 -11 -14
9 11 21 27 25 23 15 15 18 12 7 8 7 7 1 -6 -6 10 15 14 13 10 13 14 16 13 11 11 12 11 11 11 10 10 11 10 9 7 -1 -7 -6 1 1 -5 -8 -10 -11 -12 -13 -15 -16 -15 -16 -13
20 17 9 10 12 17 7 7 5 5 7 16 9 -2 -4 -3 4 11 10 12 11 15 15 14 15 14 12 12 10 7 7 5 7 8 8 7 4 -1 -2 -2 -1 5 -1 -7 -10 -13 -13 -14 -14 -15 -16 -14 -15 -8
11 16 14 5 8 9 10 5 6 12 16 14 -2 -1 4 13 6 11 13 12 11 12 9 8 3 3 5 5 1 -0 -5 3 0 -5 -7 -9 -7 -1 -7 -8 -7 -10 -12 -9 2 1 -1 -10 -11 -8 -7 -8 -8 -8
13 16 8 3 3 6 9 9 3 1 11 8 12 14 11 11 15 12 14 15 7 0 -1 -0 -1 1 -4 -5 -10 -6 -9 -14 -12 -6 -8 -10 -7 -4 -13 -12 -10 -13 -14 -13 -14 -10 -2 -11 -8 -13 -12 -12 -14 -17
18 11 7 7 6 6 3 0 9 9 2 0 -3 -2 1 5 8 11 8 5 5 1 3 -1 0 -9 -1 -4 -11 -14 -11 -10 -14 -12 -11 -9 -6 -14 -15 -14 -11 -10 -10 -14 -16 -17 -13 -12 -17 -18 -18 -17 -17 -20
9 3 4 4 8 9 7 6 -1 -2 -6 -5 -6 -8 -3 -4 -5 -2 5 -0 2 -1 -4 -5 -3 -6 -11 -13 -15 -14 -7 -10 -12 -12 -10 -13 -15 -17 -16 -13 -16 -16 -17 -17 -18 -18 -17 -13 -14 -14 -15 -17 -19 -19
8 11 4 5 5 4 5 6 2 4 1 -3 -0 -1 -1 -0 -4 2 6 0 1 3 -2 -6 -9 -9 -7 -8 -8 -11 -9 -12 -12 -1 -5 -7 -11 -10 -18 -19 -20 -20 -18 -19 -20 -18 -15 -15 -18 -19 -21 -23 -23 -24

GFSWCAN_sfc_temp_063.txt.gz
Temp
48 48 48 48 48 48 48 48 49 49 49 49 49 49 49 50 49 47 44 46 41 35 38 43 45 41 43 42 34 37 38 36 33 29 29 28 24 32 34 36 33 31 28 27 29 27 27 48 46 37 44 49 51 52
47 47 48 47 47 48 48 48 48 48 48 48 49 49 49 49 50 49 41 46 47 39 37 46 48 47 45 48 44 42 41 40 39 32 30 31 26 25 32 28 41 32 38 32 35 36 48 49 47 49 50 49 53 50
47 47 47 47 47 47 48 48 48 48 48 48 48 49 49 49 50 48 43 44 43 38 38 39 39 47 51 51 51 38 40 46 42 42 35 34 29 33 26 29 36 40 44 38 39 45 48 52 53 55 54 54 54 54
47 47 47 47 47 47 47 48 48 48 48 48 48 48 49 49 50 49 43 45 43 39 33 34 48 45 51 50 50 50 46 47 45 41 36 32 33 39 30 37 37 41 43 43 43 48 51 52 54 56 54 55 57 57
47 47 47 48 48 48 48 47 47 48 48 48 49 49 49 49 50 48 45 46 48 40 30 32 43 48 49 49 48 48 46 45 40 37 35 35 36 39 39 38 33 39 38 34 33 42 40 48 52 53 53 52 55 55
48 48 47 47 47 47 47 47 47 47 46 47 48 49 49 49 49 45 38 45 49 46 37 28 40 43 46 47 46 44 43 42 43 40 35 39 43 39 30 34 39 41 42 41 40 43 42 46 49 50 50 49 51 48
47 47 47 47 47 47 47 47 47 48 48 48 48 49 49 49 46 39 37 43 50 47 37 32 30 41 46 44 42 41 45 43 41 39 36 37 39 42 31 28 36 39 40 41 43 42 43 45 43 46 47 45 44 42
46 47 47 47 46 46 47 47 47 47 48 48 48 48 49 48 47 43 45 49 49 43 40 32 32 35 46 38 37 42 39 40 41 38 40 38 40 38 27 31 35 37 38 41 40 44 43 43 42 40 41 40 36 33
46 46 46 46 46 46 47 47 48 48 48 48 48 48 45 43 39 42 49 50 46 42 32 29 27 30 41 37 37 38 39 32 40 34 35 38 30 23 27 30 31 32 33 35 38 42 41 38 36 36 34 34 30 28
46 46 46 46 46 47 47 46 47 48 49 49 45 39 33 41 47 48 43 37 36 39 35 27 32 34 38 33 30 33 33 32 31 34 37 28 25 30 31 31 31 31 33 35 34 34 35 36 33 31 30 30 29 28
47 46 46 46 46 47 47 48 47 48 47 41 38 35 42 46 41 37 31 31 33 28 30 31 33 32 37 33 32 33 32 31 28 32 29 24 22 26 29 28 30 31 32 32 33 32 32 32 30 29 27 27 27 27
46 46 47 47 47 48 48 48 48 43 39 41 41 42 42 37 31 29 23 27 29 30 32 34 35 36 34 39 33 34 32 31 24 30 23 18 23 27 27 27 27 28 28 28 29 28 28 28 27 26 25 24 24 24
46 46 47 47 47 47 47 47 47 48 46 42 37 32 30 24 18 16 21 26 25 28 28 32 33 33 35 36 33 32 29 28 30 21 17 19 25 26 26 26 25 26 26 26 25 26 26 25 26 25 23 23 23 22
46 46 46 46 46 47 46 46 45 43 38 29 26 17 18 14 18 19 20 22 25 27 28 30 32 32 32 31 30 25 25 26 16 13 12 19 23 24 25 25 24 23 23 23 23 23 23 22 22 23 22 22 21 20
46 46 46 46 46 47 46 45 44 37 32 25 24 13 16 22 22 22 23 26 27 29 29 31 31 30 26 25 24 23 17 11 14 9 15 21 23 24 24 24 23 23 23 22 23 22 22 22 22 21 22 23 23 21
46 45 42 46 46 46 45 42 38 35 29 26 22 17 19 15 16 16 18 21 27 27 28 28 24 23 21 21 18 16 14 10 12 15 20 21 20 21 20 21 22 23 24 23 24 23 23 22 21 21 22 21 21 20
45 39 45 46 46 45 44 37 34 30 27 24 20 23 18 12 13 17 20 22 27 24 22 23 16 16 25 18 12 16 12 15 17 18 19 20 20 20 21 21 21 21 21 21 22 22 23 23 23 22 19 20 21 20
36 39 45 46 44 41 37 35 30 27 20 20 18 19 21 17 15 16 22 23 23 23 23 17 23 12 11 11 8 14 16 18 20 19 19 19 19 19 20 19 20 20 20 19 20 20 20 20 19 19 20 20 19 19
42 41 45 46 42 36 32 31 32 20 20 21 21 22 20 19 22 22 22 24 24 25 22 17 10 9 10 13 13 15 17 18 16 17 18 19 19 18 18 18 17 16 18 17 17 16 16 17 16 17 17 16 13 14
45 45 44 44 43 34 31 30 34 27 21 22 24 21 20 20 22 19 22 25 25 22 16 11 10 11 14 18 19 19 19 20 19 16 15 16 17 17 16 16 15 16 15 15 14 15 14 13 13 12 12 11 9 8
40 40 42 40 36 35 31 30 27 27 25 24 26 25 21 24 20 19 19 23 17 15 14 16 16 19 21 21 21 21 20 20 18 17 15 13 16 16 15 14 14 12 10 8 8 8 8 8 9 8 5 1 3 4
36 42 34 34 32 32 30 30 29 28 27 25 25 26 16 9 11 15 21 14 15 16 18 18 19 19 19 19 19 20 19 18 17 15 14 14 10 10 9 9 10 7 7 5 5 1 4 8 7 5 0 -6 2 0
39 36 29 29 25 25 24 30 24 29 20 19 20 17 12 9 17 22 10 17 16 19 18 19 20 21 19 19 20 20 20 17 13 11 10 9 9 7 7 8 7 3 5 7 7 5 1 0 1 0 -0 -2 -4 -9
37 26 23 19 23 16 19 18 26 23 18 15 13 11 14 10 17 10 10 13 17 20 19 19 19 16 16 15 13 13 14 14 12 11 10 9 6 7 8 8 8 7 7 7 4 -1 -1 -10 -7 -5 -9 -12 -16 -13
23 19 20 13 18 14 7 5 9 14 7 9 9 10 9 15 4 3 5 11 13 12 10 16 16 14 10 7 10 11 14 14 10 8 9 9 7 6 6 6 6 7 7 -2 -10 -12 -11 -15 -15 -13 -13 -17 -8 -15
12 14 15 12 14 15 12 8 7 6 6 5 9 12 8 2 -3 2 10 7 6 9 -0 4 8 10 10 11 9 8 9 11 11 7 8 10 8 1 -4 -6 -5 -1 1 -7 -11 -14 -13 -14 -14 -12 -15 -13 -14 -18
9 9 20 25 23 21 12 13 16 11 6 7 7 0 -2 -9 -9 6 13 13 11 10 14 13 13 11 10 9 10 9 9 9 8 8 8 8 7 5 -2 -8 -7 -1 -1 -8 -12 -13 -13 -16 -17 -18 -17 -18 -18 -17
16 15 7 6 8 13 2 1 -0 1 3 14 6 -6 -8 -6 2 9 10 12 10 14 14 13 13 12 10 8 6 6 3 4 5 5 5 5 3 -4 -6 -7 -5 3 -8 -14 -15 -18 -17 -17 -16 -17 -19 -17 -16 -18
9 11 10 -2 2 6 8 4 5 12 14 8 -6 -4 4 11 7 8 11 9 9 12 8 5 1 -2 1 -0 -4 -3 -4 -2 -5 -9 -12 -13 -14 -4 -6 -12 -13 -14 -15 -11 -2 -1 -7 -14 -13 -14 -15 -14 -11 -13
8 12 3 -3 -0 3 3 4 0 -2 9 6 11 13 10 8 10 7 9 5 3 -1 -5 -4 -6 -5 -9 -8 -12 -9 -14 -14 -7 -4 -11 -15 -9 -11 -17 -16 -15 -16 -17 -18 -17 -13 -4 -13 -10 -16 -17 -18 -21 -21
13 7 4 4 4 4 3 -6 -3 3 -4 -3 -6 -4 0 3 7 10 10 4 -1 -2 -0 -5 -7 -11 -9 -15 -16 -15 -11 -13 -18 -15 -14 -15 -16 -17 -17 -17 -18 -18 -19 -20 -20 -20 -18 -18 -19 -19 -20 -18 -20 -24
3 -1 3 4 5 5 3 -6 -7 -8 -11 -6 -8 -13 -7 -6 -8 1 3 1 0 -4 -8 -11 -6 -6 -14 -16 -18 -18 -11 -11 -15 -14 -11 -15 -16 -20 -20 -18 -22 -21 -21 -22 -23 -22 -20 -20 -20 -20 -20 -21 -24 -25
4 7 3 3 1 -1 1 2 -0 -2 -6 -7 -3 -7 -8 -8 -6 -1 3 -3 -2 -0 -3 -6 -11 -10 -12 -12 -10 -14 -14 -16 -16 -4 -8 -9 -14 -14 -22 -24 -24 -23 -20 -22 -24 -23 -21 -19 -22 -23 -25 -26 -26 -27

GFSWCAN_sfc_temp_066.txt.gz
Temp
48 48 48 48 48 48 48 48 48 49 49 49 49 48 48 48 49 47 44 47 41 36 39 44 45 40 40 40 33 37 37 36 34 29 30 31 25 30 31 34 32 31 29 29 30 29 25 47 46 41 45 46 48 49
48 47 48 47 47 47 48 47 48 48 48 48 49 49 49 49 48 48 39 47 47 39 38 44 46 47 45 48 43 42 40 38 36 30 29 30 25 24 30 26 37 30 35 31 33 32 43 45 47 51 49 49 50 50
47 47 47 47 47 48 47 48 47 48 48 48 48 48 49 49 48 46 41 44 42 36 36 39 38 46 49 47 47 39 40 46 38 39 33 32 28 30 24 28 34 37 41 36 36 42 45 47 49 51 51 51 54 54
47 47 47 47 47 48 48 48 47 48 48 48 48 48 49 49 49 47 42 45 42 39 32 34 46 43 50 50 48 47 47 48 46 41 34 30 28 36 28 34 32 37 40 38 39 45 44 49 47 45 48 53 54 55
47 47 47 47 47 47 47 48 48 48 48 48 48 48 48 49 49 47 45 45 47 40 31 33 42 47 48 47 47 47 47 45 41 38 34 31 34 35 34 35 34 38 35 33 37 38 39 40 44 46 46 47 48 50
47 47 47 47 47 47 47 47 47 48 48 48 49 49 48 48 48 44 37 44 47 43 36 27 38 40 44 46 45 44 45 44 43 40 35 37 40 37 25 27 37 41 41 41 39 43 40 42 43 42 43 43 42 40
47 47 46 47 47 47 47 47 47 47 48 48 49 49 49 48 46 38 37 41 48 46 37 29 28 42 43 45 42 41 44 43 41 39 37 38 37 39 32 27 33 37 39 40 43 40 39 40 38 39 39 41 39 36
46 46 46 47 47 47 47 47 48 48 47 47 48 48 48 48 47 42 43 48 48 42 39 31 32 36 43 37 37 42 38 39 41 39 39 35 38 36 29 30 34 34 35 38 39 40 41 42 38 37 37 36 32 30
46 46 46 46 46 47 47 47 47 48 47 48 48 48 46 43 39 42 48 49 46 41 31 30 28 30 41 37 38 38 39 33 39 34 36 38 29 23 26 27 29 30 30 32 34 36 39 36 34 32 32 31 29 28
46 46 46 46 47 48 47 48 47 47 47 48 45 39 34 41 48 48 41 36 37 38 37 31 33 33 37 34 32 34 34 32 29 34 34 27 23 28 28 29 29 29 31 32 31 31 31 32 30 28 28 28 28 27
47 47 46 47 47 47 48 48 48 49 48 42 38 34 42 47 41 35 31 31 32 30 32 33 33 34 38 31 31 33 31 32 29 31 29 23 21 25 27 27 28 28 29 29 30 29 29 29 28 27 26 26 26 25
47 47 47 47 47 47 47 48 48 43 41 42 41 42 41 35 31 30 28 30 30 29 32 33 34 33 35 38 34 33 31 31 23 29 23 16 21 25 26 25 26 27 27 26 27 26 26 26 26 25 24 23 23 23
46 47 47 47 46 46 46 47 47 47 45 40 36 30 29 22 15 16 23 24 23 27 28 31 32 33 35 36 32 32 29 24 28 19 16 18 22 25 24 25 24 25 25 25 24 25 24 23 24 23 21 21 21 20
46 46 46 46 47 46 45 45 46 43 38 29 24 13 12 8 15 17 19 20 24 27 27 30 32 30 31 29 27 24 22 24 15 12 11 18 20 23 24 24 23 22 22 22 21 21 21 21 21 21 21 21 20 18
46 46 46 46 46 46 45 45 44 38 31 25 24 11 13 19 19 19 21 23 26 28 29 31 28 28 25 23 22 22 16 12 13 8 13 19 21 23 22 23 22 22 22 21 22 21 21 21 20 19 20 21 20 19
46 45 43 45 45 46 44 41 38 35 30 25 21 16 18 16 16 17 19 18 25 26 29 28 26 22 20 20 17 14 13 9 11 16 19 20 20 20 20 21 21 22 22 22 22 21 21 20 19 19 20 19 18 18
45 38 44 46 46 45 44 36 33 28 25 22 16 18 12 12 12 16 18 21 25 25 21 23 17 16 23 16 11 14 11 13 16 17 18 19 19 19 20 20 20 20 20 20 21 22 21 21 21 20 17 18 18 18
38 39 44 46 43 41 37 34 29 25 18 20 15 15 14 14 13 15 20 23 24 24 23 18 23 14 11 11 9 13 16 17 18 18 17 18 18 18 18 18 18 19 18 18 19 19 19 19 18 17 17 17 16 16
40 41 44 45 42 36 32 30 30 18 18 18 18 18 16 17 19 21 21 24 25 25 21 18 11 9 8 12 12 13 15 16 15 16 16 17 18 17 17 18 17 16 16 16 16 15 15 15 14 14 14 13 10 11
44 44 43 44 43 33 30 29 32 24 19 21 23 20 20 19 21 15 21 23 24 20 15 12 11 11 12 16 17 17 17 19 17 14 13 15 16 15 14 15 14 15 14 14 12 13 13 11 11 10 10 9 6 5
39 39 41 40 34 34 31 28 26 25 24 22 25 23 21 22 18 17 17 22 16 15 12 15 15 18 19 19 20 19 18 19 16 16 13 11 14 14 13 12 12 10 8 5 5 6 6 5 6 6 2 -4 -3 -0
35 41 34 34 31 32 29 29 27 27 27 26 23 24 15 9 11 15 19 13 12 13 17 17 18 18 18 17 17 18 17 16 15 13 13 13 10 8 6 5 7 3 3 -1 2 -3 3 5 4 1 -4 -10 -2 -3
38 35 29 29 25 24 23 30 23 27 17 17 20 16 10 8 16 21 10 16 15 19 18 18 18 19 17 18 18 18 18 15 11 10 8 7 7 5 5 6 3 -0 1 4 5 2 0 2 -1 -6 -7 -7 -9 -15
36 25 19 15 21 14 18 16 25 21 16 14 13 10 10 10 16 10 8 11 16 19 18 18 18 14 15 14 11 12 12 12 10 9 8 7 5 5 6 6 5 4 5 5 2 -4 -5 -14 -10 -7 -16 -18 -20 -19
22 18 18 10 15 12 5 3 8 13 6 8 8 7 7 14 5 3 3 8 9 5 7 13 14 13 8 7 9 10 12 12 9 7 7 7 5 5 5 5 4 5 4 -7 -13 -15 -16 -19 -18 -16 -14 -20 -9 -16
11 14 15 10 11 12 11 6 5 6 6 6 7 9 7 3 -1 1 8 3 2 5 -2 2 5 8 9 10 7 7 7 10 9 6 7 9 6 -2 -6 -7 -6 -1 -1 -10 -14 -16 -14 -16 -17 -14 -16 -14 -16 -20
8 7 18 22 20 18 9 10 13 7 2 4 5 -3 -4 -10 -10 5 12 9 8 9 12 11 12 10 9 8 8 7 7 7 6 6 6 6 5 4 -4 -9 -8 -3 -2 -9 -15 -15 -15 -17 -18 -19 -18 -18 -22 -21
13 14 7 3 6 10 -2 -3 -4 -2 3 12 5 -7 -9 -8 3 8 10 11 11 13 11 10 10 10 8 6 4 3 1 -0 2 2 2 2 1 -5 -8 -9 -5 1 -11 -16 -17 -20 -18 -18 -18 -20 -21 -18 -17 -20
8 10 9 -2 2 3 4 -1 2 10 12 6 -6 -4 2 9 5 7 11 9 8 10 6 3 -2 -4 -1 -2 -6 -5 -6 -6 -7 -11 -14 -14 -16 -8 -11 -14 -15 -17 -19 -13 -5 -5 -12 -16 -17 -19 -18 -16 -16 -21
4 8 0 -7 -4 -1 -2 2 -1 -2 7 5 9 11 8 7 9 9 5 3 1 -3 -6 -6 -12 -11 -12 -11 -12 -9 -12 -16 -11 -4 -9 -13 -10 -13 -18 -18 -17 -19 -22 -20 -18 -15 -4 -15 -12 -20 -21 -22 -25 -25
9 2 -0 1 0 -0 -1 -9 -8 -0 -5 -4 -8 -4 -1 -0 5 7 4 -4 -6 -6 -4 -10 -12 -17 -12 -16 -16 -15 -11 -15 -20 -17 -16 -20 -21 -20 -19 -20 -21 -20 -20 -21 -22 -22 -22 -22 -24 -23 -22 -21 -23 -26
-1 -5 1 0 1 2 0 -11 -11 -9 -15 -8 -10 -16 -10 -8 -9 -1 1 -1 -1 -4 -7 -12 -11 -7 -11 -15 -20 -20 -14 -15 -17 -17 -14 -18 -18 -21 -22 -21 -26 -25 -24 -25 -25 -24 -22 -22 -23 -24 -25 -24 -26 -27
2 2 1 1 -2 -3 -1 -0 -2 -6 -10 -10 -9 -12 -13 -10 -7 -2 -0 -4 -3 -3 -5 -8 -13 -17 -15 -16 -15 -18 -17 -18 -18 -5 -10 -11 -16 -16 -24 -27 -26 -25 -22 -24 -26 -25 -23 -22 -24 -25 -26 -28 -26 -27

GFSWCAN_sfc_temp_069.txt.gz
Temp
48 47 47 47 48 48 48 48 48 49 48 49 49 48 48 48 49 46 43 46 41 35 39 44 46 42 39 39 34 38 35 36 35 31 32 31 31 35 36 38 35 35 31 32 33 30 28 50 49 44 51 54 53 55
47 47 47 47 47 48 48 48 48 48 48 48 49 49 47 48 48 48 40 46 47 39 38 45 48 50 49 47 43 41 40 38 40 35 34 36 31 31 36 31 41 35 40 37 39 40 48 50 49 53 53 51 53 54
47 47 47 47 47 47 48 48 48 47 48 48 48 49 48 48 48 47 42 45 42 34 37 39 39 46 49 49 50 38 42 45 41 44 37 36 32 37 31 33 38 41 45 40 41 47 50 53 53 50 50 49 51 54
47 47 47 47 47 47 47 48 48 48 47 48 48 47 48 48 48 45 41 45 41 38 33 36 46 43 50 49 49 48 46 48 47 44 38 34 34 40 35 39 38 43 44 42 43 47 46 52 47 46 47 49 48 49
46 47 47 47 47 47 47 47 48 48 47 48 48 47 48 48 48 45 44 44 45 40 32 34 43 47 49 48 47 47 46 44 42 37 34 35 38 39 38 38 35 43 42 39 39 40 39 42 47 45 44 44 43 41
47 46 46 47 47 47 47 47 47 48 48 48 48 48 48 48 47 42 34 44 45 45 36 31 41 41 45 46 46 43 44 43 42 38 36 39 44 41 34 33 39 41 42 42 40 43 43 45 45 42 41 42 41 38
47 46 47 47 47 47 46 47 47 47 48 48 48 48 48 48 44 38 37 42 46 45 36 32 33 41 44 44 43 43 44 40 40 38 36 38 40 42 34 32 33 36 37 38 41 41 42 42 39 40 39 39 38 36
46 46 46 47 46 46 46 47 47 47 48 49 48 48 47 47 47 42 44 47 47 42 40 32 32 35 43 37 36 43 39 40 40 37 38 37 39 37 32 30 32 33 35 38 36 38 36 41 39 36 37 37 33 31
46 46 46 47 47 46 47 48 47 47 48 49 48 48 46 43 37 41 48 48 46 42 32 32 31 30 40 38 39 38 40 33 40 35 36 38 32 29 25 25 27 29 28 31 34 36 35 34 31 31 30 31 29 27
46 46 46 46 47 47 46 47 47 47 47 47 45 39 35 41 47 47 41 36 37 39 38 31 34 32 39 35 34 33 35 33 31 34 34 29 24 26 27 28 28 27 29 30 29 30 29 30 29 27 26 27 26 25
47 46 46 46 47 47 48 47 47 48 47 43 36 35 43 47 41 37 32 31 33 30 33 34 35 33 38 33 33 34 33 33 28 31 29 24 22 24 27 27 28 29 29 29 29 28 28 28 27 25 25 25 24 23
47 47 46 46 47 48 48 48 48 43 40 41 39 41 38 33 32 31 29 31 31 29 31 33 34 36 36 36 34 33 32 32 26 30 23 17 22 25 26 25 26 27 27 26 27 26 26 26 25 24 23 22 21 21
46 46 46 46 47 48 48 48 46 46 45 40 35 30 30 23 15 15 23 23 24 26 28 31 32 33 35 36 33 33 29 23 28 20 16 18 22 24 24 25 24 26 25 25 24 24 24 23 23 22 20 21 20 19
46 46 46 46 46 45 45 46 46 42 37 29 25 14 14 11 17 18 19 20 25 27 27 30 30 30 30 29 27 24 23 25 16 13 12 19 21 22 24 24 23 21 22 21 21 21 20 20 20 20 20 20 19 17
46 46 46 45 45 45 45 44 43 37 31 24 23 11 15 20 20 20 22 24 26 27 29 31 28 29 25 22 23 23 18 13 14 12 16 20 22 23 22 23 22 22 21 21 21 20 19 19 19 18 19 19 19 18
46 45 43 45 45 45 44 41 37 35 30 24 19 14 17 16 16 18 19 20 26 25 30 29 26 22 20 19 16 13 14 10 12 17 20 21 20 20 20 21 21 22 22 21 21 21 20 19 18 18 19 18 17 17
44 38 44 45 45 44 43 35 32 27 24 20 15 17 14 16 16 17 19 21 25 26 21 24 18 16 22 15 11 14 11 14 17 17 18 19 18 19 20 20 20 20 20 20 21 21 20 20 20 19 16 17 18 17
38 39 44 46 44 41 36 33 28 24 17 18 13 15 16 17 17 18 20 24 24 25 24 19 22 14 12 11 11 15 15 17 17 17 17 17 18 18 19 18 18 19 18 18 18 18 19 18 18 17 17 17 17 16
41 41 44 45 42 35 31 28 29 16 16 19 20 18 17 17 19 21 23 26 27 27 24 20 14 11 11 15 14 15 16 17 15 15 16 17 17 17 17 17 17 16 16 16 16 15 15 15 16 16 16 15 13 14
44 44 43 44 43 34 29 26 30 23 17 20 23 20 20 20 22 19 20 23 24 21 15 13 12 13 15 17 18 18 18 19 18 15 14 15 16 15 15 15 15 15 15 14 13 15 14 13 12 12 12 11 10 8
41 40 41 39 35 32 28 26 24 24 24 21 24 23 20 21 18 17 17 22 16 15 13 15 15 17 19 20 20 20 19 20 18 17 14 12 14 15 14 13 13 13 11 10 10 8 9 8 9 9 7 6 6 8
36 41 33 33 30 30 27 28 26 26 26 24 23 23 16 14 15 16 20 13 13 14 17 17 18 18 18 17 17 18 17 17 15 15 14 14 11 11 9 9 10 7 7 7 8 7 8 8 8 7 6 5 6 6
38 35 28 30 24 22 23 30 22 26 18 18 20 16 13 12 17 22 12 15 15 19 19 18 18 19 17 17 18 17 18 15 12 11 10 9 9 9 9 8 8 7 7 7 9 8 6 4 2 4 4 5 5 3
35 23 16 15 21 14 17 15 25 20 17 15 14 11 11 12 17 12 9 11 16 19 18 17 17 15 15 14 12 12 13 13 11 10 11 10 8 7 9 8 8 8 9 8 6 4 2 1 -1 2 -0 -0 -1 1
21 16 16 9 15 12 7 5 9 13 8 9 10 8 9 15 7 6 6 11 13 12 11 15 15 14 10 10 11 11 13 14 11 9 9 10 8 8 7 7 7 7 7 4 2 2 -1 -3 -1 0 0 0 2 -1
11 13 13 9 10 12 9 4 3 6 7 5 5 9 8 6 2 2 9 9 9 9 5 7 10 11 10 12 10 10 10 13 12 9 8 11 9 6 4 3 4 5 4 2 1 1 0 -2 -1 -1 -1 -4 -11 -3
6 5 16 19 18 16 7 8 12 7 2 3 4 -1 -0 -5 -7 6 13 12 11 11 13 13 15 13 11 9 9 8 9 9 9 8 8 8 7 7 5 3 2 5 4 2 1 2 2 -0 -1 -2 -2 -3 -3 -4
11 11 3 1 4 9 -3 -1 -1 -0 5 11 5 -6 -8 -5 4 9 11 12 12 12 10 9 10 11 9 7 6 6 4 4 5 6 6 6 4 2 0 1 1 2 -0 -2 -1 -3 -1 -0 -0 -2 -4 -2 -2 -5
5 8 8 -3 0 1 2 -2 2 9 11 5 -4 -2 4 8 7 10 11 11 12 11 7 5 1 2 2 1 -1 1 3 4 4 -3 -3 -1 -2 2 -1 -2 -2 -3 -3 1 -4 -0 -2 -1 -2 -2 -4 -3 -4 -7
2 8 -1 -9 -5 -2 -3 3 1 1 6 7 10 11 8 7 10 11 10 10 8 4 -1 -0 -4 0 -0 1 -1 -0 -4 -5 -1 2 -0 -0 0 -1 -3 -2 -1 -4 -6 -2 -0 1 -1 -2 -2 -5 -5 -5 -5 -5
7 2 -1 0 -1 3 0 -6 -7 -1 -4 -2 -3 -1 1 3 8 7 3 -3 -2 -4 -1 -2 -5 -8 -3 -4 -2 -3 -1 -4 -12 -8 -7 -6 -7 -5 -5 -6 -8 -8 -7 -5 -5 -5 -5 -6 -6 -6 -5 -5 -7 -11
-3 -8 -2 -3 -0 1 -0 -7 -9 -6 -9 -3 -6 -10 -5 -3 -4 4 2 1 -1 -1 -4 -4 -1 3 -3 -3 -7 -8 -11 -5 -5 -7 -6 -5 -4 -7 -8 -9 -12 -9 -8 -8 -9 -8 -8 -7 -7 -8 -8 -8 -10 -11
-2 -3 -1 0 -1 -2 -1 -2 -3 -5 -8 -8 -8 -13 -13 -6 -4 2 1 -1 3 3 1 -1 -3 -7 -7 -8 -5 -7 -10 -7 -10 -0 -8 -8 -12 -9 -9 -10 -10 -9 -8 -7 -8 -9 -8 -9 -8 -9 -10 -12 -12 -13

GFSWCAN_sfc_temp_072.txt.gz
Temp
47 47 47 47 47 48 48 48 48 49 49 49 49 49 48 48 48 46 42 46 41 36 41 48 49 47 47 45 39 40 37 36 34 33 35 37 36 41 41 45 37 35 33 32 37 32 30 57 55 47 53 58 59 60
47 47 47 47 47 48 48 48 48 48 48 49 49 49 49 49 49 47 40 45 47 42 39 51 53 55 53 52 46 41 42 40 43 38 42 42 38 41 42 36 50 38 46 43 45 45 56 57 57 61 58 55 57 57
47 47 47 47 47 47 48 49 48 48 48 48 48 49 49 49 48 47 42 44 43 37 38 42 42 52 55 55 53 38 42 46 45 52 44 44 37 47 36 41 46 50 55 47 48 53 56 59 59 57 56 55 56 57
47 47 46 47 47 48 47 48 48 48 48 48 48 48 49 49 48 47 42 45 43 38 34 38 52 50 57 56 52 51 49 50 49 48 41 40 38 49 43 47 46 52 53 49 49 54 57 58 57 54 53 55 54 54
46 46 47 47 47 47 48 47 47 48 48 49 48 48 48 48 48 47 45 46 47 43 36 41 47 52 53 51 48 49 46 46 43 39 37 37 47 45 47 46 45 54 50 46 45 50 48 50 54 52 50 51 51 48
46 47 47 47 47 47 47 47 47 47 48 48 48 48 48 47 47 42 34 43 47 47 38 34 47 46 49 48 44 44 45 44 42 39 38 40 49 45 39 40 51 50 48 47 46 46 45 47 51 48 47 49 48 46
47 47 47 47 47 47 47 47 47 48 48 48 48 48 47 47 43 40 40 43 47 48 40 36 39 45 49 48 45 45 45 40 40 37 38 39 45 46 36 38 41 42 43 43 45 43 44 44 39 42 42 46 45 44
46 47 47 47 47 47 47 47 47 48 48 49 48 47 47 47 46 42 45 47 49 45 44 34 35 37 47 38 38 45 39 39 38 38 40 40 44 39 34 34 37 38 40 43 39 41 39 39 37 35 37 38 36 34
46 46 46 47 46 47 47 48 48 48 49 48 47 47 44 41 38 42 48 48 50 45 37 34 33 31 45 42 44 42 41 34 41 34 37 40 36 31 26 28 30 31 31 33 38 41 38 34 32 31 30 30 29 27
46 46 46 47 46 47 46 47 47 47 47 47 45 38 34 40 47 47 42 35 36 39 41 37 40 34 42 40 35 36 38 35 33 38 36 33 27 29 30 31 31 30 30 31 31 34 33 32 32 30 28 28 28 26
46 46 46 47 46 46 46 47 47 48 49 46 38 36 43 47 42 38 34 35 34 32 37 41 39 36 40 36 35 36 34 36 32 31 34 31 27 26 31 31 31 32 32 31 31 30 31 31 30 28 26 26 25 24
47 46 47 47 47 46 47 47 48 50 48 45 40 41 39 36 38 34 32 33 35 32 35 34 35 38 36 38 36 35 33 33 28 34 30 26 24 28 29 28 28 30 30 30 31 29 29 29 28 27 25 24 23 22
46 46 46 46 46 47 46 46 47 46 49 48 42 35 36 29 26 27 26 29 30 32 33 33 33 36 37 34 33 34 31 27 33 27 23 23 26 28 28 29 27 29 29 28 27 27 27 25 25 24 22 22 22 20
46 45 46 46 45 46 45 45 45 47 45 35 31 22 23 22 24 25 27 28 30 31 31 34 34 35 34 32 31 28 27 31 23 21 18 23 24 25 26 26 26 23 23 23 22 22 21 21 21 21 21 21 20 18
46 45 46 46 45 45 45 44 44 44 38 29 29 19 22 25 27 26 28 30 31 31 33 35 35 37 30 28 28 27 23 19 20 19 22 24 24 24 25 25 24 23 22 22 22 21 21 21 20 20 20 21 20 19
46 46 44 45 45 45 44 44 44 42 35 28 25 23 25 26 24 26 26 27 30 31 35 37 31 28 24 25 22 18 19 16 18 21 23 23 22 22 23 23 24 24 23 23 22 22 21 20 20 20 20 19 18 18
46 45 45 44 43 43 43 40 38 31 28 24 21 25 24 24 22 23 25 26 30 31 28 31 24 21 27 21 15 19 15 17 19 20 21 22 22 22 22 22 22 23 23 23 23 22 22 22 22 20 18 19 20 19
43 45 44 45 46 43 41 39 32 28 21 25 22 22 24 24 24 25 26 29 31 31 29 23 27 20 17 15 16 18 19 20 21 20 21 21 21 21 22 21 21 22 21 21 21 21 21 21 20 19 19 20 20 20
43 45 45 45 46 42 35 33 34 22 22 25 26 27 27 26 27 28 29 31 32 33 29 25 19 16 16 20 20 20 22 22 20 20 20 20 21 20 20 20 20 20 20 20 20 19 19 19 20 22 22 22 20 20
44 44 44 44 46 39 31 30 37 28 23 25 28 26 26 25 27 26 26 28 28 25 20 17 17 19 21 22 25 24 23 24 24 21 20 21 22 21 20 21 21 20 20 19 20 21 21 20 20 19 19 19 18 16
44 43 43 46 41 40 35 32 29 30 29 26 29 29 26 28 25 23 21 25 21 20 18 20 20 22 25 25 27 28 26 27 25 26 22 20 21 22 21 20 20 21 20 20 19 17 17 17 18 18 17 16 16 16
45 42 43 43 37 36 34 36 32 33 31 29 29 29 25 22 22 21 26 20 18 19 22 22 23 24 23 22 22 23 22 22 21 21 20 20 19 19 18 20 20 17 17 17 18 16 16 17 17 16 15 14 15 15
42 42 38 37 31 31 27 35 29 30 24 25 28 22 21 21 23 28 19 20 20 22 23 23 22 23 21 21 22 22 22 22 20 20 19 19 19 19 18 18 19 16 15 16 18 17 14 11 12 14 14 15 14 13
38 29 26 26 30 22 28 26 31 27 27 24 21 17 18 21 25 20 15 18 20 23 22 21 23 20 21 21 20 20 20 22 20 19 20 19 17 16 18 17 17 17 17 17 16 15 14 12 10 14 12 12 11 12
28 20 25 21 26 24 22 21 21 23 19 20 18 17 18 23 16 15 13 17 20 20 20 22 22 22 20 18 20 19 20 23 20 17 18 20 17 17 16 16 16 16 17 16 13 13 11 11 12 12 12 12 10 8
16 18 21 21 22 23 22 18 19 18 19 16 15 17 20 17 13 11 16 19 19 20 20 21 20 20 20 21 19 19 18 22 21 18 16 19 18 18 16 14 14 13 15 16 14 13 11 10 10 7 9 5 1 6
16 15 20 23 24 23 20 21 22 20 16 15 15 14 15 9 8 13 18 20 21 21 22 23 24 23 20 18 17 17 18 18 17 16 16 16 16 16 16 14 10 13 14 13 13 13 12 10 9 9 9 11 9 8
18 18 14 12 13 17 12 13 13 12 14 16 16 7 9 9 11 17 19 20 20 20 19 19 21 21 19 17 16 15 14 13 12 14 14 14 14 13 11 12 12 8 11 11 11 11 11 11 10 9 8 8 8 9
14 16 15 3 9 10 9 10 12 14 15 17 12 10 10 14 15 18 18 19 20 20 17 15 13 14 14 14 13 16 16 16 12 7 6 11 12 11 12 12 12 11 12 13 3 7 8 9 9 9 5 8 8 7
12 17 10 6 5 6 9 12 11 12 15 16 17 15 14 14 15 19 19 19 19 17 16 15 14 17 14 15 12 11 13 12 11 11 11 10 11 11 11 11 11 10 10 11 10 10 5 8 6 7 6 7 7 7
17 16 11 11 9 11 12 11 14 15 14 14 16 13 11 14 16 14 14 14 14 13 14 13 11 13 13 12 14 12 12 9 3 3 7 9 9 10 9 7 8 9 9 8 7 7 6 6 7 5 5 4 4 1
13 10 10 7 9 13 13 14 14 13 14 14 12 14 12 14 11 14 12 14 14 15 9 14 15 15 12 11 9 9 -0 8 7 6 6 8 9 6 7 6 5 6 6 5 5 5 2 2 4 3 3 2 2 0
14 14 14 12 10 11 12 13 13 11 13 12 10 8 9 12 9 12 11 11 14 15 15 15 12 11 8 8 9 7 7 7 4 4 0 0 -1 2 6 7 6 5 3 4 5 3 2 2 2 2 1 -0 -1 -1

GFSWCAN_sfc_temp_075.txt.gz
Temp
47 47 47 47 47 48 48 48 48 48 48 49 49 48 47 48 49 45 41 50 43 37 46 50 51 45 47 48 40 39 38 37 35 33 36 39 39 43 44 47 42 39 35 34 38 33 32 61 60 50 54 60 60 61
46 47 47 47 47 47 48 48 48 48 48 48 49 49 48 48 48 47 40 45 49 40 46 55 54 56 54 49 42 43 42 40 44 38 44 45 40 44 44 38 52 39 46 43 46 46 58 62 59 60 60 58 59 59
46 46 47 47 47 47 47 47 48 48 49 48 48 49 49 49 48 47 42 43 42 37 41 47 47 55 58 58 58 40 42 47 46 53 43 41 37 48 38 43 47 52 51 45 42 54 50 60 63 62 60 58 60 60
46 46 47 46 47 47 47 48 48 48 48 48 48 48 49 49 49 48 42 44 43 39 33 44 58 52 59 58 55 54 50 50 47 47 40 41 40 52 45 49 48 53 54 52 52 56 60 61 60 58 57 59 58 57
46 46 46 46 47 47 47 48 47 48 48 48 48 48 49 49 49 47 45 45 49 48 38 43 55 57 58 56 54 52 49 47 41 38 36 38 49 47 49 49 46 56 52 47 45 51 52 55 56 55 53 52 53 52
46 46 47 47 47 47 47 47 47 47 47 48 49 49 48 49 48 44 34 44 51 52 43 36 54 52 52 54 52 51 49 43 41 38 38 47 52 45 39 41 53 55 54 52 48 51 51 54 52 49 47 46 49 51
47 47 47 47 47 47 47 47 47 47 47 48 49 48 48 47 44 39 40 45 49 49 39 37 39 49 53 51 48 47 46 42 41 37 38 40 47 48 38 38 38 47 49 50 49 48 49 47 42 44 45 43 44 46
46 47 46 47 46 47 47 47 47 47 48 49 48 48 47 47 46 42 49 48 50 42 42 35 37 41 49 38 38 43 36 39 39 38 38 40 47 42 34 38 42 42 44 46 44 47 44 41 40 38 39 40 39 36
46 46 46 46 47 47 48 48 48 48 48 48 47 46 44 41 38 41 48 49 48 42 37 37 35 33 46 42 43 41 44 35 41 35 39 44 40 31 28 30 34 35 35 36 40 45 42 38 38 37 37 36 34 32
46 45 46 45 46 47 47 47 47 48 47 45 43 38 34 41 46 46 41 36 37 41 45 38 44 35 45 43 40 39 41 34 33 35 38 35 27 31 35 36 36 34 34 35 33 35 34 35 34 32 30 30 30 28
46 46 46 46 47 47 46 46 46 47 48 44 36 36 43 47 43 38 34 35 36 34 42 43 42 39 44 38 36 38 35 38 32 34 35 33 27 27 34 34 35 36 36 36 35 33 33 33 32 31 29 29 28 27
46 47 47 46 46 46 47 48 49 49 48 46 41 42 41 39 36 35 33 36 37 33 39 37 38 40 40 41 40 36 34 37 30 39 34 28 27 31 32 31 31 32 33 32 33 31 31 31 30 29 27 25 25 25
46 46 47 47 47 47 47 48 48 47 50 50 46 39 41 35 29 30 27 31 31 34 35 34 33 36 36 37 35 36 32 30 38 31 27 25 27 29 29 30 29 31 31 30 29 29 29 27 27 25 23 23 23 22
45 45 45 45 45 45 45 46 47 50 51 39 34 25 29 27 28 29 29 31 31 33 33 36 36 36 37 33 33 30 30 34 27 25 22 25 25 27 28 28 27 25 25 24 24 24 23 23 22 22 22 22 21 20
44 45 46 45 45 45 45 46 47 49 43 33 33 24 25 28 29 30 31 32 33 34 34 38 39 39 33 30 31 30 26 24 25 23 24 26 26 27 27 26 25 24 24 24 24 23 22 22 21 21 22 22 21 20
46 47 44 45 45 44 46 48 48 46 37 30 29 26 29 29 28 29 30 30 33 33 36 42 34 30 27 30 26 22 25 22 22 24 25 26 24 24 24 25 25 25 25 24 24 23 23 22 21 20 21 20 19 19
46 47 44 44 44 44 45 46 43 35 31 28 24 29 29 28 26 27 30 30 34 34 31 36 27 24 33 26 21 24 20 22 24 24 25 25 24 24 24 24 24 25 24 24 24 24 23 24 23 22 20 20 21 20
49 47 45 45 48 47 45 43 37 33 24 28 25 26 27 29 29 29 30 34 35 35 35 26 34 25 22 20 21 21 23 24 25 24 24 24 24 24 25 24 24 24 24 24 24 24 24 23 22 21 21 23 23 23
48 49 45 46 48 46 38 37 40 26 26 28 29 30 29 29 31 32 32 34 36 37 34 30 24 22 21 24 22 23 24 25 24 24 24 24 25 24 24 24 24 24 23 23 23 22 22 23 24 25 26 26 24 23
44 45 45 45 47 43 34 34 43 33 27 28 32 29 30 29 31 30 29 31 32 30 24 21 21 23 23 26 29 27 27 29 28 25 24 25 26 25 24 25 25 24 24 23 24 24 25 24 24 24 24 24 22 20
46 44 46 50 46 44 39 36 33 33 32 29 33 33 27 30 28 27 27 32 26 24 22 24 23 25 28 29 30 29 29 30 28 29 26 23 25 26 25 25 25 25 25 24 23 22 22 22 23 23 22 20 19 19
48 43 48 47 40 39 36 40 35 36 33 31 32 33 28 25 25 25 31 25 21 23 26 25 26 27 25 24 26 27 26 26 25 25 24 25 24 24 24 25 26 23 24 24 24 22 21 22 22 21 20 18 20 19
44 47 43 41 33 33 28 38 31 33 27 28 32 27 26 26 27 33 23 24 22 26 27 27 26 27 25 26 27 27 28 28 26 25 25 25 25 25 25 24 25 22 21 22 24 22 19 15 17 18 19 20 19 16
42 32 30 31 33 25 32 29 35 32 31 28 26 22 24 26 30 26 19 21 23 26 25 25 27 26 26 26 25 25 26 28 26 25 26 25 24 23 24 23 23 22 22 23 22 20 20 17 13 19 18 18 17 17
32 24 28 25 32 28 26 26 26 28 23 25 22 22 23 29 23 20 18 20 23 23 24 27 28 28 26 25 25 24 25 28 26 23 24 25 23 23 22 22 21 21 22 21 19 18 17 17 17 17 16 17 14 12
21 22 25 27 27 28 28 24 24 24 24 21 20 24 26 24 19 16 21 22 22 23 24 25 25 25 26 27 25 24 24 26 27 23 22 23 22 21 21 20 19 18 20 19 19 18 16 15 15 11 14 11 6 10
20 21 25 30 31 30 27 28 29 26 22 19 22 21 22 16 14 18 23 26 24 26 28 28 29 28 26 24 23 23 23 22 21 21 21 21 20 20 19 18 15 17 19 17 18 17 16 15 14 13 13 15 14 13
22 23 17 19 21 25 20 21 20 19 20 23 24 15 15 16 16 22 23 25 25 26 25 26 27 27 25 23 22 21 19 18 18 19 20 20 19 18 16 17 15 12 15 14 15 15 15 15 14 13 12 12 12 13
20 23 20 10 16 17 16 18 18 19 21 24 19 16 15 18 22 20 22 24 26 25 22 20 19 21 21 21 21 22 22 22 16 11 11 16 17 15 17 17 17 16 17 16 9 11 13 12 12 12 12 12 13 12
17 24 16 13 12 12 13 18 16 18 22 22 21 18 17 17 20 24 23 23 22 21 22 21 21 22 19 19 16 16 19 18 16 15 15 14 15 16 16 16 15 15 15 15 14 14 9 12 12 11 10 11 12 12
24 23 18 17 13 15 17 18 20 21 21 21 23 19 16 17 18 20 20 21 21 20 20 18 18 20 19 18 20 17 16 14 10 11 13 15 15 15 14 13 13 14 14 12 11 11 11 10 11 11 10 9 9 7
21 18 15 12 13 17 20 22 21 20 21 19 18 19 19 20 16 18 19 21 20 20 15 20 19 18 18 17 15 13 11 13 12 12 11 14 14 11 13 12 11 12 11 10 10 10 8 8 8 8 8 7 7 6
20 20 20 18 15 17 18 21 21 18 20 19 17 18 17 19 14 16 18 19 19 20 19 19 18 16 14 15 14 13 13 11 7 7 6 4 3 7 11 13 12 11 9 9 9 9 7 7 7 7 6 5 5 5

GFSWCAN_sfc_temp_078.txt.gz
Temp
47 47 47 47 47 47 48 48 48 48 48 48 48 49 49 49 48 46 45 51 43 36 42 48 50 44 45 45 38 41 38 38 36 32 33 36 36 41 41 45 39 39 34 34 36 33 30 59 57 45 50 53 57 57
47 47 46 47 47 47 47 48 48 48 48 48 48 48 49 48 47 48 42 50 50 39 43 52 53 55 54 51 41 40 38 39 45 39 42 42 37 41 42 36 48 35 45 40 43 42 56 60 54 58 59 55 54 55
46 46 46 46 47 47 47 47 47 48 48 48 48 48 49 48 48 48 43 46 44 37 37 42 44 54 59 57 55 35 43 48 43 42 39 39 36 44 36 41 45 48 50 43 44 52 54 48 55 57 58 56 57 56
46 46 46 46 46 47 47 47 47 48 48 48 49 48 48 48 48 48 41 43 41 38 31 40 57 50 58 60 56 49 48 52 48 42 36 38 36 45 40 45 45 49 47 44 41 44 49 47 48 54 54 54 53 54
46 45 45 46 46 47 47 47 47 48 48 48 48 48 49 49 49 47 44 44 45 42 35 41 52 58 58 56 54 55 51 47 43 38 36 35 46 44 47 47 44 50 43 39 38 47 46 43 49 51 49 48 49 50
45 46 47 47 47 47 47 47 47 48 48 48 48 49 49 48 49 43 33 43 46 46 36 34 48 52 56 56 53 50 48 46 41 37 36 42 51 46 38 39 43 47 50 49 44 49 50 48 47 47 46 46 47 46
45 47 47 47 47 47 47 47 47 47 48 48 48 48 48 48 45 38 39 45 47 46 38 35 39 51 56 52 49 48 50 43 40 36 36 41 45 43 39 36 37 39 44 47 47 48 47 43 39 42 43 44 45 42
46 47 47 46 46 46 48 47 47 47 48 47 48 48 48 48 45 41 48 48 49 41 44 33 35 41 52 41 39 45 38 39 38 38 39 40 45 44 33 37 40 40 43 42 41 46 43 43 43 41 42 42 40 35
46 46 45 46 45 46 48 47 47 47 48 48 48 47 43 41 37 41 48 48 49 43 35 35 33 32 46 39 41 39 38 33 39 35 39 43 40 29 28 30 33 34 34 35 40 42 42 39 36 35 34 33 31 29
46 45 45 46 46 47 47 47 47 48 47 46 44 38 33 40 48 46 41 34 37 39 42 38 44 35 44 40 38 38 38 35 32 36 42 36 28 33 36 36 36 35 36 36 32 31 33 33 32 31 29 29 28 26
45 46 46 46 46 47 47 47 46 46 47 42 37 36 43 46 41 37 33 33 34 33 41 42 40 37 46 38 37 40 35 37 31 33 33 31 26 28 33 33 34 35 35 34 34 32 32 31 30 29 27 27 26 25
47 47 46 46 46 46 46 46 47 46 45 44 41 43 41 38 35 33 32 34 35 35 39 39 39 41 40 41 37 35 32 35 30 38 33 25 25 30 31 30 30 31 31 30 31 29 29 29 29 27 26 24 24 24
46 46 45 46 46 46 46 46 47 46 48 48 43 36 36 35 30 29 27 31 31 34 35 36 34 37 39 39 35 36 31 30 38 32 25 24 27 29 29 30 29 30 29 28 27 27 26 25 25 24 22 22 22 21
44 44 45 45 45 45 44 46 47 48 48 39 35 26 30 28 28 27 29 30 31 33 33 38 35 37 35 33 32 31 31 34 29 27 20 23 25 27 28 28 27 24 24 23 23 23 22 22 21 22 21 21 20 19
45 44 44 45 45 46 47 47 49 50 43 34 35 25 26 29 31 32 33 33 33 34 34 36 37 37 32 30 32 31 27 25 24 20 22 24 25 26 25 26 25 24 23 23 23 22 21 21 20 20 20 20 20 19
46 47 45 45 45 46 47 49 49 46 38 33 30 28 31 30 29 30 31 31 33 34 36 40 34 30 28 31 28 24 26 21 21 23 25 25 24 24 24 24 25 25 24 23 23 22 22 20 20 19 20 20 19 19
47 48 44 45 46 47 47 47 43 32 32 29 26 30 30 30 28 29 31 31 35 34 32 36 29 25 34 27 22 23 19 21 23 23 24 24 24 23 24 24 24 24 24 24 23 23 23 23 23 21 19 20 20 20
47 46 45 46 47 48 47 45 38 33 26 29 26 27 29 30 29 29 31 36 36 35 34 28 35 25 22 22 20 21 23 24 25 25 24 25 25 25 26 24 25 25 24 24 24 23 23 22 21 21 21 22 23 23
48 48 44 45 46 47 38 38 40 27 27 29 30 30 30 29 31 32 33 36 37 38 35 31 25 21 21 24 22 23 25 25 23 23 24 25 25 24 24 24 24 24 24 24 23 23 23 24 24 25 26 26 23 23
45 45 45 46 46 43 35 35 43 33 28 29 32 30 30 29 31 31 32 33 33 30 24 22 22 24 24 26 29 27 28 29 27 24 23 24 26 25 25 25 25 24 24 23 24 24 24 23 23 23 23 22 21 19
47 47 47 51 46 45 40 36 33 33 33 30 32 32 28 31 28 28 27 32 27 24 21 24 24 25 27 29 30 29 27 29 26 27 25 23 25 26 25 25 26 26 24 24 22 22 22 21 22 23 21 19 19 18
47 44 48 47 40 39 36 40 35 37 33 32 32 33 28 26 25 26 31 24 22 24 26 25 26 27 25 25 26 27 27 28 27 27 25 26 24 24 24 25 25 23 23 23 23 21 21 21 20 21 19 18 18 16
42 47 44 41 33 32 29 39 31 33 27 28 32 28 27 26 28 34 23 24 23 27 28 28 28 28 26 28 29 29 30 29 26 25 26 25 25 25 25 25 25 22 21 22 24 21 18 13 16 18 18 18 17 15
43 34 31 32 33 26 33 30 36 33 32 30 27 24 25 26 31 26 20 21 24 27 27 26 28 26 27 27 26 26 27 29 26 26 27 26 23 23 24 23 22 21 22 22 21 20 19 17 10 18 17 17 15 16
33 25 29 27 33 29 27 27 29 29 25 27 24 24 24 30 24 22 20 21 24 25 26 29 29 29 26 25 25 24 27 29 26 23 24 25 24 23 22 22 21 20 22 20 18 18 16 16 17 16 16 15 14 13
22 24 27 29 30 30 29 25 26 26 26 23 23 26 29 25 21 18 21 23 24 24 25 26 26 27 27 28 25 24 23 27 27 22 22 23 22 20 20 19 19 16 20 19 18 17 16 15 14 13 14 9 2 9
22 23 27 34 34 32 29 30 31 27 23 21 23 23 24 17 16 18 24 27 25 27 29 29 30 28 25 23 24 23 23 22 21 21 22 21 21 20 18 14 14 15 19 17 17 16 15 15 14 13 13 14 14 13
24 25 19 23 24 28 23 24 23 21 22 26 26 18 18 18 17 22 24 26 27 28 27 27 27 27 25 23 23 21 20 19 19 20 20 20 20 18 17 15 14 13 14 12 13 14 14 14 13 13 13 12 12 13
23 25 21 13 19 19 18 20 20 20 24 27 21 17 16 20 22 22 24 26 27 25 22 21 20 22 22 23 23 23 23 20 18 14 14 15 15 13 17 16 16 15 16 15 10 11 13 12 12 10 11 11 12 12
21 27 18 16 14 12 16 21 19 21 24 22 21 19 19 20 22 26 25 25 23 22 22 22 22 22 20 19 17 17 18 18 16 14 13 13 13 15 16 15 15 14 14 14 14 14 11 12 14 11 8 10 12 12
27 26 20 18 15 17 19 23 24 25 24 22 23 18 15 16 19 21 22 23 23 22 21 20 20 21 20 19 19 18 13 13 11 11 14 16 15 15 13 12 13 13 13 12 11 11 10 9 11 11 11 10 8 7
24 20 17 13 14 20 21 23 22 20 21 20 18 21 21 20 16 18 21 22 21 20 19 21 19 17 18 17 15 14 12 14 13 13 13 14 13 12 12 12 12 12 11 10 11 10 10 8 8 8 8 8 7 5
22 21 20 18 16 18 20 23 22 20 21 20 18 20 18 20 14 16 20 21 21 21 19 18 17 16 16 16 15 14 12 9 7 8 6 5 3 5 7 13 12 11 10 9 9 10 9 8 7 6 5 4 4 4

GFSWCAN_sfc_temp_081.txt.gz
Temp
47 48 47 47 47 47 47 47 47 48 48 48 48 49 48 49 49 45 42 45 40 35 38 41 42 38 39 37 30 35 33 35 34 25 28 28 26 33 35 37 33 33 30 28 29 25 24 52 52 42 43 49 50 51
47 47 46 46 47 47 47 47 47 47 48 48 48 48 48 49 49 47 38 46 46 37 36 44 45 46 44 43 40 37 33 36 38 33 31 32 27 31 36 28 42 31 39 33 36 34 45 47 47 49 50 47 49 49
46 46 46 46 46 46 47 47 47 47 47 47 48 48 49 49 49 48 40 43 41 36 34 35 37 47 51 48 47 34 38 40 41 38 35 35 31 35 29 33 38 40 42 38 38 41 42 43 48 50 50 50 50 50
46 46 46 46 46 46 46 46 47 47 47 47 48 48 48 49 49 47 40 43 40 36 24 32 48 42 50 50 49 44 43 42 43 38 35 33 33 40 33 35 36 41 42 38 38 41 42 41 42 47 48 49 50 48
46 46 46 45 45 46 47 47 47 47 47 48 48 49 49 48 48 46 44 43 44 38 30 34 43 49 51 48 46 47 44 42 37 35 34 33 38 38 39 39 36 43 37 36 33 38 39 37 43 46 44 44 42 43
45 45 45 45 46 47 47 47 47 47 47 48 48 49 49 48 48 42 33 42 45 42 35 28 41 42 46 48 44 43 43 40 38 38 35 38 43 40 30 32 36 37 42 41 34 41 39 39 41 43 42 41 39 36
45 45 45 46 47 47 47 47 47 47 47 48 48 48 48 48 45 37 37 41 46 44 34 31 31 44 47 46 41 39 42 38 40 37 35 36 38 40 33 30 36 37 40 40 42 41 37 38 35 40 40 39 37 34
45 45 46 46 46 46 46 46 47 47 47 48 48 48 48 48 45 40 44 47 46 39 38 30 30 36 44 35 33 39 36 39 38 37 37 34 39 37 29 31 34 35 37 37 38 42 40 38 36 34 35 35 31 29
44 45 46 46 46 46 46 46 47 48 47 48 48 48 42 40 37 40 48 47 46 40 32 32 28 30 40 37 37 37 38 32 38 33 35 37 32 22 26 27 30 32 32 32 37 36 36 33 31 30 29 29 27 25
46 45 45 45 46 46 47 47 47 47 48 47 44 37 32 39 47 46 39 36 36 38 37 31 36 32 37 35 32 34 35 32 30 33 37 31 25 30 32 32 31 30 32 31 28 27 29 29 27 26 25 25 25 23
45 46 46 46 46 47 46 47 47 47 47 41 36 35 42 47 40 35 31 31 32 30 32 36 37 34 41 33 32 34 32 32 28 30 30 27 22 25 29 29 30 31 31 30 29 28 28 28 26 25 24 24 23 22
46 46 46 46 47 47 46 46 47 45 42 42 41 42 40 36 33 31 30 31 31 28 34 30 35 38 36 39 32 33 31 31 25 34 31 20 22 27 28 27 26 27 27 26 27 26 26 25 24 23 22 21 21 21
45 46 46 46 46 46 46 46 46 47 47 44 39 35 34 31 28 28 22 24 28 32 34 35 33 34 35 36 32 32 28 28 32 28 17 19 24 25 25 26 24 25 25 24 23 23 22 22 22 21 18 19 18 17
45 44 44 45 44 44 45 46 46 45 44 35 31 22 26 25 23 23 27 28 31 32 33 33 33 31 32 31 29 28 28 29 25 19 13 18 19 22 24 25 22 19 18 18 17 17 18 19 18 18 18 18 17 16
45 45 45 44 45 45 46 48 48 44 37 30 29 21 21 24 28 30 31 31 31 33 33 33 30 31 26 24 24 24 21 19 18 10 13 17 18 20 18 20 17 18 15 17 15 16 15 16 17 17 17 18 18 17
45 45 43 45 46 47 47 47 43 40 33 29 27 25 28 25 24 27 29 29 32 32 33 32 30 26 25 25 24 17 20 11 12 17 18 17 19 19 19 20 19 20 20 20 20 19 19 17 17 17 17 17 16 15
46 42 44 46 47 47 48 41 34 31 29 27 21 25 26 24 25 26 28 29 33 32 25 29 25 23 28 23 15 15 9 13 18 20 21 19 17 16 19 20 20 21 21 21 21 21 20 20 19 19 16 17 18 18
42 41 45 46 45 45 42 40 33 30 24 25 21 23 24 26 25 26 26 29 29 27 28 24 29 17 12 13 11 15 19 21 22 20 21 22 22 22 21 19 19 20 19 18 18 19 20 19 19 17 19 20 21 20
43 43 45 45 44 40 34 34 34 24 25 26 25 25 24 24 26 27 28 29 31 31 28 24 16 14 14 17 18 19 18 17 18 17 18 17 20 18 17 19 20 19 20 20 20 19 20 21 21 21 21 22 18 18
45 45 45 46 45 37 33 31 37 28 24 26 28 25 25 26 27 24 26 28 28 25 19 17 17 21 21 23 23 21 19 22 20 18 19 19 21 20 21 20 19 20 20 20 21 20 21 20 20 19 18 17 15 12
45 43 45 46 40 39 33 30 29 29 29 26 28 28 25 27 24 22 22 27 22 20 18 20 19 21 23 24 25 23 23 23 24 21 17 18 19 20 20 20 22 23 19 17 14 15 15 12 15 16 9 1 2 4
42 44 40 41 33 34 31 33 30 31 28 28 28 29 25 21 20 22 26 20 18 21 20 19 20 21 21 20 19 22 21 23 22 21 19 20 18 18 17 18 18 12 12 11 15 12 10 10 11 11 5 7 8 4
44 43 36 35 28 25 25 34 27 30 22 24 27 24 23 20 23 28 15 20 19 21 23 23 24 25 23 25 26 27 27 25 20 18 18 15 14 13 13 14 14 11 11 11 15 12 6 5 6 3 4 6 3 -2
40 31 28 26 26 23 28 24 30 28 27 25 22 20 21 19 25 18 14 16 19 21 21 23 22 21 23 24 19 19 20 22 19 17 17 17 14 12 14 14 13 11 12 13 13 10 9 0 1 9 -1 -2 -2 2
24 20 23 17 25 20 17 19 22 23 16 20 18 16 17 24 16 14 12 16 18 18 18 23 25 24 19 14 15 16 22 22 18 14 15 16 13 13 13 14 13 13 13 12 11 4 -1 -1 -1 2 -0 -2 2 -5
13 15 20 21 21 20 21 15 16 17 17 14 14 20 21 17 11 11 16 19 18 15 18 18 16 20 19 21 17 15 15 19 19 14 14 16 14 7 7 7 10 9 10 2 1 6 4 -1 -1 -1 -5 -1 -4 -7
11 12 23 29 29 28 20 22 25 19 13 11 13 13 11 2 2 13 21 20 20 22 22 22 24 21 17 17 17 16 15 14 13 15 15 15 14 12 6 1 3 5 8 5 1 -3 2 3 0 -1 -5 -5 1 0
19 21 10 17 16 21 14 14 12 10 11 19 15 5 3 4 9 16 20 21 20 21 20 19 20 20 18 16 14 10 7 8 8 10 11 10 8 4 3 1 1 9 -1 -4 -5 -4 -4 -5 -3 -0 0 -3 -7 -6
15 19 16 7 11 12 12 11 10 15 18 18 6 5 7 17 18 19 19 19 20 18 15 13 9 9 13 14 14 14 10 5 6 -1 -3 3 3 1 1 0 -1 -1 0 3 6 1 -1 -3 -5 -6 -6 -7 -7 -7
15 21 11 6 4 6 12 17 8 12 15 13 17 17 16 17 19 18 17 21 19 14 11 10 9 9 5 6 2 3 5 0 -2 -1 -0 -1 1 1 1 -0 1 -0 -2 -3 -4 -1 7 1 -0 -2 -1 -3 -3 -2
22 17 11 10 7 13 18 20 20 19 17 15 13 11 9 11 12 17 19 15 12 11 15 9 7 7 7 8 5 5 -2 -3 -4 -3 -2 -2 2 -0 -5 -6 -5 -5 -5 -5 -7 -7 -8 -9 -9 -6 -6 -7 -9 -12
15 10 7 5 10 16 20 14 11 12 13 9 7 8 8 6 4 7 11 14 15 14 11 12 9 5 4 1 -1 0 1 -2 -3 -4 -3 1 -5 -6 -4 -3 -4 -2 -6 -7 -4 -5 -5 -8 -10 -11 -12 -11 -12 -12
14 13 13 10 6 7 13 12 12 13 12 10 9 12 8 5 2 6 12 13 17 14 11 10 8 7 6 4 2 -0 -3 -7 -5 2 -1 -3 -7 -5 -6 -4 -7 -5 -7 -8 -8 -8 -7 -7 -9 -10 -11 -12 -13 -14

GFSWCAN_sfc_temp_084.txt.gz
Temp
46 47 47 47 47 47 47 47 47 47 48 48 48 48 48 49 49 46 42 45 38 30 36 39 40 34 35 35 30 34 30 32 34 26 26 28 24 31 31 36 33 32 29 26 27 24 24 45 46 39 41 45 46 47
46 47 47 47 46 46 47 47 47 47 47 47 48 48 48 48 49 48 39 45 44 34 34 41 42 43 42 43 36 37 33 34 36 33 31 31 25 26 30 26 40 30 34 31 33 32 41 45 44 47 46 43 44 44
46 46 46 46 46 46 46 47 46 47 47 47 48 48 48 48 49 48 41 42 41 35 34 36 37 44 47 45 45 31 35 38 34 36 34 32 31 34 26 30 34 34 38 36 38 39 39 41 45 46 46 46 46 46
46 46 46 46 46 46 46 46 46 46 47 47 47 48 48 48 49 48 41 42 39 35 26 32 45 39 46 46 44 43 42 41 40 39 34 32 30 37 31 34 33 37 40 35 35 38 39 39 40 41 43 44 40 40
45 45 45 46 46 46 46 45 46 47 47 47 48 48 48 49 48 45 43 43 44 38 27 31 39 44 47 43 43 43 43 41 37 35 33 31 34 36 37 36 32 35 34 32 30 34 36 34 38 39 37 36 37 36
45 45 45 45 46 45 45 46 47 47 47 47 48 48 49 48 46 42 33 41 44 43 32 25 38 41 43 43 40 40 42 41 39 35 32 37 40 37 31 32 32 35 35 35 34 35 33 33 35 39 36 34 34 32
45 45 45 45 45 45 46 47 47 47 47 47 48 49 49 48 44 38 34 40 45 42 33 29 28 38 42 40 38 36 40 40 37 37 35 35 35 38 32 28 30 32 35 37 40 39 34 33 30 37 35 34 33 30
45 45 45 45 45 46 46 46 47 47 47 48 48 48 49 48 45 40 44 46 46 38 37 29 26 34 41 32 35 39 34 38 35 36 37 35 35 35 25 29 31 32 35 33 35 37 35 34 34 32 34 32 28 27
44 44 44 45 45 46 46 46 47 47 47 48 48 48 44 40 37 40 47 47 45 39 31 31 27 25 40 34 37 36 37 31 36 33 34 33 28 20 24 25 26 28 28 30 34 33 33 30 28 28 27 28 26 25
44 44 45 45 45 46 46 46 46 47 47 48 43 36 31 38 47 46 40 35 36 37 38 32 32 30 37 33 32 34 34 31 29 33 37 27 22 26 28 29 28 28 28 29 28 26 28 27 26 25 24 23 22 20
44 45 45 46 46 46 46 47 47 48 46 40 34 34 41 47 40 35 30 30 32 30 33 32 34 33 40 32 32 33 32 32 27 29 30 25 21 23 27 26 27 28 28 27 26 26 26 27 25 23 23 23 22 21
44 46 46 46 46 46 46 47 46 44 41 41 41 42 40 35 33 30 29 31 29 26 31 28 32 37 36 39 33 32 28 31 25 34 25 14 21 25 25 24 24 26 25 24 26 25 25 24 24 23 21 20 19 19
46 46 46 46 46 46 47 47 47 47 47 43 39 34 33 31 27 25 24 27 27 32 34 34 32 34 35 36 32 32 28 27 32 21 15 17 23 24 23 23 22 23 23 23 21 22 23 21 21 20 17 17 17 16
45 45 45 45 46 46 47 46 45 44 41 34 29 18 26 17 16 19 24 28 30 32 33 33 32 32 32 29 28 27 24 26 20 12 13 17 19 20 23 23 20 14 15 14 12 13 13 15 14 15 15 16 16 15
44 44 44 44 45 45 45 46 46 42 34 28 28 15 14 19 22 29 31 31 31 33 33 32 29 30 27 25 25 24 22 16 15 9 10 16 17 18 16 19 16 16 12 13 10 13 12 13 15 15 16 16 16 15
45 45 42 45 46 46 45 44 40 38 32 29 26 23 25 21 23 26 28 29 32 32 33 31 26 21 20 21 18 12 17 9 9 10 16 14 13 13 14 16 15 14 14 15 15 16 16 15 15 15 16 16 15 14
45 40 44 45 46 47 46 38 34 30 28 25 21 23 22 21 20 25 26 27 32 31 23 25 21 21 26 16 10 11 4 7 14 17 16 14 17 14 15 16 16 15 14 12 12 14 14 17 18 17 15 15 16 16
39 39 45 46 46 43 40 37 31 28 22 23 20 20 17 20 21 23 24 28 29 26 25 21 25 14 6 8 6 10 15 18 18 17 15 12 13 14 16 13 14 16 15 15 16 16 18 18 19 17 18 19 19 19
40 40 45 46 43 38 33 33 32 22 21 20 22 23 23 23 25 25 25 26 26 27 25 20 13 9 9 11 14 16 17 16 16 14 14 13 16 15 15 18 19 19 19 19 19 18 19 19 19 19 20 20 17 16
45 45 45 45 44 34 32 30 35 28 22 22 25 24 25 23 24 21 25 27 27 24 18 13 12 14 15 19 17 17 17 19 17 14 12 16 15 15 14 18 17 19 19 20 19 20 19 17 18 17 16 15 11 11
43 42 44 42 37 36 31 29 28 28 27 24 27 26 23 25 21 19 19 25 18 17 14 16 17 20 22 20 20 21 19 19 14 16 14 12 12 19 19 20 21 19 17 13 9 11 10 8 10 10 3 -4 -2 2
39 44 37 38 32 32 30 30 28 28 27 26 26 28 21 17 16 19 24 18 17 18 19 19 18 20 20 19 19 21 20 23 21 19 16 16 16 15 14 15 15 9 10 10 13 8 8 9 8 5 2 -3 0 1
41 40 33 32 25 24 23 31 24 28 21 23 26 23 19 18 23 26 14 18 17 19 17 19 22 24 22 23 25 25 25 23 18 17 17 14 14 11 10 10 9 7 7 8 10 7 4 3 3 -1 -2 -1 -1 -6
38 29 25 22 23 19 23 21 28 27 26 23 20 18 18 17 23 14 11 12 12 18 19 21 21 20 21 21 17 16 18 19 17 15 13 15 11 9 11 11 10 8 10 11 9 4 2 -4 -3 1 -7 -4 -5 -1
25 20 20 13 19 16 14 14 18 21 15 18 15 12 15 22 12 8 5 11 12 10 13 19 20 20 14 10 12 15 18 19 15 12 12 13 8 10 11 12 10 10 10 3 2 -3 -5 -10 -9 -7 -6 -10 -0 -2
12 13 18 15 16 19 18 12 12 13 14 10 11 17 16 11 5 5 11 11 8 10 10 17 19 17 15 17 13 12 12 15 16 11 11 13 10 5 2 2 1 3 5 -3 -2 -3 -4 -7 -8 -7 -10 -7 -8 -12
8 9 21 28 26 25 17 18 21 16 8 7 9 6 3 -4 -3 10 17 13 16 13 17 20 21 17 14 13 14 12 12 13 11 12 12 12 11 8 2 2 1 5 4 -2 -7 -6 -4 -4 -6 -8 -10 -7 -6 -7
16 16 10 12 11 15 5 8 6 5 6 15 11 -1 -2 -0 6 14 16 16 16 18 17 17 18 17 14 12 9 7 5 5 8 8 8 7 4 -1 -2 -3 -3 5 -6 -10 -10 -12 -10 -9 -7 -7 -9 -10 -11 -12
8 15 14 4 7 8 9 6 5 12 16 12 0 -1 5 14 12 15 13 15 15 16 14 12 6 10 11 10 6 5 -0 0 1 -3 -7 -6 -5 -2 -6 -7 -8 -8 -9 -5 1 -4 -6 -8 -10 -10 -11 -11 -12 -16
10 16 6 1 1 3 5 6 2 2 11 10 15 16 14 13 17 14 15 13 10 7 4 10 5 8 1 0 -7 -3 -6 -12 -9 -4 -7 -7 -3 -2 -6 -7 -8 -10 -13 -12 -11 -8 1 -8 -4 -9 -8 -8 -9 -12
16 9 4 3 7 10 12 12 14 13 5 8 3 4 6 10 12 16 15 6 9 9 10 8 4 -0 0 -6 -9 -10 -7 -7 -12 -10 -6 -5 -8 -10 -11 -12 -13 -15 -14 -14 -14 -15 -15 -15 -17 -17 -16 -15 -17 -18
4 -0 3 3 8 10 11 2 1 4 -1 -1 -1 -2 3 0 0 5 11 8 5 6 -2 2 3 -3 -8 -9 -8 -7 -5 -9 -11 -10 -8 -10 -14 -15 -12 -9 -13 -14 -14 -14 -14 -12 -10 -12 -15 -16 -16 -15 -17 -18
5 3 4 5 3 3 5 7 5 9 6 5 5 5 0 -4 -2 4 9 9 7 7 6 -1 -0 -1 -1 -2 -3 -8 -10 -13 -11 0 -5 -7 -11 -9 -15 -17 -18 -17 -15 -16 -17 -17 -14 -14 -14 -15 -16 -18 -19 -20

GFSWCAN_sfc_temp_087.txt.gz
Temp
46 46 46 47 47 47 48 48 47 47 47 48 48 48 48 49 49 46 42 45 37 27 30 37 38 32 33 32 26 32 30 30 32 28 26 27 24 30 29 33 32 28 26 24 27 25 23 43 43 36 38 42 43 44
46 46 46 46 46 47 47 47 47 47 47 47 47 48 48 48 49 48 40 44 44 35 32 38 41 42 40 39 33 33 32 33 35 32 31 32 26 25 28 23 36 24 32 31 33 30 41 43 42 44 45 42 43 43
46 46 46 46 46 46 46 46 46 47 47 47 47 48 48 48 49 48 42 42 40 34 33 32 33 43 44 42 43 29 32 38 35 35 33 32 29 34 25 27 33 34 35 32 34 38 39 40 41 43 42 39 40 41
45 45 46 46 46 46 46 46 46 46 46 47 47 47 48 48 49 48 41 43 40 36 28 31 43 38 44 44 41 41 39 41 40 38 34 32 30 35 30 32 33 35 35 34 33 35 37 37 39 39 39 39 36 35
45 45 46 46 46 46 46 46 46 46 46 47 47 47 48 48 48 46 43 43 42 36 26 28 37 42 44 41 40 39 41 39 35 35 32 30 31 35 34 36 29 34 30 29 29 32 33 32 36 37 34 32 33 33
45 45 45 45 45 46 46 46 46 46 47 47 48 48 48 48 46 41 33 42 43 42 32 24 35 38 40 39 38 38 39 38 38 35 34 34 39 37 26 28 30 33 34 35 34 34 32 32 33 34 32 32 31 30
45 45 45 45 45 46 46 46 45 46 47 47 47 48 48 47 44 38 34 39 45 43 32 28 27 37 40 37 35 34 38 37 38 36 33 35 33 37 32 26 29 32 33 34 35 36 33 32 30 34 32 32 31 29
44 45 45 45 46 45 45 45 46 47 47 48 48 48 47 47 46 40 44 46 45 38 36 28 28 31 39 31 32 38 34 35 37 33 36 34 36 33 25 27 29 31 33 32 32 35 33 34 33 31 32 30 27 26
44 44 45 45 45 45 45 45 46 47 47 48 48 48 44 39 37 39 46 47 44 38 30 30 26 22 38 34 37 35 33 25 34 29 31 34 29 21 23 25 26 28 27 28 32 32 32 29 28 27 26 26 25 23
44 44 44 44 44 44 45 46 46 47 47 48 43 37 31 37 46 45 40 35 35 37 37 30 32 29 37 34 33 33 32 25 28 31 35 26 19 25 26 26 27 27 28 28 28 27 27 25 25 23 22 22 21 20
44 43 43 44 45 45 45 46 46 46 47 39 33 34 40 47 40 35 30 30 31 30 33 33 31 30 38 31 29 31 31 31 27 27 30 23 18 21 25 25 27 27 27 26 26 25 25 26 24 23 22 23 21 20
42 43 44 45 45 46 46 46 46 42 38 38 41 42 40 36 32 30 27 30 29 26 28 29 34 37 35 38 33 32 28 30 24 32 23 12 20 24 24 24 24 24 24 23 26 25 25 24 24 22 21 19 18 17
43 45 46 46 46 47 47 47 46 46 46 43 39 34 34 31 26 18 21 26 26 31 32 34 32 34 34 32 31 29 27 23 32 20 13 15 22 24 22 23 21 23 23 22 22 23 22 20 20 19 15 16 15 14
45 46 46 46 46 46 46 46 47 45 41 33 30 22 26 13 16 18 19 25 31 32 33 33 32 31 32 28 30 27 27 26 17 9 10 15 19 21 22 22 19 14 14 12 11 11 11 11 12 12 13 14 14 12
44 44 44 45 45 45 45 45 44 39 32 29 28 14 14 18 22 26 29 30 32 33 33 31 29 28 24 24 23 20 18 11 14 9 8 12 18 18 16 17 14 13 9 10 8 11 9 10 13 12 15 16 16 14
43 43 41 44 45 45 45 43 40 38 32 29 25 23 23 19 22 24 28 29 32 32 33 32 25 21 20 19 18 11 17 13 9 9 12 14 16 10 12 14 12 12 12 9 8 10 10 8 8 9 12 12 10 12
45 37 42 43 43 44 44 38 35 31 28 25 20 21 15 12 16 24 26 27 30 31 24 23 17 18 23 16 13 13 5 4 13 12 12 10 13 15 14 13 11 13 12 10 10 12 10 12 13 15 12 14 15 14
38 42 45 46 44 43 39 36 30 28 22 22 21 20 16 17 17 24 25 27 29 27 24 19 24 13 8 10 5 7 10 12 12 14 13 10 9 8 13 12 10 13 12 11 13 12 14 15 17 16 16 17 17 17
39 42 45 46 44 37 32 31 31 22 22 23 23 22 23 21 24 23 23 25 26 27 25 19 13 8 5 7 7 10 11 13 16 11 11 9 10 13 12 13 14 13 14 14 18 17 17 19 18 19 19 19 16 15
44 45 45 46 43 34 31 30 33 26 21 23 26 24 24 23 23 19 23 25 27 23 14 10 8 14 16 16 12 14 11 16 16 13 14 12 10 12 10 14 12 16 18 19 19 18 18 17 17 16 15 14 13 10
42 41 43 41 36 35 31 30 26 26 26 23 27 26 22 23 20 18 19 23 16 16 12 14 12 17 18 17 19 19 17 18 13 14 12 12 12 14 16 15 16 14 12 9 9 10 10 9 8 9 0 -4 -3 0
38 44 36 37 32 32 30 30 27 26 25 25 25 26 19 12 13 15 21 15 14 14 15 17 18 18 19 17 17 19 18 20 17 15 14 15 13 13 13 10 13 10 13 9 12 5 6 8 7 5 -3 -7 -3 2
42 40 33 33 27 26 22 30 23 26 18 20 23 19 14 13 18 25 12 17 16 17 17 18 21 23 21 22 23 23 24 21 17 15 14 11 10 7 8 7 6 5 4 6 8 5 3 1 1 -1 -4 -4 -4 -9
38 30 27 23 25 21 22 19 27 25 23 21 18 15 17 17 22 12 9 8 14 18 18 20 20 18 19 19 15 15 17 17 14 13 12 12 9 7 9 8 8 6 8 9 7 1 -1 -7 -6 -3 -9 -11 -12 -8
25 20 21 14 19 16 14 13 17 19 12 15 13 11 14 19 8 3 6 8 10 8 11 17 19 18 14 9 11 13 17 17 14 10 10 10 7 8 8 9 8 8 7 -1 -3 -5 -8 -13 -13 -11 -8 -11 1 -2
12 12 16 12 14 17 16 12 11 12 12 9 10 14 13 6 0 0 10 8 4 7 4 12 11 13 14 14 12 11 11 14 14 10 9 11 9 4 2 0 -0 2 4 -6 -6 -6 -5 -9 -11 -9 -11 -9 -11 -14
7 9 21 25 24 23 15 16 20 14 7 7 10 6 2 -6 -4 8 13 10 13 10 15 17 20 16 13 11 12 10 10 11 10 11 10 10 8 6 1 -2 0 5 3 -5 -9 -9 -6 -5 -7 -11 -13 -14 -15 -14
17 16 12 9 10 14 5 7 6 4 5 15 9 -3 -3 1 5 11 10 11 14 17 16 16 17 16 13 10 7 7 4 6 6 6 6 5 3 -2 -4 -6 -4 3 -9 -13 -13 -15 -13 -11 -8 -7 -9 -8 -10 -13
8 14 12 3 6 7 7 4 5 12 14 10 -2 -2 5 12 9 9 12 8 13 15 12 9 4 6 5 3 -1 -0 -4 1 -1 -6 -9 -11 -10 -4 -9 -10 -11 -12 -15 -9 -4 -8 -6 -7 -12 -13 -12 -13 -8 -15
10 14 6 0 2 3 2 5 3 5 11 8 12 14 11 12 15 14 13 11 9 5 0 7 2 4 -2 -1 -8 -5 -11 -15 -8 -2 -8 -12 -6 -8 -11 -8 -10 -13 -17 -15 -14 -11 -3 -12 -8 -14 -16 -17 -20 -19
12 5 1 4 5 5 6 3 11 7 -1 1 1 5 6 10 13 14 9 0 5 6 6 -2 -6 -10 -3 -10 -12 -11 -8 -10 -16 -13 -10 -10 -13 -12 -13 -15 -18 -20 -19 -18 -18 -18 -18 -19 -21 -20 -19 -16 -17 -20
-0 -4 1 1 5 6 6 -3 -0 0 -2 1 2 -2 -0 -1 -2 5 10 5 4 0 -4 -1 0 -3 -11 -13 -13 -13 -7 -9 -12 -11 -11 -14 -16 -17 -16 -15 -20 -19 -18 -18 -20 -19 -17 -15 -17 -19 -19 -17 -17 -18
-1 -4 -2 4 3 4 3 5 1 4 1 1 1 -1 -8 -6 -3 1 6 5 4 5 1 -7 -9 -6 -4 -3 -4 -11 -13 -16 -14 -3 -7 -9 -13 -12 -19 -22 -22 -21 -18 -19 -21 -21 -18 -16 -17 -19 -19 -20 -19 -21

GFSWCAN_sfc_temp_090.txt.gz
Temp
45 47 47 47 47 47 47 47 47 47 48 47 48 48 48 48 48 45 41 44 37 30 30 35 36 32 32 31 25 31 30 30 32 27 27 27 24 29 29 32 31 28 25 24 29 25 21 39 40 33 38 41 41 41
46 47 46 46 46 47 47 47 47 47 47 47 47 48 48 48 48 48 40 43 43 35 33 36 38 41 39 37 32 32 30 30 34 27 30 30 28 26 28 25 35 23 31 30 30 30 39 40 38 41 42 38 40 39
46 46 46 46 46 46 46 47 47 47 47 47 47 47 48 48 48 47 42 41 39 34 35 33 33 40 42 41 41 28 31 36 36 35 31 32 28 34 25 26 33 31 36 31 32 34 36 37 38 38 36 35 36 37
46 46 46 46 46 46 46 46 46 46 46 47 47 47 47 48 48 48 42 42 39 36 26 30 41 36 42 41 39 38 37 38 37 36 33 32 29 36 31 33 32 32 34 30 32 33 35 34 35 36 34 34 33 33
46 46 45 45 46 46 46 46 46 46 47 47 47 47 47 48 48 47 44 43 43 37 27 28 36 40 41 39 38 38 37 35 34 34 33 29 32 34 35 34 27 32 29 26 28 31 32 30 32 33 30 29 30 29
45 45 45 45 45 45 45 46 46 46 46 46 47 48 48 48 48 40 33 42 43 42 34 23 35 36 37 37 35 34 35 35 38 36 34 34 37 35 28 22 30 32 33 34 33 34 32 31 31 31 29 29 29 28
45 45 45 45 45 45 45 45 46 46 46 46 47 48 48 48 43 38 34 40 45 42 32 26 27 36 38 36 33 32 36 37 36 35 33 31 31 37 31 28 29 31 33 33 35 34 33 32 29 32 31 29 29 27
45 45 45 45 45 45 45 46 46 46 45 47 47 47 47 47 45 40 43 46 45 38 36 28 27 31 39 31 30 34 30 33 36 35 36 34 35 33 24 27 29 30 32 31 31 34 31 32 30 29 30 28 25 24
44 45 45 44 45 45 45 45 46 45 46 47 47 48 43 41 37 39 46 46 44 37 30 27 24 22 38 34 36 35 34 26 32 30 30 31 27 25 21 24 26 27 26 25 30 31 29 27 25 25 24 25 23 22
44 44 44 44 44 45 45 45 45 45 46 47 43 37 31 37 46 45 39 35 35 36 36 29 29 25 34 34 32 31 29 23 25 29 33 29 18 25 25 26 26 26 25 26 26 27 25 25 23 22 21 22 21 18
44 44 44 44 44 45 45 45 45 46 46 40 33 34 40 46 39 35 30 30 31 29 32 33 29 28 36 31 29 31 26 24 21 26 28 21 19 22 25 26 25 26 26 25 25 25 25 25 24 22 21 22 21 19
44 44 45 44 44 44 45 45 45 43 40 38 40 42 41 36 32 30 25 29 29 26 29 30 32 33 35 36 30 31 30 30 22 32 24 14 19 23 24 23 24 24 24 23 24 23 23 24 22 20 18 17 16 16
44 42 41 42 43 44 45 45 45 44 44 43 38 33 33 31 25 18 19 26 26 30 26 33 32 34 33 32 30 31 27 21 30 19 18 14 22 23 22 22 20 22 23 23 21 21 20 18 18 17 13 12 12 11
40 41 42 45 46 46 46 46 45 45 39 32 30 24 24 20 17 19 21 21 26 32 33 33 32 31 32 30 30 27 23 26 17 10 12 14 18 21 21 21 18 11 12 12 9 10 9 10 8 8 5 5 7 7
43 45 45 45 47 47 46 45 43 39 33 29 28 19 16 18 20 27 31 31 32 33 27 31 30 28 21 20 24 20 22 17 15 9 6 13 17 18 16 17 13 12 7 7 5 7 5 7 11 11 10 10 11 7
45 43 42 44 44 44 43 41 39 37 30 27 22 18 23 25 24 26 29 29 32 32 27 30 26 20 16 17 18 13 18 14 10 9 12 13 11 8 8 10 9 9 9 8 7 9 9 7 8 8 11 11 7 7
42 37 43 44 44 44 43 37 34 31 27 24 16 19 14 16 18 22 26 27 30 30 18 22 16 17 21 12 11 12 9 9 12 12 10 9 12 10 6 7 7 9 10 8 8 10 9 11 11 13 12 13 14 12
38 41 44 44 43 41 36 35 30 28 20 22 20 17 15 13 14 23 23 27 28 27 23 18 23 13 7 12 6 5 7 8 8 9 6 5 4 5 10 8 8 11 11 9 12 11 12 12 14 12 14 16 16 16
40 41 44 45 42 36 31 31 32 22 22 23 25 22 20 20 23 22 23 25 24 27 24 19 10 8 6 4 3 5 9 9 13 10 10 7 8 11 11 11 12 12 14 14 16 14 16 17 17 17 17 17 15 14
44 44 45 45 43 33 31 29 32 27 21 24 26 23 23 22 22 18 22 25 25 21 15 9 6 6 12 12 10 11 8 15 16 14 11 12 13 11 9 14 15 16 16 17 14 14 14 15 14 14 12 12 11 10
41 41 43 39 34 34 30 27 26 26 27 23 26 25 21 23 19 18 18 23 17 15 10 10 12 19 15 14 18 18 16 18 12 14 12 15 11 13 13 11 14 14 10 8 7 7 7 6 7 7 -2 -7 -6 -2
37 43 34 36 30 31 28 28 27 27 26 26 25 25 18 12 12 16 21 15 14 12 12 15 18 18 18 16 15 18 17 18 16 14 14 15 12 12 9 8 12 8 10 8 11 3 4 6 5 2 -4 -8 -4 -1
41 38 32 32 27 26 21 29 22 27 18 22 23 19 15 14 18 24 12 16 14 15 17 19 20 21 20 21 22 22 23 20 16 14 12 10 8 5 6 5 4 2 3 5 7 5 2 -1 -0 -6 -6 -5 -5 -9
38 29 23 22 25 19 20 16 26 24 23 18 16 12 14 13 18 11 8 8 14 18 18 18 19 17 18 18 14 14 16 16 13 12 11 11 8 6 7 7 6 5 6 7 6 -0 -2 -9 -9 -5 -9 -9 -12 -8
27 21 21 15 21 16 11 7 12 16 8 10 9 7 11 17 6 2 5 9 11 9 10 16 17 16 12 8 10 11 16 16 13 9 9 10 6 7 7 7 6 6 6 -3 -5 -6 -8 -14 -15 -13 -10 -15 -5 -8
15 14 16 13 13 14 12 7 6 7 7 5 7 13 9 4 0 -1 8 8 3 7 3 10 10 12 12 13 11 10 10 12 13 9 9 10 8 2 -2 -1 -0 2 3 -7 -8 -8 -6 -6 -9 -8 -11 -10 -13 -15
9 10 20 23 22 21 11 12 17 10 4 5 6 2 1 -4 -5 7 11 10 12 9 14 16 18 15 12 10 10 9 9 9 10 10 9 8 6 5 0 -3 -1 3 2 -6 -11 -11 -10 -8 -6 -7 -7 -13 -17 -15
14 14 11 6 7 12 1 1 0 1 3 14 9 -2 -2 -0 4 9 11 11 13 15 14 13 15 14 11 8 6 6 3 4 5 5 5 4 1 -5 -7 -9 -6 2 -11 -14 -15 -17 -14 -13 -13 -13 -13 -11 -9 -13
7 11 11 -0 3 5 5 1 4 11 13 9 -2 -2 3 10 7 8 14 10 12 14 10 7 1 3 3 1 -2 -2 -3 -1 -1 -5 -9 -11 -13 -5 -10 -13 -13 -15 -18 -12 -7 -8 -9 -9 -12 -15 -15 -15 -12 -15
7 12 3 -3 -3 0 0 5 3 3 10 7 10 11 10 9 13 13 12 10 7 3 -3 3 -1 2 -2 -0 -7 -5 -12 -15 -7 -1 -6 -10 -7 -11 -14 -12 -13 -17 -20 -18 -16 -13 -5 -13 -11 -17 -18 -18 -21 -21
10 4 1 2 1 3 4 0 3 0 -4 -3 -1 -0 2 8 12 12 7 3 4 5 5 -1 -6 -11 -4 -10 -13 -11 -8 -10 -16 -14 -14 -15 -16 -16 -16 -18 -21 -23 -22 -20 -20 -20 -20 -20 -22 -21 -20 -18 -16 -21
-3 -7 -0 -2 2 5 2 -6 -4 -1 -2 -1 -1 -4 -1 1 -0 6 6 -1 1 1 -4 -0 0 -3 -12 -15 -17 -15 -7 -6 -14 -14 -13 -16 -18 -20 -19 -18 -23 -22 -21 -21 -22 -22 -20 -18 -20 -20 -21 -15 -15 -16
-6 -7 -5 1 2 -0 -0 -1 -2 1 -2 -3 -2 -6 -9 -3 -0 2 5 4 3 3 1 -6 -11 -9 -11 -11 -9 -13 -11 -16 -15 -4 -9 -10 -14 -15 -22 -24 -24 -23 -19 -21 -23 -23 -20 -20 -19 -21 -20 -20 -18 -18

GFSWCAN_sfc_temp_096.txt.gz
Temp
48 48 48 47 46 47 48 48 48 48 48 48 47 48 48 48 48 47 42 45 40 38 45 44 45 42 43 42 36 41 41 41 39 35 35 34 34 37 37 38 36 37 35 34 35 31 27 36 47 38 35 39 39 37
47 47 47 47 46 47 47 47 47 47 47 47 47 48 48 48 48 48 40 43 44 37 38 46 48 50 49 48 42 44 37 38 40 37 38 35 31 34 34 32 43 32 34 32 32 29 34 35 33 34 36 34 35 36
47 46 46 44 45 47 47 47 47 47 47 47 47 48 47 48 48 48 45 42 41 35 38 40 44 51 52 50 53 40 45 43 41 41 35 34 31 40 31 34 35 36 40 34 33 32 33 34 35 34 34 33 33 35
46 46 46 45 46 47 47 47 47 47 47 46 47 47 47 48 48 48 45 44 41 37 32 43 50 47 52 52 50 50 47 48 47 42 38 34 32 43 37 38 36 39 40 33 32 34 36 35 34 35 34 35 34 36
46 46 45 44 45 46 46 46 46 46 46 46 47 47 47 48 48 48 47 48 47 38 33 41 49 50 50 49 48 48 46 45 42 41 38 36 45 40 41 40 37 37 31 32 31 32 33 30 32 32 31 31 34 36
45 45 45 46 46 46 46 46 46 46 46 47 47 47 47 47 48 45 34 46 50 47 34 34 48 45 46 47 46 45 46 45 44 42 39 36 43 40 35 32 32 34 36 34 32 33 32 31 32 33 32 34 35 35
45 45 45 45 46 46 46 46 46 46 46 46 46 47 47 47 44 38 40 46 48 44 34 35 39 44 45 45 45 44 45 45 44 43 39 40 43 43 36 33 33 35 36 36 36 36 32 35 33 36 36 35 34 34
45 45 45 45 45 45 45 45 46 45 46 46 47 46 45 46 45 40 47 46 46 37 36 32 36 38 44 40 39 46 41 40 40 40 39 39 44 43 33 33 36 37 37 36 36 38 37 36 36 35 36 35 33 32
44 45 45 45 45 45 45 45 46 46 46 47 46 46 44 41 37 40 46 46 45 40 36 33 33 31 42 38 40 39 43 32 45 36 38 40 37 31 30 34 34 34 34 34 35 35 35 32 32 32 32 31 29 27
45 45 45 44 45 45 45 45 45 46 46 46 42 37 32 39 46 45 40 35 36 41 41 33 42 34 38 35 34 34 39 37 31 36 39 34 34 31 32 33 32 32 33 35 32 30 31 29 28 28 26 27 26 24
45 44 44 44 45 45 45 45 45 46 44 39 33 35 41 47 41 37 32 32 34 31 37 37 39 37 42 35 34 38 35 37 31 36 33 32 31 28 31 31 33 34 34 33 32 31 30 30 29 27 26 26 25 24
45 44 44 44 45 45 45 45 45 41 39 39 40 42 40 36 34 32 31 33 31 32 38 34 35 42 40 39 38 35 32 34 27 37 31 29 26 29 30 29 30 31 31 30 31 29 29 28 28 27 26 24 23 21
44 44 45 45 45 45 45 45 45 43 43 41 38 34 34 33 29 27 24 29 30 35 36 36 33 39 36 36 34 34 29 29 36 30 31 29 27 29 29 29 27 29 29 28 26 27 26 25 25 23 19 19 19 18
44 44 45 45 45 45 45 45 45 43 39 34 33 29 30 28 32 33 34 36 37 37 36 37 34 34 34 32 34 29 32 33 28 26 28 27 26 26 27 26 24 19 19 20 20 20 18 18 17 17 17 18 17 16
44 44 44 45 44 45 45 45 44 40 33 33 34 29 28 32 32 33 36 36 35 39 36 35 36 40 33 31 32 30 27 27 30 30 27 27 26 25 23 23 21 19 17 18 20 18 17 18 18 17 18 19 17 15
43 41 41 44 44 45 45 44 36 35 34 33 30 28 30 31 30 32 33 33 37 38 40 42 32 31 30 32 27 28 28 28 27 27 27 26 23 22 21 21 20 20 21 20 20 20 19 18 19 20 20 19 17 17
39 36 41 43 43 44 44 35 35 31 31 28 27 29 31 32 32 31 32 34 36 37 34 37 28 29 32 29 27 29 28 26 25 25 28 27 24 21 20 20 19 20 21 22 21 22 21 21 21 22 21 21 22 20
37 42 45 44 42 40 33 35 32 30 25 29 28 28 29 29 30 30 32 33 36 36 37 32 36 29 28 27 29 26 24 24 27 27 27 24 23 22 24 23 21 22 22 21 22 21 21 21 23 26 23 23 23 23
40 41 43 43 41 36 32 31 36 26 27 29 28 29 29 28 30 31 32 31 37 36 34 34 29 31 29 28 26 25 25 27 24 25 23 23 23 22 22 23 22 23 23 23 24 26 27 24 25 26 27 25 23 25
41 42 43 43 45 39 31 31 40 32 28 29 31 29 29 29 29 29 29 32 33 34 30 28 28 27 28 27 29 29 29 29 27 24 23 25 26 24 25 26 28 26 26 25 25 23 26 25 27 26 25 24 23 23
43 41 43 44 40 40 33 32 31 32 31 29 30 32 28 30 29 28 28 30 29 27 27 26 26 26 26 28 31 30 29 30 29 30 27 25 27 28 27 27 27 28 27 26 25 24 21 24 25 25 23 22 21 22
43 43 43 42 34 36 33 37 34 35 32 29 29 31 27 26 27 27 29 27 25 25 27 28 28 27 27 27 28 31 28 27 27 27 26 25 25 25 26 27 27 25 25 25 25 23 24 25 24 23 21 21 17 21
43 42 37 36 31 31 28 37 30 32 26 26 29 25 25 25 27 30 24 26 25 27 28 29 28 30 28 28 29 29 30 29 28 27 27 27 26 26 26 26 27 25 24 25 26 25 23 14 18 20 20 19 20 19
39 31 29 29 31 24 29 28 33 29 28 26 25 21 22 25 27 25 22 24 24 26 27 26 28 26 27 27 27 26 27 29 26 25 26 26 24 23 25 25 25 24 24 25 24 23 22 21 11 19 18 17 17 15
30 23 27 23 27 25 24 24 24 26 21 23 21 21 22 26 22 22 22 21 23 25 26 28 29 29 27 25 25 24 25 28 26 23 24 26 24 22 22 23 22 22 22 21 21 20 19 17 16 16 16 16 15 14
20 21 23 23 25 25 25 21 22 21 22 20 20 23 25 23 20 20 22 23 24 24 24 26 26 25 25 27 24 23 23 27 27 24 21 24 24 23 22 20 19 20 20 19 18 17 16 15 14 12 14 14 7 9
19 19 23 25 26 26 23 24 25 24 20 19 21 19 21 18 18 19 22 24 25 27 29 29 29 28 25 22 21 22 23 23 22 21 20 20 19 20 20 19 16 18 18 16 16 15 14 13 12 12 12 13 13 11
20 21 19 16 17 20 16 17 16 15 17 21 22 16 18 17 16 20 22 23 26 26 24 23 26 26 24 21 20 19 17 16 15 17 17 17 17 16 14 15 13 9 14 12 14 13 13 12 12 11 11 11 11 12
17 20 20 8 13 13 12 13 15 17 18 20 17 14 13 16 17 20 20 23 25 25 21 18 16 17 16 16 17 19 19 19 17 13 12 16 15 14 15 15 15 14 14 15 7 10 12 11 11 11 10 10 10 9
15 20 14 9 8 10 12 15 15 16 18 18 19 17 16 16 17 20 21 23 24 22 21 19 18 19 16 16 13 13 14 13 14 17 16 15 15 14 13 14 14 12 13 13 12 12 9 11 11 10 9 10 10 10
18 18 13 13 11 15 15 15 16 17 17 16 17 17 14 16 17 16 16 17 16 16 16 14 14 17 16 15 16 14 13 11 7 9 12 12 12 12 11 10 11 12 11 10 9 9 8 8 9 8 7 6 5 5
15 12 12 10 11 15 16 18 17 16 17 17 15 16 15 17 13 15 13 16 16 16 14 17 15 14 13 12 11 11 11 9 9 9 10 11 11 9 10 9 8 9 9 8 8 7 6 5 5 6 5 4 3 1
12 13 13 14 13 13 14 16 15 14 16 15 14 12 11 14 11 13 15 14 17 17 16 15 13 11 10 11 10 9 8 7 7 6 4 2 2 5 9 10 9 8 6 7 7 6 4 3 3 2 1 -1 -2 -2

GFSWCAN_sfc_temp_099.txt.gz
Temp
48 47 48 48 48 47 48 48 48 48 48 48 47 47 49 49 49 49 43 47 42 40 47 49 50 45 46 47 39 45 44 44 41 37 38 36 35 40 39 43 39 38 34 36 39 36 29 37 46 36 32 36 38 39
48 47 48 47 47 46 47 48 48 48 48 48 47 48 48 48 48 49 42 46 45 39 45 51 52 53 52 51 47 48 41 43 43 38 40 35 35 38 40 31 47 34 37 33 32 29 34 37 35 36 37 34 35 36
47 47 47 47 46 46 47 48 48 48 47 48 47 48 48 48 48 49 45 44 40 36 42 47 49 55 58 55 56 43 50 49 42 46 37 35 32 43 35 37 40 40 46 34 33 33 35 37 39 38 37 34 36 39
46 47 47 47 46 46 47 47 47 47 47 47 47 47 48 48 48 48 45 46 42 40 36 45 57 52 57 57 54 54 51 52 50 49 39 36 34 47 39 42 39 40 43 37 32 35 36 37 36 37 38 40 40 41
46 46 46 46 45 46 47 47 47 47 47 47 47 47 47 48 48 50 48 46 51 43 34 40 52 56 56 54 52 52 50 48 46 41 41 38 45 43 46 45 36 40 33 33 30 33 34 32 34 36 34 34 39 40
46 46 45 46 45 46 46 46 46 46 47 46 47 47 47 48 48 47 36 51 52 48 40 36 51 50 52 52 51 50 50 48 46 42 40 45 47 42 36 36 35 36 39 36 33 35 33 32 34 36 37 39 41 40
46 46 46 45 45 46 46 46 46 46 46 47 47 47 47 48 47 39 38 42 50 47 37 36 42 48 50 50 49 47 48 44 44 41 43 44 44 44 37 36 36 38 41 41 38 38 35 37 36 41 41 40 39 39
45 46 46 45 45 45 45 46 46 46 47 47 47 46 47 47 45 40 48 46 46 38 38 34 39 42 49 39 39 46 41 42 41 42 42 42 46 45 34 39 41 41 41 40 40 41 40 41 41 40 41 41 38 36
45 45 45 45 45 46 45 45 46 46 46 47 47 46 42 39 36 41 47 46 46 39 35 35 35 32 48 42 42 44 44 35 46 37 38 45 41 33 32 39 40 39 38 39 39 40 39 37 36 36 36 35 34 31
44 45 45 45 45 45 45 45 46 46 46 46 43 37 32 39 46 45 40 36 35 37 42 35 45 36 44 42 39 37 41 38 34 39 45 37 37 37 37 36 37 36 38 39 34 33 33 33 33 32 30 31 30 27
45 45 45 45 45 45 45 46 46 46 46 41 34 34 42 47 42 38 33 34 36 33 40 39 43 39 47 35 36 42 37 41 33 37 36 34 33 31 36 36 38 38 39 37 37 36 35 35 32 31 29 29 28 27
45 45 45 45 45 45 45 45 45 46 42 40 40 42 41 37 35 32 32 36 34 35 42 37 40 45 43 46 41 41 34 37 29 41 33 31 28 33 34 33 34 36 36 35 36 34 33 32 32 30 29 27 24 23
44 45 45 45 45 45 45 45 45 47 44 40 36 33 34 34 30 29 26 30 32 39 39 39 35 39 42 41 35 36 30 31 42 32 33 30 31 33 34 34 33 34 33 32 31 31 30 28 28 27 23 22 23 20
44 45 44 44 45 45 45 45 45 44 37 33 32 29 31 29 34 36 38 39 41 40 39 38 36 38 37 32 34 30 35 37 30 28 29 31 29 29 30 29 27 23 24 25 24 23 21 21 20 21 21 21 20 19
44 45 45 45 45 45 45 45 45 40 34 32 34 30 30 36 37 36 38 39 40 42 41 38 39 39 36 33 34 33 29 28 32 31 30 30 29 28 27 27 25 22 22 22 23 21 20 20 21 20 22 23 21 19
44 44 45 45 45 45 45 41 38 36 35 34 34 31 34 33 31 33 35 33 41 40 43 41 35 32 31 33 30 29 30 30 29 30 29 29 27 27 25 24 24 24 25 24 23 23 23 22 22 23 23 22 20 20
43 43 45 45 44 44 42 39 36 34 34 30 30 32 34 35 34 33 37 35 38 37 35 39 30 31 37 31 30 36 30 29 29 28 30 29 27 25 24 23 22 24 25 25 25 25 24 25 24 24 23 23 24 23
41 43 44 45 45 39 36 36 35 33 28 32 31 30 32 32 33 33 34 39 38 40 41 35 42 32 30 30 33 30 30 30 30 29 28 28 27 25 26 25 25 26 26 25 25 25 25 25 26 27 26 26 27 26
40 44 43 44 43 39 35 34 38 30 29 30 30 33 33 31 34 36 35 39 44 46 43 40 32 35 34 33 32 30 30 30 27 27 27 28 28 27 27 27 26 27 26 26 27 30 30 27 28 29 30 30 28 29
41 42 43 44 45 41 34 34 44 36 30 31 33 33 33 33 34 32 34 36 39 40 36 34 34 32 33 32 35 33 32 33 31 28 27 28 28 27 27 28 29 28 28 27 28 26 29 29 30 30 28 27 25 25
40 43 43 42 40 39 38 37 36 36 33 32 34 35 30 34 32 32 32 37 34 35 33 34 31 30 33 36 36 36 34 36 34 34 31 27 29 30 29 29 29 30 30 30 29 28 25 27 29 28 26 24 24 24
38 41 37 41 37 36 36 42 38 38 35 32 32 35 30 29 30 31 36 33 33 32 35 35 33 32 32 31 34 36 33 32 32 33 32 31 29 29 29 29 30 29 29 29 29 27 27 29 27 26 24 24 21 24
45 44 40 39 32 32 28 41 32 35 29 29 33 30 29 30 32 37 30 34 30 33 36 36 35 37 33 34 34 34 35 35 33 32 32 32 31 30 30 30 31 28 28 30 30 28 27 18 23 21 24 23 23 22
41 33 31 31 33 27 32 30 35 32 31 29 28 25 28 29 33 30 29 31 29 32 32 32 34 32 32 32 32 32 33 35 32 31 31 30 28 28 30 29 29 28 28 28 27 26 25 23 18 22 22 21 20 20
30 25 28 26 32 29 27 27 28 29 25 28 26 26 27 31 27 28 27 28 27 29 30 33 34 34 32 32 31 29 32 33 30 27 29 31 28 27 27 28 27 26 26 25 24 23 22 22 21 20 20 19 19 18
24 24 26 28 28 29 29 25 26 27 28 26 26 30 30 28 25 26 30 28 27 28 29 30 31 32 32 33 30 29 29 32 31 27 26 29 28 27 26 25 25 24 25 23 21 20 20 19 18 16 17 18 14 13
24 23 27 32 32 32 28 30 33 30 26 24 26 26 26 23 25 25 27 30 29 30 32 34 35 34 32 30 28 28 28 27 27 27 26 25 24 25 24 22 20 21 23 20 20 18 18 17 16 16 16 17 18 17
25 26 22 23 25 28 23 25 24 22 25 29 30 24 24 25 23 23 26 29 30 30 30 33 34 32 30 27 26 24 23 22 21 22 23 23 23 21 20 19 18 14 18 16 17 17 17 16 15 15 15 15 14 16
23 26 25 15 20 21 20 21 22 23 24 27 24 22 19 20 22 24 25 29 29 28 25 23 23 25 24 25 25 26 25 25 21 17 16 20 19 19 21 20 20 19 19 19 12 14 16 15 15 14 14 14 15 15
20 27 21 16 15 16 18 21 19 21 23 24 24 22 20 19 21 26 27 28 27 26 25 25 24 23 21 21 19 19 21 21 21 22 21 19 19 18 19 18 18 17 18 17 16 16 15 15 16 16 14 14 14 14
25 25 21 21 17 18 19 21 22 23 23 22 25 22 19 19 20 22 23 25 25 25 24 23 23 25 23 21 21 19 16 16 14 17 18 18 18 18 16 15 17 17 16 15 14 14 12 12 13 12 12 10 9 9
23 20 18 15 16 19 22 23 22 21 21 21 19 21 20 21 18 19 19 23 24 23 22 23 21 21 21 19 18 17 17 15 15 15 16 16 16 15 15 15 15 15 14 13 13 12 11 10 10 9 9 7 6 4
20 21 21 19 17 18 20 21 21 18 21 19 19 20 20 21 16 18 20 21 24 23 22 21 19 18 18 17 16 14 14 13 11 10 9 8 7 10 14 16 15 14 12 12 12 12 10 8 6 5 5 3 2 1

GFSWCAN_sfc_temp_102.txt.gz
Temp
47 48 48 49 48 48 49 49 49 49 48 48 48 48 49 49 49 49 47 51 47 40 46 50 50 45 46 46 38 44 42 42 40 35 36 36 35 39 38 42 40 34 32 32 34 31 25 38 42 32 31 35 36 37
47 47 47 48 48 48 48 48 48 48 48 48 47 47 47 49 49 48 43 47 46 38 43 49 51 53 51 51 45 45 43 42 43 37 36 36 33 38 39 30 45 32 37 33 31 28 34 37 35 36 37 34 35 36
47 47 47 48 47 47 47 47 48 48 48 48 47 48 48 48 49 48 47 45 41 36 41 45 48 56 59 56 56 41 43 49 44 47 39 37 32 42 33 36 40 41 46 34 33 33 34 36 38 38 38 36 40 41
47 47 47 47 47 47 47 47 47 47 47 47 47 48 48 48 48 48 47 45 44 40 35 43 59 53 60 58 56 54 50 51 50 49 40 37 33 46 38 41 39 41 43 37 32 35 36 35 36 38 39 41 41 43
47 46 46 47 47 47 47 47 47 47 47 47 47 47 48 48 48 49 51 48 49 41 34 41 52 56 58 56 54 53 50 47 46 42 39 36 43 42 44 44 34 39 33 32 29 33 34 31 34 37 36 38 41 41
46 46 46 46 46 46 47 47 47 47 47 47 47 47 47 48 47 47 36 51 53 47 39 35 44 51 54 54 52 50 50 47 46 43 40 44 49 42 36 33 35 37 38 36 33 36 33 33 36 40 39 39 41 40
46 46 46 46 46 46 46 46 47 47 47 46 47 47 47 47 48 41 39 41 46 48 38 35 40 49 52 50 48 47 49 46 45 42 42 43 44 43 38 34 36 40 41 39 39 40 36 37 37 42 42 42 42 40
45 46 46 45 45 45 46 46 46 47 47 47 47 47 47 47 46 44 48 45 46 40 40 32 37 40 50 41 40 48 41 42 42 41 43 41 45 43 33 37 40 41 42 41 41 43 42 42 43 42 43 42 40 35
45 45 45 46 45 45 45 46 46 47 47 47 46 47 44 43 37 43 48 47 45 39 33 35 33 32 47 43 44 43 44 33 45 36 40 43 39 32 33 39 41 40 39 40 41 42 40 38 37 36 35 34 31 28
45 45 45 45 45 45 45 45 46 46 46 46 45 37 32 38 47 46 41 36 36 37 38 35 43 36 44 40 38 38 40 36 32 38 46 38 33 36 39 39 38 38 40 40 35 34 34 33 33 31 29 29 28 27
45 45 45 45 45 45 45 45 46 46 46 42 34 34 41 47 41 36 33 32 35 33 41 42 42 39 47 36 36 41 35 39 32 36 36 34 31 31 38 38 39 40 40 38 37 36 36 34 32 31 29 29 27 25
45 45 45 45 45 45 45 45 46 46 44 43 40 41 41 36 34 32 31 36 35 34 42 38 40 45 39 46 37 41 35 37 29 42 34 31 28 34 35 34 35 36 36 35 36 33 33 32 32 30 27 24 23 22
45 45 45 45 45 46 46 46 45 48 46 41 35 33 33 33 29 29 27 31 32 39 41 40 36 41 43 40 34 35 31 31 41 32 31 28 31 33 34 34 32 34 33 32 30 30 28 26 26 25 22 22 22 20
44 45 45 45 45 45 45 45 45 43 39 33 31 28 31 29 33 36 38 38 42 40 40 39 37 38 39 34 33 30 35 37 30 28 29 29 29 29 30 30 26 23 24 24 23 22 21 20 20 20 19 19 18 18
44 45 45 45 45 45 45 45 45 43 35 31 32 29 31 37 36 37 40 39 41 42 40 39 38 40 36 33 34 33 30 29 32 29 28 28 29 28 27 26 24 23 22 22 23 21 19 19 20 20 21 22 20 16
44 44 45 45 45 45 45 43 39 38 34 32 33 32 35 33 31 34 34 34 41 40 43 42 36 32 32 34 31 30 31 29 28 28 28 29 27 26 25 24 24 25 25 24 23 23 22 20 21 23 23 22 18 18
44 45 45 44 45 45 43 39 36 33 33 31 31 33 34 34 33 33 35 37 40 39 34 38 32 30 36 31 30 35 30 29 29 28 30 29 27 25 24 24 23 25 25 25 25 25 24 25 24 24 21 22 22 23
44 46 45 45 43 41 38 38 35 33 30 32 31 31 32 33 33 34 37 38 40 38 40 36 40 33 31 30 32 30 29 29 30 29 28 27 26 25 26 25 26 26 26 25 25 25 25 24 25 25 27 27 27 27
45 46 44 42 42 42 36 34 36 30 31 32 32 33 33 33 36 37 37 37 40 42 43 40 33 34 32 33 31 30 29 29 27 26 27 28 28 27 27 27 27 27 26 25 26 27 27 28 27 28 29 29 27 28
44 44 43 43 42 42 34 35 42 33 30 32 35 32 33 33 34 34 35 39 41 41 37 35 32 31 31 33 35 33 32 31 29 25 24 26 28 27 27 27 28 28 28 28 28 25 29 29 30 29 28 26 23 23
42 43 43 44 39 38 39 36 37 37 35 33 35 34 31 33 32 32 33 40 36 36 33 34 31 32 36 35 36 35 34 35 33 33 29 26 29 30 29 30 30 30 29 29 28 26 25 27 29 28 26 24 24 23
39 43 39 40 35 36 37 42 38 39 35 33 33 35 30 30 31 32 38 34 34 33 35 35 33 33 33 33 35 36 34 34 34 33 32 31 29 29 29 29 29 28 28 28 29 27 27 27 25 25 24 23 22 23
42 42 39 36 31 32 30 42 33 35 29 30 33 29 29 31 33 38 32 35 31 35 38 37 36 38 35 36 35 35 36 35 33 32 32 32 31 31 30 30 30 28 27 29 29 28 25 18 22 22 22 22 22 21
42 36 31 32 32 27 33 31 36 34 33 30 30 27 28 29 34 31 29 31 31 35 35 35 35 33 33 33 32 33 35 36 33 32 32 30 28 29 30 28 28 27 27 27 27 25 25 24 18 22 21 20 20 19
30 27 30 28 33 29 28 29 29 30 28 29 28 27 28 32 27 28 29 28 29 31 32 34 34 34 31 32 32 31 34 34 30 28 30 31 28 27 27 27 26 26 26 24 23 22 22 22 21 20 19 18 17 17
25 26 27 29 30 30 29 26 27 28 29 28 29 32 32 29 27 27 30 29 29 30 31 32 32 33 33 33 29 29 30 33 31 27 28 30 29 27 26 25 24 20 24 22 21 19 20 20 18 16 16 17 14 13
24 24 26 30 32 33 30 32 35 31 27 26 27 27 27 25 26 25 29 31 30 32 34 36 36 35 32 30 29 28 28 29 29 27 27 26 25 25 23 21 20 19 22 20 20 18 17 16 16 16 15 17 17 16
27 27 22 26 28 31 26 29 28 27 28 32 31 26 26 25 22 25 28 30 32 33 33 34 35 33 30 28 26 24 23 23 23 23 24 23 23 21 19 18 17 16 18 17 16 17 16 15 15 15 15 14 13 15
25 28 25 20 24 24 24 24 25 25 27 28 27 24 20 21 24 26 28 29 31 30 27 25 25 27 26 26 26 26 26 25 22 18 19 19 18 17 21 20 20 18 19 19 13 14 15 13 13 13 13 13 13 15
23 29 22 20 19 19 19 22 21 24 26 26 25 22 20 20 23 28 29 29 27 26 26 25 25 24 23 22 20 20 22 22 21 22 21 19 17 19 19 18 18 17 18 17 16 16 16 15 15 15 15 14 14 12
28 28 24 23 19 20 21 23 24 25 25 26 27 22 18 19 22 24 24 28 27 26 25 24 24 25 24 21 20 17 14 16 17 19 19 19 19 17 16 16 16 16 17 15 14 14 13 12 11 11 10 9 8 6
26 23 21 18 17 21 24 24 24 22 22 21 20 22 21 21 18 20 22 24 25 24 25 25 23 20 21 19 18 18 16 16 16 17 18 17 16 16 16 16 16 16 14 13 13 13 12 10 9 7 6 5 4 3
23 24 23 20 18 19 21 23 22 20 22 20 21 23 23 21 16 18 23 24 26 24 22 21 21 20 19 17 17 16 15 12 11 12 10 9 7 10 15 14 13 13 11 11 11 11 10 8 6 4 4 2 -1 -2

GFSWCAN_sfc_temp_105.txt.gz
Temp
48 48 48 48 48 48 48 48 48 49 48 48 48 48 48 48 49 43 41 44 40 35 36 42 44 37 37 35 27 34 32 33 30 27 28 28 28 32 33 37 35 29 28 25 28 25 21 35 36 29 31 35 35 35
47 47 48 48 48 48 48 48 48 48 48 48 48 48 48 48 48 46 40 43 42 36 34 40 43 45 44 42 36 36 33 36 34 27 29 30 27 29 32 27 40 27 33 26 28 27 33 36 33 35 36 34 35 35
46 46 47 47 47 48 48 48 48 48 48 47 47 48 48 48 48 46 42 41 39 35 35 34 39 47 51 48 47 33 37 40 37 38 28 28 27 34 27 30 34 37 40 28 30 31 32 34 36 36 37 35 37 39
46 46 47 47 47 48 48 47 47 47 47 47 47 48 48 48 48 47 38 39 40 37 27 37 53 48 53 52 48 46 43 43 41 38 32 27 26 39 32 36 32 34 37 33 30 32 33 34 33 35 37 40 41 41
47 47 47 47 47 47 47 47 47 47 47 47 47 48 48 48 48 43 40 41 42 38 31 31 43 49 54 49 48 46 44 40 35 33 30 29 35 35 36 36 31 35 31 29 26 33 32 31 33 36 35 36 38 37
46 46 46 47 47 46 46 47 47 47 47 47 47 48 48 47 47 38 32 40 44 42 35 29 40 43 47 47 45 44 43 39 37 34 31 34 42 36 26 25 33 36 37 36 30 34 31 31 34 37 36 37 38 36
46 46 46 46 46 46 46 46 46 46 46 47 47 47 47 47 40 36 35 40 45 44 33 31 30 41 48 44 40 40 44 38 36 34 32 34 35 38 28 27 33 38 38 37 38 37 33 34 35 41 40 40 38 35
46 46 46 46 46 46 46 46 46 46 46 47 46 47 47 47 44 38 44 45 45 40 36 30 28 33 43 34 32 38 33 34 34 32 34 33 36 36 28 34 39 40 41 40 40 41 39 40 39 36 36 36 31 28
45 46 46 46 45 46 45 46 46 46 46 46 46 46 41 37 34 36 47 47 43 38 31 31 29 23 39 36 37 35 36 26 35 27 31 34 27 26 30 35 37 38 37 38 41 40 36 34 31 29 29 28 25 23
45 45 45 45 45 45 45 46 46 46 46 46 41 34 28 36 47 46 40 36 35 36 36 30 33 25 36 31 33 32 31 27 28 31 35 25 27 34 36 35 36 35 35 34 33 30 31 28 26 25 24 24 24 22
45 45 45 45 45 45 45 46 46 46 45 37 31 32 39 46 40 35 31 30 31 29 32 32 33 30 39 27 28 31 29 28 25 30 26 24 26 29 35 35 36 35 35 32 32 30 29 29 28 26 24 24 23 21
45 45 45 45 45 45 46 45 45 41 37 37 38 40 40 36 33 30 26 27 27 28 33 28 31 36 34 38 33 32 27 26 21 31 25 18 26 30 31 30 29 29 29 29 29 26 26 26 25 24 22 19 18 18
45 45 45 45 45 46 46 45 46 46 44 39 36 32 32 31 27 24 22 24 27 28 31 30 30 34 35 37 31 28 24 19 30 27 22 25 28 30 30 25 23 26 26 25 24 24 23 21 22 21 16 14 12 10
45 45 45 45 45 45 45 46 45 43 38 32 30 26 27 25 25 25 26 27 30 30 31 31 28 29 28 26 32 28 27 28 20 16 23 25 26 24 25 25 23 18 18 17 14 14 13 12 9 8 8 7 8 7
44 45 45 45 45 46 46 45 44 40 34 30 30 25 23 30 33 33 32 31 31 30 31 30 28 32 30 26 30 31 23 17 22 24 24 25 26 24 22 22 18 16 14 14 12 10 8 9 10 9 11 9 10 5
45 44 43 45 45 45 45 43 39 37 32 31 30 28 32 32 31 33 32 33 32 30 31 31 28 28 28 30 25 20 25 23 24 24 25 25 23 20 17 17 15 20 22 15 13 12 12 10 11 11 11 11 7 7
44 39 45 45 45 43 43 37 35 30 29 30 30 32 30 32 31 32 33 32 32 32 29 28 26 28 30 27 28 29 25 25 25 26 26 25 21 16 16 23 23 23 21 15 14 15 14 16 15 18 15 13 15 17
39 42 45 44 42 40 37 37 32 30 27 30 28 30 31 32 32 32 33 34 32 30 30 29 31 27 27 23 25 26 26 27 27 25 23 20 17 16 17 14 24 23 17 16 16 16 17 15 20 21 23 24 23 24
42 42 45 44 41 36 31 31 34 28 28 29 30 30 30 31 32 32 33 34 36 37 33 29 27 25 26 28 27 26 27 23 22 23 23 23 21 23 23 23 24 18 18 18 21 22 23 23 21 19 20 21 16 16
45 44 44 44 43 36 32 31 37 31 27 29 31 29 30 30 31 32 32 33 32 31 30 25 27 28 28 29 31 30 27 25 23 20 22 23 25 25 21 20 19 21 21 22 22 19 21 21 24 23 19 16 12 12
41 40 42 42 37 36 34 30 32 32 31 29 31 31 28 30 29 30 30 33 32 29 26 25 26 29 31 31 32 30 29 27 23 22 21 19 21 21 23 25 24 21 22 21 18 19 15 16 18 19 9 6 7 8
38 42 37 37 33 33 32 34 32 32 30 29 30 30 28 28 28 30 32 28 29 27 30 29 29 30 29 28 29 28 27 29 28 26 22 23 22 19 18 18 19 17 15 14 17 13 15 15 14 12 8 6 10 8
42 39 33 32 30 28 27 36 29 31 24 27 30 27 26 27 29 33 27 30 27 25 27 30 30 31 28 30 30 30 31 30 26 24 23 22 22 22 21 19 18 14 14 18 18 16 11 11 10 7 7 7 7 5
42 33 28 28 30 22 29 25 31 29 28 27 26 25 26 27 30 27 25 27 25 26 28 29 29 27 27 28 24 24 26 28 25 25 23 22 20 19 21 19 19 17 17 18 16 12 11 6 7 8 3 2 0 0
26 25 29 25 29 24 25 25 25 26 19 27 23 23 25 25 23 23 26 24 19 22 28 28 27 27 24 20 21 23 28 28 24 20 21 24 19 18 19 20 19 17 17 11 7 5 4 4 3 1 2 -2 2 -1
19 21 23 26 22 24 25 24 23 21 24 25 26 25 25 25 23 23 25 22 21 26 29 28 22 24 25 26 23 22 21 27 25 21 20 22 19 16 15 15 14 13 14 7 4 2 2 2 -0 0 -1 1 1 -2
22 23 25 30 28 30 24 26 29 22 21 23 24 24 25 22 22 18 23 25 24 27 29 30 28 28 26 22 22 21 21 23 22 20 20 19 17 16 12 10 9 8 11 7 3 0 -1 -2 -3 -2 -3 -4 -3 -2
24 25 20 25 25 26 23 21 20 20 22 26 25 23 22 14 14 19 20 27 27 27 27 27 28 26 22 21 19 18 18 18 18 18 18 15 12 10 7 7 5 13 4 1 -0 -0 -1 -3 -4 -4 -4 -5 -5 -3
23 25 23 17 20 21 18 18 18 19 21 23 23 18 14 16 19 20 23 25 26 24 21 20 20 22 21 20 20 19 16 12 11 6 5 4 4 7 6 7 6 5 3 3 8 4 1 -1 -2 -3 -0 2 3 5
20 26 19 17 13 14 14 18 15 15 19 18 18 17 15 15 17 22 24 23 23 21 21 21 21 20 19 19 16 14 13 11 9 8 7 8 7 6 5 6 5 3 2 0 -0 0 7 -1 0 -3 -2 -2 -4 -8
25 25 21 18 15 17 17 17 16 18 20 21 17 10 9 12 15 17 18 24 23 22 20 20 20 20 18 15 12 6 3 7 5 10 13 12 10 7 6 5 2 2 1 -1 -4 -5 -6 -6 -8 -9 -9 -10 -7 -9
23 20 15 12 13 16 19 19 20 14 14 12 11 10 9 12 8 12 18 20 20 20 21 21 18 14 14 12 12 10 11 7 3 5 9 9 7 5 6 5 3 1 -2 -5 -5 -6 -6 -7 -10 -11 -11 -8 -14 -16
21 19 15 12 12 12 15 17 17 16 16 13 10 13 19 12 5 10 17 21 21 19 16 16 15 14 12 11 9 7 6 4 4 9 7 6 6 8 4 2 -0 -5 -7 -7 -6 -6 -5 -8 -10 -11 -14 -18 -21 -22

GFSWCAN_sfc_temp_108.txt.gz
Temp
48 48 48 48 48 48 48 49 48 48 48 48 48 48 48 48 48 42 40 39 35 28 33 39 41 34 34 32 25 32 30 31 28 25 25 27 27 30 31 36 33 29 27 24 27 23 20 33 34 28 31 34 35 33
47 48 48 48 47 47 48 48 48 48 48 48 48 48 48 48 48 46 35 40 39 32 32 37 40 43 42 41 34 33 32 33 32 25 26 28 26 28 30 24 38 27 30 26 28 25 32 34 33 35 36 34 34 34
47 47 47 47 47 47 48 48 48 47 48 47 48 48 48 48 48 46 38 37 35 27 30 33 37 45 46 44 44 32 33 38 34 34 26 27 26 31 27 30 31 35 37 27 27 30 31 33 35 35 36 34 36 38
46 47 47 47 47 47 47 47 47 47 47 47 47 47 48 48 48 44 37 37 39 35 24 32 48 44 50 47 44 43 41 40 38 34 29 25 26 36 28 34 29 31 35 32 29 31 32 32 32 34 36 39 36 34
46 47 47 47 47 47 47 47 47 47 47 47 47 48 48 48 48 41 37 38 41 36 28 29 39 46 48 47 45 43 41 37 32 30 26 26 33 34 33 34 29 34 30 29 26 32 32 30 32 36 33 31 33 31
46 45 46 47 47 47 47 46 46 47 47 47 48 48 48 47 45 36 27 38 40 39 34 25 37 41 45 45 44 41 40 36 34 32 28 30 37 34 25 27 33 35 37 35 30 33 28 28 31 34 33 33 33 31
47 46 46 46 46 46 46 46 46 46 46 47 47 47 47 46 37 36 31 40 44 42 31 26 28 38 47 43 37 37 42 35 34 32 30 31 33 36 28 25 33 36 37 36 35 35 32 34 30 36 35 32 31 29
47 46 46 46 46 46 46 46 46 46 46 46 47 47 47 47 43 39 43 45 45 36 33 29 28 34 40 32 31 35 31 32 32 31 32 31 34 33 26 33 37 38 39 38 38 38 35 33 32 31 31 29 26 24
46 46 46 46 46 46 46 46 46 46 46 47 47 46 39 35 30 35 47 46 41 38 30 30 26 26 37 33 33 32 32 23 32 24 28 32 27 24 29 31 34 36 35 38 38 36 33 29 27 27 26 26 23 21
45 45 45 45 45 45 46 46 46 46 46 46 39 30 22 31 45 44 39 35 35 35 35 29 29 23 33 27 28 31 27 25 25 30 32 29 26 31 32 34 33 31 32 35 30 29 27 25 24 24 22 23 21 19
45 45 45 45 45 45 45 46 46 46 45 34 30 27 38 44 39 34 31 29 30 27 31 31 29 28 35 26 26 28 23 25 23 29 25 23 25 27 32 31 31 32 30 28 28 26 28 27 24 23 23 22 21 20
46 45 45 45 45 45 46 46 46 38 34 35 36 39 39 35 32 29 26 28 28 25 29 26 29 32 32 35 29 28 25 23 20 30 26 14 22 28 28 28 27 27 26 25 26 25 25 25 24 23 21 19 17 16
45 45 45 45 45 46 46 45 45 44 41 37 35 31 32 30 25 21 16 21 17 25 27 26 28 34 32 32 31 25 19 18 28 24 21 19 25 27 26 25 23 25 25 23 22 23 23 21 21 19 14 9 8 7
45 45 45 45 45 45 45 45 45 41 35 29 28 24 25 23 25 22 23 23 27 26 28 27 25 27 25 23 30 24 24 26 17 12 21 20 26 24 24 25 22 16 15 14 12 12 12 12 7 5 5 4 5 5
45 45 45 45 45 45 45 44 43 37 33 27 28 18 24 26 32 33 32 27 27 28 29 27 27 28 22 25 29 30 24 15 19 17 16 23 24 23 21 20 16 14 11 10 7 9 5 5 9 7 6 5 8 2
44 44 42 45 45 45 44 41 36 33 31 30 29 25 29 30 30 32 30 29 27 27 27 29 26 21 26 25 26 24 23 18 19 21 23 23 20 16 15 15 13 12 12 10 9 10 10 7 8 10 7 7 2 3
42 37 44 45 45 43 43 36 29 28 25 28 27 31 30 29 31 32 33 31 31 29 26 26 22 22 28 21 26 21 24 23 23 23 21 20 17 13 13 13 14 16 14 13 12 13 13 14 12 15 13 11 13 15
35 42 45 44 41 39 36 34 28 28 24 25 22 28 30 31 32 32 33 32 29 28 28 28 28 25 18 18 16 19 25 25 23 20 16 14 13 12 16 16 21 19 17 16 16 15 14 13 18 17 21 22 22 22
41 42 44 44 39 34 30 30 33 26 24 25 25 28 29 30 31 32 32 33 32 32 29 27 22 19 18 19 25 25 25 21 19 16 15 13 15 16 15 17 21 16 18 17 20 18 18 21 19 18 18 19 14 14
44 43 43 44 42 32 30 27 34 29 22 25 29 29 28 29 30 31 32 32 34 30 27 23 25 25 25 18 26 25 23 23 22 19 18 14 19 19 18 20 19 20 19 19 19 17 19 19 21 20 17 14 10 9
40 40 43 38 35 34 31 28 28 30 29 26 29 30 27 30 29 30 30 32 31 29 25 28 23 24 29 29 28 26 25 25 22 21 20 19 22 19 18 19 22 19 18 16 15 15 14 13 15 16 11 8 6 5
37 40 36 37 32 32 31 33 31 31 28 29 29 29 27 26 27 29 31 29 28 24 23 22 23 29 29 25 25 27 26 26 24 21 19 20 18 17 20 18 19 15 15 14 16 12 13 14 12 10 4 2 3 5
40 38 33 33 28 24 23 33 26 28 24 26 28 24 22 25 24 32 26 29 27 26 24 24 28 30 27 28 29 28 29 28 24 22 21 19 17 16 17 15 15 15 14 15 16 14 10 8 7 2 1 1 1 -3
40 31 26 25 27 18 26 23 30 29 26 25 21 20 26 26 29 25 23 25 26 24 25 27 27 25 25 28 23 23 25 26 23 21 21 21 20 19 20 17 16 15 16 16 15 8 6 1 2 2 -4 -6 -9 -8
25 23 24 21 29 21 19 20 21 22 13 16 17 20 25 23 22 22 24 17 14 15 24 28 25 26 20 17 18 21 26 26 23 21 18 22 18 17 17 17 16 15 14 9 2 -1 -2 -4 -5 -5 -4 -9 -1 -5
15 19 23 18 13 20 19 15 13 13 16 16 17 20 22 23 17 15 20 14 12 15 22 24 20 21 21 23 21 21 19 24 24 18 16 19 18 17 14 12 7 7 9 4 1 -3 -3 -6 -7 -5 -6 -4 -5 -6
15 18 23 28 27 27 17 18 25 17 13 14 17 18 23 20 21 16 19 21 19 21 28 29 29 27 21 18 19 19 20 20 20 17 16 15 14 14 13 12 7 7 8 4 -2 -4 -5 -8 -8 -9 -10 -11 -10 -11
24 25 19 18 22 24 16 15 13 14 14 21 22 21 21 22 14 14 17 24 24 24 24 25 27 25 22 18 17 16 15 16 15 15 14 13 10 7 6 6 6 8 -1 -4 -4 -5 -5 -6 -7 -9 -10 -8 -6 -2
22 25 23 19 21 20 16 14 12 16 18 19 16 12 13 14 13 15 21 21 20 22 19 18 18 19 18 18 17 16 15 16 13 6 -1 2 -0 7 -1 -1 -2 -3 -3 2 7 3 3 -2 -6 -7 -8 -6 -8 -9
19 25 19 16 13 13 14 18 15 11 16 16 16 14 12 11 14 18 19 19 16 13 16 19 19 19 16 14 11 10 9 6 8 9 5 2 4 -1 -5 -4 -3 -2 -1 2 -1 -1 4 -5 -4 -9 -9 -11 -15 -18
24 23 20 18 15 14 14 9 7 11 13 8 7 8 8 9 12 14 14 16 20 20 20 19 19 17 15 13 12 10 8 8 5 8 10 8 4 1 -2 -4 -3 -0 1 -0 -3 -9 -11 -14 -17 -18 -16 -19 -22 -24
21 19 16 12 11 12 16 13 11 7 7 5 4 2 3 5 3 10 17 17 18 16 17 18 14 10 13 11 8 8 10 4 6 6 5 3 -1 -5 -0 1 -0 2 -0 -3 -6 -11 -14 -14 -18 -21 -24 -26 -27 -27
16 13 9 10 9 10 13 11 12 12 10 2 0 2 7 1 1 8 13 16 13 13 12 12 12 11 9 8 7 4 3 2 5 7 4 3 1 1 -2 -2 -2 -2 -2 -6 -12 -15 -15 -18 -23 -25 -27 -28 -29 -29

GFSWCAN_sfc_temp_111.txt.gz
Temp
48 48 48 48 48 48 49 48 48 48 48 48 48 48 48 48 48 42 37 38 35 29 32 37 39 34 33 30 25 31 28 29 27 23 25 24 24 30 30 33 31 28 26 24 27 22 18 31 34 28 31 34 33 33
47 47 47 48 48 48 48 48 48 48 48 48 48 48 48 48 48 44 35 38 38 32 33 36 38 41 40 39 32 31 31 32 31 25 25 26 26 29 30 26 37 26 29 26 26 24 31 34 32 34 35 32 34 33
46 47 47 47 47 47 48 48 47 47 47 47 48 48 48 48 48 44 35 35 34 28 31 34 37 41 43 42 42 31 32 36 33 32 25 24 24 30 26 27 31 33 36 27 26 30 31 32 33 34 35 32 32 36
47 47 47 47 47 47 47 47 47 47 47 47 47 48 48 48 47 44 36 36 36 32 25 33 45 42 46 43 42 41 39 38 36 32 28 23 24 35 30 33 29 32 34 30 28 30 31 31 31 33 34 34 31 32
47 47 47 47 47 47 47 47 47 47 47 47 47 48 48 48 46 41 37 37 39 33 27 29 37 43 46 44 42 41 39 35 31 30 25 25 30 31 32 32 30 33 30 27 21 31 30 28 32 33 31 30 30 28
47 47 47 46 46 46 46 46 46 46 47 47 47 47 47 46 44 37 28 38 40 38 28 24 34 38 42 42 41 39 38 34 32 30 28 29 34 32 27 27 32 34 35 34 31 32 28 30 31 33 30 30 29 28
47 47 47 46 46 46 46 46 46 46 47 47 47 47 46 45 38 33 30 40 44 39 29 24 27 37 45 40 36 36 40 33 33 30 29 29 31 34 28 26 33 35 35 34 34 34 31 30 28 31 30 29 29 26
45 46 47 46 46 46 46 46 46 46 46 46 47 46 46 46 43 37 42 45 42 33 32 22 29 35 41 34 31 33 30 30 31 29 30 30 32 30 24 32 36 37 37 36 35 36 32 30 30 28 29 27 25 24
45 45 46 46 46 46 46 46 46 46 46 47 46 45 38 34 34 36 46 45 41 33 23 23 23 26 36 33 31 31 30 22 30 23 28 30 28 23 27 32 35 36 35 34 35 34 32 29 26 26 26 25 22 21
45 45 45 45 46 46 46 46 46 46 46 45 38 31 22 32 44 44 37 31 33 34 35 25 27 25 32 26 24 30 26 24 23 28 31 29 26 30 30 31 31 29 31 34 28 26 26 24 24 23 21 22 21 18
46 46 45 45 45 46 46 46 46 46 43 33 27 30 35 44 35 32 29 28 26 27 31 30 28 28 33 25 25 27 22 24 22 27 26 20 23 23 28 29 29 30 29 28 28 29 29 27 24 23 22 22 20 18
46 46 45 45 46 46 46 46 45 38 34 35 36 38 39 35 32 29 27 29 28 24 27 26 27 30 32 33 26 27 25 23 19 30 27 15 19 24 27 28 28 26 26 25 26 25 25 25 24 23 20 18 15 15
45 46 45 45 46 46 46 45 45 44 41 36 35 32 32 29 23 21 16 19 21 24 24 25 27 29 30 32 30 29 19 17 30 21 18 17 23 26 27 26 23 24 24 23 23 23 23 21 21 19 12 7 6 5
45 45 45 45 45 45 45 45 44 40 35 27 22 23 24 22 25 19 21 21 26 24 25 26 28 33 24 23 20 17 21 28 19 12 19 20 22 25 25 24 22 15 14 14 12 12 11 11 5 4 4 2 4 5
45 45 45 45 45 45 45 44 42 35 32 23 24 15 24 25 27 31 32 29 31 24 28 26 26 27 21 23 29 28 25 18 17 16 15 17 23 22 21 19 15 13 9 9 6 8 3 3 7 5 3 2 6 0
45 44 41 45 45 45 44 41 37 31 31 28 29 22 27 28 28 32 32 31 32 24 31 29 25 19 18 21 25 26 24 15 17 15 19 21 19 15 14 15 12 10 10 9 8 8 8 5 7 7 6 6 0 1
41 35 44 44 44 44 43 34 30 26 24 28 23 27 29 28 26 32 32 32 32 27 25 25 19 20 25 26 24 23 21 16 21 23 19 18 18 13 12 12 11 12 12 10 9 11 11 12 10 14 12 10 11 14
34 41 44 44 41 37 35 32 28 27 22 26 26 23 24 30 32 32 32 33 29 27 27 26 28 23 13 16 15 21 23 23 20 19 14 10 11 11 15 14 14 15 13 12 14 13 13 12 16 15 18 20 21 20
40 42 44 44 38 32 26 27 33 26 25 28 26 23 24 28 31 31 31 32 30 31 29 26 22 18 19 19 21 15 16 17 19 14 9 7 13 15 14 16 16 14 15 16 18 16 16 19 17 16 17 18 14 14
44 44 44 43 41 31 29 27 32 28 22 23 27 28 26 27 30 30 31 32 33 29 29 23 23 17 22 18 21 20 18 20 21 17 13 11 13 15 15 17 17 17 17 18 17 16 17 17 19 18 16 15 13 12
41 41 42 36 35 35 31 28 27 30 28 26 28 29 26 27 29 29 29 32 31 29 24 28 27 17 22 22 23 23 23 24 21 20 17 15 15 18 17 15 19 17 15 13 13 12 11 12 14 16 12 10 5 2
37 40 35 35 32 31 31 30 29 29 28 28 26 29 24 25 27 28 31 29 28 28 25 23 22 23 24 24 23 25 24 24 22 20 18 20 17 15 15 14 17 12 12 11 15 10 12 16 15 12 4 0 1 2
39 36 33 32 29 27 27 30 26 29 24 26 28 26 25 26 25 32 26 28 24 23 24 24 28 30 26 27 27 27 28 26 21 19 19 17 16 14 14 13 14 12 11 13 14 13 10 8 5 -0 -2 -2 -0 -5
38 29 23 26 26 22 27 23 29 29 26 25 24 23 24 24 29 24 19 20 21 21 23 26 26 23 24 26 21 21 23 23 20 18 19 19 16 14 16 14 15 15 16 16 14 8 5 -2 -1 2 -6 -9 -13 -12
24 22 20 11 23 23 17 19 21 19 13 20 19 17 22 22 22 19 16 17 12 12 17 24 24 23 20 15 17 18 24 24 21 17 15 19 16 17 15 15 14 13 12 7 -1 -3 -6 -9 -9 -8 -8 -12 -3 -7
13 14 21 17 15 19 18 12 10 11 12 17 14 17 17 15 14 15 18 14 9 11 11 19 18 19 20 21 19 18 17 22 23 16 15 20 19 16 12 9 6 6 7 3 -0 -6 -6 -9 -9 -6 -8 -6 -7 -12
13 11 21 27 26 26 15 15 23 15 10 11 18 11 13 9 8 14 14 23 21 17 24 27 26 24 21 17 17 17 17 18 18 16 15 14 13 13 12 9 5 6 7 3 -1 -4 -5 -8 -8 -9 -10 -15 -12 -13
22 22 17 15 17 22 14 10 9 13 12 19 18 12 12 13 13 10 14 17 24 22 22 22 24 23 20 18 16 15 14 14 13 13 14 12 10 7 6 6 8 9 -0 -3 -4 -10 -8 -6 -7 -11 -12 -11 -11 -12
20 23 24 20 19 17 17 15 11 14 18 17 12 8 7 12 9 9 12 18 23 22 18 16 15 17 15 14 14 15 15 16 14 9 3 0 -1 3 -4 -1 -1 -5 -7 -3 5 0 0 -2 -7 -6 -14 -14 -20 -23
17 22 19 18 18 18 15 15 11 8 15 13 14 12 10 7 9 13 15 15 14 10 12 16 17 17 15 13 12 12 10 9 8 9 5 1 3 -1 -6 -2 -4 -9 -8 -5 -6 -2 5 -5 -7 -15 -17 -20 -24 -26
23 20 14 15 14 17 18 17 15 14 11 8 6 7 7 6 11 12 12 11 15 17 16 15 15 15 14 14 14 13 10 7 5 6 8 7 5 -1 -5 -7 -10 -9 -6 -5 -4 -7 -11 -17 -23 -24 -23 -25 -28 -31
19 19 16 13 14 17 19 17 16 15 13 7 2 1 5 7 5 8 12 12 12 13 12 14 13 10 14 11 9 10 11 6 8 7 6 4 -2 -6 -4 -6 -8 -4 -3 -4 -6 -11 -15 -18 -25 -28 -29 -29 -30 -31
13 15 14 14 14 14 16 16 16 12 8 4 0 -0 3 6 5 7 8 12 10 6 8 10 10 10 8 8 7 6 6 5 5 6 3 1 -2 -2 -7 -8 -5 -3 -5 -9 -13 -16 -19 -22 -28 -30 -31 -31 -32 -33

GFSWCAN_sfc_temp_114.txt.gz
Temp
48 47 47 47 47 48 48 48 48 48 48 48 48 48 48 48 47 42 37 38 38 31 32 37 39 33 32 30 25 30 27 28 26 22 25 24 24 27 25 31 30 26 25 24 27 23 20 32 33 28 30 32 32 31
47 47 47 48 47 48 48 47 47 47 47 47 48 48 48 48 48 45 36 38 38 34 34 36 38 39 40 38 31 30 30 31 30 24 25 25 24 26 29 26 34 26 29 26 26 24 31 33 31 33 33 33 32 33
46 46 46 46 47 47 47 47 47 47 47 47 48 48 48 48 48 44 36 35 35 31 33 35 37 40 42 41 40 31 31 35 31 31 24 23 24 29 25 27 29 32 35 27 27 29 30 31 32 34 33 30 33 36
46 47 47 46 47 47 47 47 47 47 47 47 47 47 48 48 47 44 37 36 35 32 29 33 44 40 42 42 41 40 37 36 34 31 27 22 24 32 28 31 29 31 33 29 27 29 30 30 31 31 31 32 29 29
47 47 46 47 47 47 47 47 46 47 47 47 47 47 47 47 46 42 38 37 38 34 28 31 37 41 43 42 41 40 38 34 30 29 24 24 29 29 33 31 29 33 30 28 25 31 29 29 32 33 30 28 28 26
46 46 45 45 46 46 46 46 46 46 47 47 47 47 47 46 44 37 29 38 40 37 30 26 34 37 39 40 39 38 36 32 31 29 27 28 32 31 25 27 32 33 34 35 31 32 29 30 31 31 28 27 27 26
45 45 46 46 46 46 46 46 46 46 47 47 47 46 46 46 40 33 31 37 43 38 29 26 28 36 42 40 36 35 37 31 31 29 28 29 30 31 27 25 32 34 33 33 34 34 29 30 27 29 28 27 27 24
46 46 46 46 46 46 46 46 46 46 46 46 46 46 46 46 43 39 42 44 40 33 32 24 29 34 41 34 32 31 31 30 30 28 29 29 31 32 24 32 35 35 35 35 34 34 30 29 28 26 26 26 24 22
46 46 46 45 46 46 45 46 46 46 46 46 46 45 38 34 33 38 45 43 38 33 25 22 24 25 38 32 30 30 30 22 29 22 27 29 25 24 28 32 34 35 33 32 33 31 30 28 25 26 25 24 22 21
46 45 45 45 45 45 45 45 46 46 46 44 37 32 24 34 44 42 36 31 30 31 31 23 26 29 31 28 24 26 25 23 22 28 30 29 25 29 29 28 28 29 31 31 27 25 26 25 24 23 22 22 20 17
46 45 45 45 45 45 45 45 46 45 43 33 29 30 36 43 35 31 22 23 26 24 27 27 28 29 32 25 24 26 21 24 22 26 26 20 24 27 28 28 29 29 29 28 29 30 31 28 24 22 21 21 19 17
45 45 45 45 45 45 45 45 44 37 34 35 36 39 37 34 29 26 26 29 26 24 26 25 27 30 34 32 25 28 23 23 18 30 26 14 18 24 26 28 28 28 26 25 26 25 26 26 24 22 20 17 15 14
45 45 45 45 45 46 45 45 44 44 40 35 34 29 28 26 20 22 17 21 22 22 23 24 27 28 31 33 27 30 20 15 29 20 17 18 21 25 25 26 24 24 24 24 23 23 22 20 20 18 12 7 6 4
45 45 45 45 45 45 45 45 44 40 34 26 22 19 21 22 26 19 19 20 23 22 24 25 27 33 24 26 14 15 19 29 22 12 18 15 21 22 24 24 21 14 15 15 12 12 11 11 5 3 3 0 2 4
45 45 45 45 45 45 44 43 42 35 28 26 24 20 24 25 27 27 27 29 31 23 25 26 25 26 19 21 28 26 25 17 16 16 15 14 22 22 21 20 17 14 10 9 6 8 5 5 9 4 1 1 4 -2
45 44 41 44 45 44 44 40 35 31 28 27 29 21 26 27 27 32 31 31 31 24 30 29 24 17 17 19 19 20 24 14 16 13 16 17 19 18 17 16 13 10 9 8 8 8 8 6 7 6 4 4 -1 0
42 35 44 44 44 43 43 34 29 27 25 25 21 25 28 28 26 31 32 32 31 32 21 24 18 18 24 18 18 22 23 15 18 23 20 15 20 15 13 11 10 11 11 10 8 9 9 10 9 13 12 9 10 13
35 42 44 44 40 38 33 31 27 26 20 24 24 22 23 29 31 31 32 32 32 31 27 25 27 20 12 15 13 14 24 23 22 20 12 10 12 10 14 11 11 12 11 10 12 11 11 11 15 13 17 18 19 19
40 42 44 44 38 31 26 29 29 20 21 24 27 26 28 27 30 31 32 33 32 30 29 24 20 17 16 15 17 13 19 20 19 13 9 7 11 14 13 14 13 11 13 13 17 15 15 17 15 14 15 16 13 12
44 44 44 43 40 30 29 26 32 27 21 21 27 27 23 22 26 26 28 31 32 29 27 21 18 17 18 17 19 18 16 18 19 15 12 10 11 15 14 16 15 15 15 16 16 15 16 16 17 17 14 12 10 10
41 40 40 36 33 34 29 27 27 29 27 26 27 27 22 25 23 23 27 32 31 29 25 25 18 17 26 24 22 21 22 23 19 19 16 12 11 16 15 15 17 16 13 11 11 10 10 10 11 13 6 5 3 1
36 40 33 34 28 31 29 29 28 29 26 26 27 27 20 16 22 28 31 28 28 29 23 22 22 24 23 23 21 24 23 23 21 18 17 18 16 15 14 13 15 9 10 8 11 8 11 15 13 10 3 -2 -0 -0
39 35 29 30 22 19 23 30 24 27 21 23 27 23 19 22 24 31 25 29 25 21 21 24 27 29 25 26 26 26 27 24 20 18 17 16 16 14 14 12 13 10 9 11 12 11 9 7 4 0 -2 -1 -1 -7
38 26 19 20 21 18 28 22 28 28 26 25 22 18 19 23 27 22 18 19 19 19 23 26 26 23 23 24 19 19 21 21 18 17 17 18 16 12 15 13 13 12 14 15 14 9 5 -1 -1 2 -6 -11 -15 -13
21 18 17 9 22 19 15 15 18 22 19 19 16 15 19 23 15 13 15 15 13 11 14 22 22 22 19 14 15 17 22 22 20 17 14 18 15 15 14 14 13 12 12 9 0 -2 -5 -5 -9 -9 -9 -13 -4 -9
10 15 14 13 13 19 18 12 10 15 14 17 15 18 17 15 15 13 17 16 11 9 8 14 17 18 18 19 17 16 16 20 22 16 14 18 19 17 13 10 10 9 8 4 3 -0 -3 -9 -10 -8 -11 -10 -10 -13
12 10 20 25 24 25 18 19 20 14 11 11 21 16 12 7 5 13 19 22 22 23 22 25 27 22 20 17 17 16 16 16 17 16 14 14 13 14 14 12 9 9 7 4 2 -0 -4 -10 -12 -13 -14 -16 -17 -18
19 17 12 15 21 22 10 10 11 9 11 17 15 10 9 11 13 9 11 15 23 21 18 19 21 21 18 16 15 13 12 13 13 13 13 12 9 7 8 9 10 9 2 -1 -3 -4 -5 -7 -12 -16 -15 -16 -20 -23
16 20 19 14 14 15 14 14 13 13 16 16 12 10 8 11 6 7 10 17 22 22 15 13 12 14 13 13 14 15 14 15 14 10 5 1 2 6 3 4 2 0 -1 0 5 -0 -4 -9 -10 -12 -17 -19 -27 -32
20 25 20 19 19 19 17 17 10 6 12 11 13 11 9 6 5 10 14 14 19 19 16 10 13 9 11 12 11 11 10 8 8 11 8 5 7 6 1 2 -1 -7 -6 2 2 3 -0 -11 -11 -20 -24 -25 -29 -30
22 20 17 17 16 15 15 12 10 10 7 6 3 7 8 7 9 9 9 8 8 9 13 10 10 12 14 13 13 12 9 7 6 7 8 9 7 3 -0 -2 -8 -7 -4 -4 -6 -11 -18 -23 -27 -27 -26 -28 -32 -33
16 15 13 10 11 17 17 14 11 9 6 1 1 -0 3 4 6 6 8 6 9 6 4 7 12 9 12 13 11 9 9 7 6 7 8 6 2 -1 -3 -5 -5 -3 -5 -7 -9 -13 -14 -20 -28 -31 -31 -32 -33 -34
10 10 11 9 9 11 14 16 15 8 2 -1 -1 -2 -0 7 7 2 3 7 7 10 9 8 9 8 8 8 7 6 5 5 5 7 4 1 -2 -3 -5 -5 -4 -5 -7 -10 -14 -17 -20 -25 -30 -32 -33 -33 -34 -35

GFSWCAN_sfc_temp_117.txt.gz
Temp
47 46 46 46 46 45 45 45 45 47 48 48 48 48 48 48 48 43 38 39 41 34 36 40 41 36 35 36 32 34 33 33 32 28 30 28 29 31 29 32 31 28 26 26 27 24 21 32 33 30 30 33 33 33
46 46 46 46 45 45 46 47 47 47 48 48 48 48 48 48 48 46 37 39 40 37 36 39 40 41 43 41 35 34 34 34 35 30 31 31 29 31 30 27 36 28 31 27 26 25 31 33 31 33 36 34 33 33
46 46 46 46 46 47 47 47 47 47 48 48 48 48 48 49 48 44 37 37 39 38 38 39 37 42 45 43 44 35 35 37 35 36 33 31 29 34 29 29 31 33 36 29 28 30 30 32 33 33 33 32 35 35
46 46 46 46 45 46 46 47 47 47 47 48 48 48 48 48 48 44 38 38 39 37 32 35 45 41 44 45 43 42 39 39 38 37 34 32 32 36 32 32 32 33 34 30 28 29 30 31 32 33 32 33 32 32
46 45 45 46 46 46 46 46 46 47 47 48 48 48 48 47 47 44 41 40 40 38 32 35 40 42 44 44 42 42 40 38 37 35 33 32 35 35 34 35 31 35 31 29 28 32 32 30 32 34 31 30 30 30
45 45 45 46 46 46 46 46 46 47 47 47 47 47 47 46 45 40 33 41 42 39 35 30 37 39 41 42 41 40 39 37 37 36 33 35 36 36 30 28 32 33 34 35 32 33 32 32 32 33 30 29 29 28
45 45 46 46 46 46 46 46 46 46 46 46 47 47 47 46 42 35 34 39 43 40 34 31 32 39 43 41 39 38 39 36 37 35 34 35 36 36 32 28 32 33 33 33 35 34 30 32 30 31 30 29 28 27
45 45 46 46 46 46 46 46 46 46 46 47 47 47 46 47 44 40 42 44 42 35 35 29 30 35 42 36 35 35 35 35 34 33 34 35 36 36 28 32 34 35 36 35 34 36 34 31 30 29 29 29 26 25
46 46 45 45 46 46 46 46 46 46 46 46 46 45 39 36 37 39 45 43 39 37 29 28 28 27 39 34 34 34 34 30 34 32 33 34 30 28 31 33 34 35 35 32 32 32 31 30 28 28 28 26 25 24
45 45 45 45 45 46 46 46 46 46 45 45 39 33 29 35 44 42 37 32 32 33 33 28 31 30 35 31 30 31 30 29 28 32 35 31 28 30 30 34 35 35 35 34 29 27 28 27 27 26 26 25 24 22
45 45 45 45 45 45 45 46 45 45 43 34 30 30 37 43 37 33 27 27 28 27 31 30 32 32 35 31 29 30 28 29 25 30 30 26 28 29 31 31 32 34 34 33 34 34 33 32 28 25 23 23 22 20
46 45 45 45 45 45 45 45 44 38 35 37 37 40 37 33 29 27 26 29 28 26 29 28 31 34 35 35 31 30 28 28 23 32 28 23 27 28 30 30 30 31 31 30 31 30 30 29 28 25 23 21 19 17
46 45 45 45 45 46 45 45 44 43 40 37 33 30 30 28 20 19 18 23 23 27 28 30 28 33 35 35 31 32 25 23 31 26 24 27 26 28 29 29 27 28 28 27 26 26 25 24 24 22 16 14 13 11
45 45 45 45 45 45 45 44 44 40 34 28 24 20 21 22 23 22 24 25 27 27 28 31 29 32 30 30 25 23 26 30 24 19 24 27 24 25 26 26 24 20 19 20 19 18 16 15 12 12 12 11 11 12
45 45 45 45 45 44 44 43 42 36 30 26 26 21 23 26 29 29 27 30 31 28 30 30 30 30 25 24 27 28 26 21 23 24 27 24 24 24 23 23 20 18 15 14 15 14 11 11 13 11 9 11 12 8
45 44 42 44 45 45 43 40 35 33 30 29 27 24 26 27 28 31 30 30 31 29 30 32 26 23 23 24 23 21 24 20 25 25 25 22 23 21 21 20 19 16 16 14 14 14 13 12 14 16 12 13 10 12
42 37 44 44 44 43 43 34 32 28 27 27 24 26 28 28 27 30 33 32 29 32 26 28 22 22 26 23 22 26 24 26 25 25 24 22 23 21 18 16 14 15 15 15 14 15 15 15 15 17 18 19 16 18
38 42 44 44 40 39 33 32 30 28 22 24 24 24 25 29 31 32 32 33 33 32 30 29 30 24 20 20 23 24 26 25 24 24 21 19 19 17 19 17 15 16 16 15 16 16 16 16 19 21 22 23 23 23
41 41 44 44 39 33 29 30 30 23 23 27 27 28 28 30 32 32 32 33 33 32 31 29 25 25 25 24 26 23 25 26 23 19 16 14 18 17 16 16 16 16 16 17 19 21 21 22 23 24 24 23 23 22
44 43 42 42 40 32 29 27 33 28 23 25 29 28 26 27 28 25 30 33 33 31 28 26 27 26 27 27 26 26 24 23 21 20 17 17 18 18 18 19 20 19 19 20 21 19 22 23 23 24 23 21 22 21
39 38 39 36 33 32 29 29 27 29 29 26 29 28 24 27 26 26 27 31 29 28 28 26 26 24 26 27 27 25 24 26 24 26 23 17 18 21 21 21 21 21 21 21 21 20 18 23 22 21 20 17 15 16
36 39 32 33 30 31 31 31 29 30 29 28 28 28 22 18 19 24 30 27 28 28 28 28 27 28 26 26 26 26 25 25 23 20 19 19 18 19 20 20 21 19 21 21 22 21 21 21 19 18 17 13 12 13
38 35 30 29 22 19 22 32 24 28 20 24 26 22 20 20 25 31 23 30 27 24 25 27 29 30 26 27 27 27 28 26 23 21 21 21 21 21 21 21 22 20 20 20 21 20 19 14 12 13 12 12 12 11
37 26 19 18 21 15 25 24 29 27 25 24 22 20 23 25 27 24 21 24 22 23 25 27 27 25 25 25 23 23 23 24 21 20 21 21 20 19 22 21 21 21 22 19 19 15 13 11 9 11 9 8 6 7
23 17 17 8 22 15 17 19 17 22 17 19 19 19 21 23 16 16 21 21 19 19 20 24 25 25 24 20 20 22 23 24 22 19 20 22 18 18 17 18 17 17 18 16 13 11 8 7 8 8 7 7 7 4
10 12 14 12 17 15 15 15 16 12 19 22 19 20 20 17 17 16 21 22 19 19 19 20 25 24 23 23 21 21 22 24 24 20 19 22 22 20 17 16 16 16 15 17 13 11 8 6 7 6 4 1 -4 1
10 11 21 25 24 25 17 16 20 15 14 17 22 18 16 15 13 18 21 22 23 24 25 24 27 26 23 20 19 18 19 19 20 18 17 17 17 19 21 18 16 17 14 14 13 11 9 7 5 3 -0 -3 -5 -4
18 19 14 19 23 24 19 15 14 12 16 20 19 15 13 14 17 18 18 19 23 22 20 20 21 21 20 18 16 15 14 14 14 15 15 14 12 11 12 13 14 12 10 10 9 8 7 6 3 1 0 -3 -8 -11
21 19 18 19 13 18 14 15 16 16 18 19 18 15 14 16 14 13 15 18 21 23 18 16 14 15 14 15 15 16 17 18 17 15 13 11 11 10 9 10 10 9 9 9 8 5 3 2 -1 -3 -6 -8 -13 -15
14 21 13 9 12 15 16 18 14 13 15 15 15 14 13 12 11 12 14 15 20 21 19 16 14 14 13 14 12 13 12 13 16 19 14 12 13 9 8 8 8 7 9 10 6 3 2 -3 -4 -9 -10 -12 -11 -11
22 20 17 18 19 18 18 16 12 10 11 11 8 14 12 10 11 11 11 11 12 16 15 13 13 15 15 14 14 14 14 12 11 12 12 12 10 8 8 7 6 6 6 4 1 -1 -5 -8 -9 -10 -11 -13 -17 -15
18 17 14 12 13 13 17 18 17 12 8 10 9 7 8 11 12 10 9 10 13 13 12 13 14 14 16 16 13 13 13 10 10 10 11 9 7 5 4 3 3 3 2 -1 -3 -4 -6 -9 -11 -12 -13 -15 -17 -18
14 15 14 13 10 11 15 17 12 8 6 6 7 5 8 10 10 9 8 8 10 14 12 10 10 10 9 9 8 8 8 8 8 8 6 4 3 3 2 2 2 0 -2 -4 -6 -8 -10 -12 -14 -16 -17 -18 -19 -20

GFSWCAN_sfc_temp_120.txt.gz
Temp
46 46 45 44 44 45 46 46 46 47 47 47 47 47 48 48 49 49 41 46 49 42 40 46 47 42 44 47 39 41 40 39 40 37 39 38 37 39 36 39 37 36 33 32 33 30 25 36 34 30 33 38 39 39
45 46 45 44 44 44 44 46 46 46 46 47 47 47 48 49 49 50 44 46 52 48 43 48 46 48 52 51 45 43 42 43 45 41 43 42 37 39 39 30 42 32 37 34 32 30 34 34 33 37 41 37 38 39
46 45 44 44 45 46 46 45 45 46 47 47 47 48 49 49 50 51 46 52 53 44 46 48 43 49 51 50 54 43 44 44 43 47 44 42 36 45 35 36 36 37 41 34 32 31 32 32 34 37 40 38 40 41
45 45 45 45 46 46 47 47 47 47 47 48 48 48 48 48 49 52 48 49 54 49 37 39 50 45 50 53 52 52 46 46 47 50 44 42 39 44 36 38 39 39 39 34 29 31 32 32 33 35 36 37 37 39
45 44 45 46 46 46 46 47 47 47 47 48 48 48 48 48 49 51 50 47 50 48 37 38 46 47 51 52 50 51 49 48 48 44 42 40 45 42 42 41 36 40 36 33 31 33 33 32 33 34 34 35 36 35
45 44 44 45 46 46 46 46 47 47 47 47 48 48 47 47 48 55 39 52 53 57 43 35 43 44 48 50 48 47 48 47 50 47 43 46 44 44 36 33 36 37 39 40 34 36 33 33 33 37 35 36 36 35
45 45 45 45 45 46 46 46 46 47 47 47 47 47 47 48 49 43 42 47 47 52 42 37 36 43 47 48 46 47 48 47 49 46 45 46 44 45 37 31 37 36 39 40 40 37 31 34 33 37 36 35 34 34
45 46 46 46 46 46 46 46 46 47 47 47 47 47 47 48 49 45 47 46 49 46 47 35 33 38 46 42 41 46 45 48 46 45 45 44 44 43 32 37 40 40 40 40 40 40 40 38 37 35 36 35 33 32
45 45 45 45 46 46 46 46 47 47 46 46 46 47 50 45 43 45 45 47 49 47 37 37 34 30 45 41 43 44 47 37 45 41 43 44 39 32 36 38 40 41 40 38 39 39 38 36 35 34 34 34 32 30
45 45 45 45 45 45 46 46 46 46 46 46 48 43 33 41 44 46 47 41 41 42 43 36 42 33 43 40 38 39 42 37 34 40 44 38 38 37 41 44 44 43 42 41 36 34 35 34 34 32 32 32 30 28
45 46 45 45 45 45 45 45 45 46 46 44 36 34 43 44 46 42 33 35 37 34 40 39 41 36 44 37 35 40 36 38 32 35 35 34 34 35 38 42 44 45 43 43 43 41 40 38 34 31 29 29 28 26
46 46 46 45 45 45 46 46 45 45 42 43 42 44 44 40 36 32 30 33 34 31 36 36 38 39 38 45 38 38 33 35 28 37 33 30 35 37 37 37 41 42 41 40 41 39 38 36 35 32 30 28 26 23
45 45 45 45 45 45 45 44 44 43 44 46 41 34 38 34 28 27 23 27 28 33 35 37 33 40 41 40 34 36 29 30 36 30 31 36 35 37 38 37 36 37 37 37 35 36 35 33 32 29 24 22 20 18
45 45 45 45 45 45 45 44 44 44 43 35 32 26 29 27 29 30 31 32 32 35 37 37 33 38 37 34 33 29 32 35 28 26 29 36 32 33 35 35 32 28 28 28 28 27 24 22 20 20 20 19 19 17
45 45 45 44 45 44 44 43 43 44 38 32 34 25 28 31 32 32 33 34 35 39 39 37 37 40 34 30 34 32 28 27 30 32 35 34 32 31 30 30 28 26 24 24 24 22 19 18 19 18 18 21 21 18
45 45 44 45 45 45 44 44 43 42 38 35 32 29 32 32 31 32 32 32 36 38 40 41 34 31 29 32 29 28 29 28 32 35 33 32 30 30 29 28 26 25 25 24 23 22 21 20 20 21 20 20 18 19
43 40 44 44 44 43 43 43 41 33 33 32 29 31 32 32 30 32 34 34 38 38 33 38 30 28 35 31 28 35 31 34 33 31 31 32 30 28 27 25 22 23 23 24 23 23 23 24 23 23 22 23 23 24
42 44 44 44 44 43 40 40 37 34 28 30 30 30 32 32 33 32 34 37 39 39 39 35 39 30 30 28 31 35 34 30 29 29 30 29 29 28 28 26 23 24 24 23 23 23 23 22 25 27 28 28 28 28
44 45 44 43 43 41 36 35 37 29 29 31 32 33 32 33 34 34 35 37 41 44 42 39 33 34 34 36 35 33 32 32 30 28 27 26 28 26 25 25 24 25 24 24 25 28 28 28 31 32 32 31 31 30
43 42 42 42 44 39 34 32 39 34 29 30 33 32 33 33 35 34 34 35 36 41 37 35 35 36 37 36 38 36 35 34 32 30 27 27 28 25 26 26 28 27 26 27 28 28 29 29 31 31 32 30 29 27
43 42 42 42 40 39 35 34 32 33 32 31 32 35 33 36 35 34 36 39 36 37 37 38 36 35 33 33 35 37 34 35 35 37 33 28 28 30 28 29 28 29 29 29 28 28 27 30 31 31 28 26 26 26
41 41 41 40 35 34 34 36 33 34 32 31 33 35 32 31 32 34 38 36 37 37 38 39 38 33 35 34 34 35 33 33 30 29 29 28 27 28 29 29 29 28 29 29 30 28 29 30 29 28 25 23 23 22
41 42 38 37 31 30 28 36 30 33 28 28 32 30 30 31 34 38 33 37 35 33 35 37 36 37 35 33 34 34 34 34 33 31 29 32 32 31 30 30 31 29 28 29 31 30 28 24 23 23 22 22 22 20
40 32 28 27 30 25 31 28 33 32 31 29 28 25 28 30 34 32 30 34 33 34 34 33 36 33 33 32 33 32 31 33 30 29 30 30 29 29 31 31 31 32 32 30 29 26 24 23 19 21 20 19 17 17
31 26 28 23 28 26 25 25 25 28 25 26 25 26 28 32 28 27 27 31 31 30 30 33 34 35 35 32 31 30 30 33 31 28 29 32 30 29 28 29 29 28 29 26 24 23 21 20 20 18 17 17 15 12
23 24 25 25 25 25 26 22 22 24 26 25 26 29 29 28 23 25 29 29 28 29 28 30 31 32 31 32 30 30 30 33 33 29 28 30 30 29 26 24 24 23 27 28 25 22 19 18 17 15 12 9 6 10
22 22 26 31 30 29 27 27 28 27 24 25 27 26 26 22 23 27 28 28 28 28 29 31 32 33 33 29 27 27 29 30 30 29 28 27 27 30 30 27 26 25 25 24 24 22 19 17 15 13 9 8 6 6
27 26 22 25 26 28 23 25 25 25 28 29 28 24 24 25 26 27 28 27 27 28 28 26 25 30 30 28 26 24 23 21 21 22 23 22 21 21 22 22 21 19 21 21 20 19 18 16 13 12 10 6 1 1
24 27 27 21 23 24 25 25 27 29 28 29 28 28 26 25 25 26 27 26 26 28 28 26 23 24 23 24 24 25 24 25 24 22 22 20 19 17 19 19 19 18 17 15 13 14 12 11 9 7 5 2 -1 -1
24 28 26 21 20 23 28 29 28 25 26 26 26 25 25 24 24 24 24 26 26 27 27 26 24 25 23 23 20 20 23 24 25 26 24 22 21 17 17 17 17 17 17 16 12 8 7 5 3 2 1 0 1 0
28 27 25 26 25 25 25 23 23 23 24 24 21 24 26 23 23 22 22 21 23 24 23 22 22 23 23 22 23 21 20 20 18 20 22 19 17 18 17 17 17 17 14 12 10 8 6 5 3 1 -1 -3 -6 -3
26 25 24 21 22 22 23 24 24 23 21 21 22 19 20 21 22 20 17 18 22 22 20 23 22 22 23 23 21 21 20 18 17 17 18 17 17 15 15 15 15 14 12 9 8 6 4 3 2 0 -2 -4 -6 -7
22 23 21 21 19 19 21 22 21 19 18 19 19 18 20 21 19 17 18 16 17 20 21 19 18 18 17 17 16 16 16 16 15 14 13 13 13 13 13 13 12 10 8 6 4 2 1 -1 -2 -3 -5 -7 -8 -9

GFSWCAN_sfc_temp_123.txt.gz
Temp
46 46 45 45 45 45 46 48 48 48 48 49 50 49 49 50 52 54 45 54 54 44 45 49 49 46 47 48 39 44 42 44 43 39 41 42 41 43 41 45 42 39 37 35 37 33 29 39 35 31 37 41 42 41
46 46 45 44 45 45 45 47 47 48 48 48 48 49 50 51 52 57 46 50 53 44 40 50 50 54 56 57 51 49 48 46 47 44 46 48 40 43 43 33 47 36 44 38 36 32 36 35 36 40 41 39 40 41
46 45 45 44 45 46 45 47 47 47 47 47 48 49 49 51 52 53 48 51 48 40 41 45 45 53 58 60 62 48 52 51 48 51 50 48 41 48 38 40 39 41 46 35 35 34 35 35 36 38 38 38 42 43
45 45 45 45 45 45 46 46 47 47 47 47 48 48 50 52 53 55 53 56 54 50 38 42 55 49 58 59 58 59 53 54 52 53 47 44 42 48 43 44 41 42 43 37 32 34 35 34 35 36 36 39 41 43
45 45 45 45 44 45 46 46 46 47 47 48 49 50 51 51 52 55 56 56 59 51 40 42 51 54 57 57 55 55 53 51 50 47 44 45 48 45 43 43 37 44 39 35 34 37 36 33 34 36 34 36 39 39
45 44 44 45 45 46 46 46 47 47 48 48 48 49 49 50 55 57 41 59 63 60 46 37 48 49 54 55 53 52 53 52 53 50 48 50 49 46 40 34 40 41 43 44 37 38 34 33 35 35 34 38 40 39
45 45 43 45 46 46 47 47 47 47 47 48 48 48 48 49 54 52 47 53 52 61 45 39 39 47 52 52 52 50 52 51 53 50 49 49 47 48 40 38 39 40 43 42 41 38 32 34 33 39 41 39 39 39
45 44 45 46 46 47 47 47 47 47 47 48 48 49 49 50 51 49 49 50 53 55 52 38 35 41 51 45 43 52 48 51 50 49 49 48 48 47 35 40 41 42 43 40 41 43 40 41 41 39 40 39 36 35
45 44 45 46 46 46 46 46 46 47 47 48 49 51 54 51 49 49 45 50 59 54 42 40 35 31 49 45 46 48 52 40 49 43 47 49 41 35 40 42 41 41 40 39 43 41 40 39 38 38 38 38 36 34
45 45 45 45 45 45 45 46 46 47 48 49 53 46 36 47 44 48 53 45 47 49 50 41 46 35 47 44 41 42 46 40 36 43 48 41 39 44 48 47 45 44 46 46 39 37 39 37 37 37 36 37 35 32
45 45 45 45 45 46 46 46 46 48 51 50 39 39 50 47 54 48 36 39 42 38 44 43 45 39 50 39 38 45 39 41 33 37 37 36 36 40 47 45 46 48 48 47 47 45 43 41 38 36 34 34 33 31
45 45 45 46 46 46 46 47 47 52 49 47 48 51 53 46 41 36 33 38 40 35 42 39 42 45 44 50 40 41 35 38 29 43 34 32 38 44 44 43 44 47 47 45 46 44 43 41 39 37 34 32 30 29
45 45 45 45 45 46 45 45 45 45 45 53 46 36 43 38 30 31 25 32 31 35 38 39 36 43 45 44 38 39 31 31 39 32 33 38 41 43 42 43 43 45 44 43 42 42 41 39 38 34 29 26 23 21
45 45 45 45 45 45 45 45 45 49 51 39 36 28 32 30 33 33 36 35 35 39 41 41 40 41 39 35 34 30 34 37 30 28 33 39 38 38 39 40 39 32 32 33 32 32 29 27 25 25 24 23 21 20
45 45 46 45 45 45 44 45 46 52 43 35 37 28 30 34 35 34 35 36 39 44 43 41 42 43 36 31 36 35 29 29 34 34 35 35 36 36 35 36 32 30 29 29 29 25 23 22 22 22 23 25 24 21
46 47 46 45 45 45 45 48 49 48 43 38 35 31 35 33 31 33 33 33 42 43 46 45 38 33 31 34 31 30 32 31 34 33 34 34 33 32 32 31 30 30 30 29 27 25 24 23 23 24 25 24 22 23
47 45 44 45 45 45 46 48 46 39 37 34 31 34 34 34 32 33 36 37 44 43 35 41 32 30 39 34 32 40 33 33 33 32 34 34 32 31 31 30 28 29 29 28 27 27 26 28 26 25 24 24 26 26
45 47 45 45 48 48 46 46 42 38 30 33 32 31 34 33 33 34 36 41 44 43 43 37 42 33 32 30 34 38 35 32 32 32 32 32 32 31 31 29 28 29 29 28 27 27 27 26 28 30 31 30 31 31
45 46 43 44 46 47 41 40 43 32 31 34 34 36 35 34 35 36 38 42 47 49 45 43 35 37 36 39 36 34 33 35 32 31 30 31 31 31 30 29 29 29 28 28 29 31 31 32 35 35 35 34 34 33
44 43 43 44 47 45 38 37 46 37 31 32 36 35 38 35 36 35 36 38 40 44 39 38 36 37 38 39 41 39 36 37 36 32 30 30 31 30 29 30 32 30 30 31 33 32 33 33 36 36 36 34 32 30
46 45 45 47 45 44 39 38 35 37 38 34 37 39 37 40 37 36 38 43 38 41 39 41 36 38 39 40 43 43 39 41 41 41 36 31 33 34 32 34 32 33 33 32 32 32 32 33 34 35 30 29 29 28
45 44 45 45 39 39 37 39 36 38 36 35 38 40 35 32 33 35 41 38 38 35 38 42 42 40 40 39 40 42 39 38 37 37 35 34 32 32 32 32 33 32 33 32 33 31 32 34 33 30 29 26 27 26
44 45 42 41 33 33 30 39 33 37 30 32 37 33 33 33 36 41 34 40 35 38 41 43 41 43 39 39 39 39 40 40 39 36 35 36 36 34 33 33 34 31 31 32 34 32 31 30 28 27 26 26 25 23
42 34 30 30 33 27 34 31 37 35 34 32 32 28 30 32 37 35 32 35 35 39 38 37 41 38 38 38 38 37 37 40 37 36 37 35 32 32 33 34 34 34 34 34 32 29 28 27 26 26 25 24 24 22
33 28 30 27 32 30 28 28 29 31 27 29 28 28 30 35 30 31 30 32 33 31 32 35 38 39 36 36 37 34 36 39 36 33 34 37 34 33 32 32 31 32 33 29 27 26 25 25 25 24 24 23 20 17
26 26 28 28 29 29 30 25 26 27 29 27 28 32 32 30 26 27 34 30 30 30 30 31 33 35 35 38 35 35 34 38 37 34 34 36 34 31 29 27 25 26 31 31 28 26 25 25 23 20 15 14 13 16
26 26 31 36 34 34 30 32 34 31 27 27 30 28 28 24 27 31 32 32 32 31 32 32 32 36 36 34 33 34 34 34 35 33 33 32 32 33 32 30 28 28 30 30 29 28 25 22 20 18 15 14 12 12
31 31 26 28 29 32 26 28 28 27 30 35 33 27 26 28 29 30 31 30 31 32 31 30 31 35 34 32 31 29 27 27 27 28 27 27 28 27 26 27 27 26 28 27 26 25 23 21 18 17 14 10 7 9
28 32 31 24 26 28 28 29 30 34 35 35 30 31 30 32 30 31 30 31 32 31 30 29 28 29 29 29 29 30 29 29 27 24 25 23 22 21 24 24 23 22 20 18 18 19 19 17 15 12 11 9 7 7
28 32 29 26 24 27 30 32 30 29 34 32 34 32 32 29 29 30 30 30 30 29 30 30 29 29 27 27 25 26 28 29 29 29 27 25 24 22 22 21 21 20 20 17 13 11 10 9 9 8 7 7 8 7
32 29 28 29 28 29 28 28 28 29 28 29 28 28 31 29 27 27 28 27 27 28 28 27 27 28 28 27 27 25 23 24 24 26 26 24 23 22 22 22 21 20 18 16 14 13 12 11 10 7 6 3 1 4
28 27 27 25 27 27 27 28 28 27 28 26 27 26 26 26 26 23 22 24 25 25 25 27 27 26 28 26 26 26 25 23 23 23 24 23 22 21 21 20 19 19 16 14 13 11 11 9 8 6 4 2 1 -1
27 27 26 26 26 24 26 26 25 25 24 24 25 24 25 25 23 20 22 22 22 23 25 24 24 24 24 23 22 22 22 21 21 21 20 20 19 19 19 19 17 15 14 12 10 9 7 6 5 3 1 -1 -2 -3

GFSWCAN_sfc_temp_126.txt.gz
Temp
47 47 47 47 47 47 47 47 47 48 49 50 50 50 50 50 50 49 46 53 51 45 51 56 57 51 49 48 38 42 41 43 41 37 38 40 39 43 42 45 40 36 34 32 35 31 27 40 37 31 37 43 43 42
47 47 47 46 46 45 45 45 47 48 49 49 49 50 51 50 50 50 44 52 55 50 42 55 57 61 58 56 48 45 44 43 45 41 44 45 40 43 43 34 48 35 41 34 32 30 36 36 37 42 44 39 39 37
46 46 45 45 44 44 45 47 48 48 48 48 50 50 50 51 50 50 47 49 49 42 43 47 46 54 58 57 59 43 48 51 50 53 48 45 40 47 37 40 42 43 47 35 35 33 34 35 37 38 39 37 38 39
46 45 45 45 44 44 46 47 48 48 48 49 48 49 49 49 50 53 50 53 53 49 36 37 52 51 58 59 59 58 55 55 54 53 47 43 41 49 41 43 41 43 44 37 32 34 35 35 35 36 36 37 38 40
45 45 45 44 44 46 46 47 48 48 49 50 51 51 51 52 54 56 56 56 59 49 37 37 48 53 57 57 56 55 54 50 49 46 44 42 46 46 45 43 39 45 40 35 33 37 38 33 35 36 34 33 36 38
43 44 44 44 45 45 46 46 47 48 48 50 51 52 53 53 55 52 38 52 56 54 41 33 47 49 54 55 53 52 52 52 52 49 46 47 51 46 38 36 41 44 46 45 38 39 34 34 35 35 33 34 37 38
45 44 44 45 45 46 46 46 47 48 49 49 50 52 52 51 53 48 45 52 58 59 43 36 35 49 53 52 51 50 53 52 52 49 46 47 46 47 40 36 40 42 43 41 41 38 32 35 33 36 37 40 40 40
45 45 45 45 46 47 47 47 48 49 49 49 50 50 50 50 52 50 49 51 51 56 52 37 35 40 52 44 42 52 47 49 49 47 48 46 46 45 36 41 42 42 41 39 41 45 40 40 38 40 40 39 36 35
45 45 45 45 46 46 47 47 48 49 49 49 50 51 55 55 50 50 46 50 61 54 41 39 34 31 49 45 46 48 50 40 48 42 45 47 41 35 40 40 40 41 40 40 42 42 41 39 39 38 38 38 35 33
45 45 45 46 46 46 47 47 48 49 50 51 54 47 36 46 45 47 51 46 49 51 50 40 44 34 45 43 41 42 45 39 35 41 47 40 36 46 48 46 44 44 44 43 38 36 38 37 36 37 36 37 35 33
45 46 46 46 46 47 47 48 49 50 53 49 41 40 49 48 52 49 37 40 42 38 44 45 44 40 49 39 38 45 39 40 33 37 38 35 34 41 47 46 46 46 46 45 45 44 43 41 37 36 36 35 33 31
46 46 46 46 46 46 47 47 50 51 50 49 49 52 53 47 43 36 34 39 40 34 42 40 43 45 44 49 40 41 36 38 30 43 35 32 37 44 44 43 44 46 46 45 46 44 42 41 39 36 34 32 31 28
45 46 46 46 45 46 46 46 46 47 48 54 46 36 43 39 32 32 27 32 31 37 39 40 37 42 44 43 37 37 32 31 40 32 32 35 40 44 42 42 41 44 43 41 40 40 40 38 38 35 28 24 23 20
45 45 46 45 45 45 46 46 47 52 51 41 35 30 33 31 33 32 35 35 38 40 40 41 40 39 39 34 34 32 35 37 30 28 32 36 39 39 38 37 35 32 33 32 32 30 26 25 23 23 22 22 19 18
46 46 46 45 45 46 46 47 48 53 44 36 38 29 30 34 35 35 38 40 43 44 43 41 41 41 36 31 36 34 30 29 33 32 32 36 37 36 35 33 32 30 29 29 28 25 23 22 22 21 22 22 22 19
47 47 45 45 46 46 47 50 51 50 44 38 36 32 36 33 32 33 34 35 45 44 46 45 39 33 32 34 32 31 32 31 32 32 33 35 33 33 32 32 32 32 31 29 27 24 23 22 22 23 24 23 21 20
47 44 44 45 46 47 48 50 47 41 38 36 32 34 34 33 32 33 36 39 45 42 35 41 32 31 39 34 32 38 31 31 32 32 34 34 32 32 32 31 30 31 30 28 26 26 25 26 25 24 22 22 24 24
47 47 45 45 48 50 48 48 43 39 31 34 32 32 33 33 33 33 36 42 45 43 42 38 42 35 33 31 32 34 32 31 32 32 32 32 32 32 31 30 30 31 29 28 27 26 27 24 26 27 28 27 29 28
44 46 44 45 47 48 41 42 45 32 32 34 35 36 35 33 35 37 38 42 48 49 44 42 35 35 34 35 33 32 33 33 30 30 31 31 31 31 31 30 30 30 29 27 28 29 29 31 32 33 32 31 31 32
46 44 44 45 49 45 38 39 47 37 32 33 37 35 35 34 37 36 39 42 43 44 39 36 33 34 34 35 36 35 34 34 32 28 27 29 31 31 30 31 31 31 30 30 32 31 32 33 36 35 35 33 32 29
48 47 47 50 47 45 41 39 36 38 38 34 38 38 34 38 37 38 39 43 38 39 35 36 34 36 40 41 42 40 39 40 37 37 32 28 31 32 32 33 32 32 31 31 31 31 31 32 34 34 31 29 28 26
46 45 47 46 41 41 38 40 38 40 37 36 37 39 33 32 33 35 41 38 35 33 36 38 39 40 39 39 41 41 39 40 40 38 35 33 31 31 32 32 32 31 32 32 32 31 32 34 32 31 29 26 26 23
46 46 43 42 34 34 31 42 34 37 31 33 37 34 33 33 36 42 34 37 34 38 39 40 41 41 39 40 40 40 41 41 38 36 35 34 34 34 33 32 34 32 31 32 33 32 30 30 29 28 27 26 23 20
43 35 31 31 33 28 35 32 38 35 35 33 32 30 31 33 38 36 32 32 34 38 37 38 40 38 38 39 37 37 39 40 37 36 35 33 31 31 33 33 33 34 34 34 31 29 29 27 27 26 26 25 24 22
33 28 31 28 34 31 29 29 30 32 28 31 29 29 30 35 31 31 31 30 30 30 32 34 36 36 33 33 34 35 38 39 36 33 35 35 32 32 31 32 31 31 33 30 28 27 25 26 26 24 24 23 20 19
25 28 30 30 30 31 31 27 28 29 30 29 29 32 33 31 28 28 30 29 29 30 30 31 32 33 34 36 34 34 35 39 38 34 33 34 33 31 29 27 26 27 32 31 28 25 24 25 23 18 16 15 15 16
26 27 33 38 36 35 31 33 34 32 29 28 30 29 29 26 27 28 30 30 30 30 32 32 33 34 33 33 33 33 34 35 33 31 31 30 30 32 32 28 26 28 31 30 29 28 25 22 20 18 16 15 14 13
32 33 27 29 31 34 28 30 29 29 31 35 34 28 27 27 26 28 29 30 31 32 32 32 32 34 33 31 30 29 29 28 28 28 28 27 26 25 24 25 26 26 27 27 27 26 24 22 19 17 14 11 9 9
30 34 32 24 28 30 30 30 32 34 35 35 30 29 30 31 31 31 30 31 32 32 30 29 28 30 29 29 30 30 29 29 26 23 23 21 21 21 24 24 22 22 20 20 20 21 20 18 16 13 10 9 9 9
29 34 30 28 25 27 29 31 30 30 34 33 35 34 33 29 28 31 31 30 30 30 30 31 29 29 27 27 26 28 29 29 29 29 26 24 22 23 22 21 19 19 18 15 13 11 12 10 10 9 8 8 8 6
33 31 29 30 29 30 29 29 29 30 30 31 30 29 30 28 27 28 27 26 28 29 29 28 28 30 29 27 26 25 23 25 27 26 25 24 24 23 22 22 20 18 16 15 14 13 12 11 9 8 6 4 2 4
29 28 28 26 28 29 29 28 29 28 30 28 29 29 27 27 26 23 22 24 25 26 27 29 28 28 28 27 26 27 26 25 25 25 24 23 22 22 21 20 19 19 17 15 14 13 12 10 8 6 4 3 2 0
28 29 29 28 28 26 28 27 28 27 26 25 26 27 27 25 22 20 23 24 23 23 24 24 25 26 25 25 24 23 23 23 23 23 22 22 21 20 20 19 18 16 14 13 11 10 9 7 5 4 2 -0 -1 -1